     2              OBSERVATION DATA    GPS                 RINEX VERSION / TYPE
TRRINEXO-V2.3.1-LH UCLA/SCEC 17-MAR-1994                    PGM / RUN BY / DATE
                                                            COMMENT
Original Marker Name: CAJON 1934                            COMMENT
Campaign Name: Northridge 1994                              COMMENT
4-Character Station Name: CAJO                              COMMENT
6-Character Antenna Code: TRMSST                            COMMENT
Vertical Measurement Point: BPA                             COMMENT
Vertical Offset to Rinex Ref. Point: 0.0000                 COMMENT
Radial Measurement Point: RRP                               COMMENT
Radial Offset to Rinex Ref. Point: 0.0000                   COMMENT
Antenna Height from Field Measurement: 2.2200 m             COMMENT
Original XYZ: -2430677.2580 -4678964.7754 3579060.6426      COMMENT
New XYZ position is based on association with SCEC monument COMMENT
E1F2A7V9+0011. Position of that monument is believed to be  COMMENT
valid to within 1 m horizontally; vertical accuracy         COMMENT
should be no worse than 3-times this value.                 COMMENT
                                                            COMMENT
Revised Rinex header created by UCSD GPS archive for        COMMENT
GSAC on 17-Apr-1999 (1999:107) 02:31:07 GMT                 COMMENT
For assistance contact dagnew@ucsd.edu or hjohnson@ucsd.edu COMMENT
                                                            COMMENT
CAJON 1934                                                  MARKER NAME
E. DUUALL NATIONAL GEODETIC SURVEY                          OBSERVER / AGENCY
1552 TRIMBLE 4000 SSE 5.66                                  REC # / TYPE / VERS
19 TR 4000SST L1/L2 GEO                                     ANT # / TYPE
 -2430671.0000 -4679025.0000  3579050.0000                  APPROX POSITION XYZ
        2.2200        0.0000        0.0000                  ANTENNA: DELTA H/E/N
     1     1     0                                          WAVELENGTH FACT L1/2
     4    C1    L1    L2    P2                              # / TYPES OF OBSERV
    30                                                      INTERVAL
  1994     2    17    16    55   30.000000                  TIME OF FIRST OBS
  1994     2    17    22    59   30.000000                  TIME OF LAST OBS
     0                                                      # OF SATELLITES
                                                            END OF HEADER
 94  2 17 16 55 30.0000000  0  5 14 15 22 25 29
  21432640.695     -659535.17517   -430634.55419  21432643.238
  21570755.789      363922.49717    239257.95619  21570758.766
  23379568.898     -818667.93516   -470324.21119  23379573.141
  21248916.227      309624.64717    205529.49219  21248917.855
  22890743.688     -565323.67216   -373073.40719  22890745.973
 94  2 17 16 56  0.0000000  0  5 14 15 22 25 29
  21417144.516     -740967.277 7   -494088.132 9  21417147.059
  21580003.813      412520.231 7    277126.294 9  21580006.824
  23360147.727     -920725.660 6   -549849.663 9  23360152.109
  21256802.031      351064.945 7    237820.618 9  21256803.613
  22877397.594     -635459.752 6   -427724.858 9  22877399.469
 94  2 17 16 56 30.0000000  0  5 14 15 22 25 29
  21401704.289     -822107.747 7   -557314.451 9  21401706.750
  21589347.375      461619.849 7    315385.705 9  21589350.445
  23340749.664    -1022658.564 5   -629277.854 9  23340754.152
  21264766.219      392916.118 7    270431.906 9  21264767.789
  22864078.813     -705450.013 6   -482262.681 9  22864081.180
 94  2 17 16 57  0.0000000  0  5 14 15 22 25 29
  21386312.227     -902992.910 7   -620341.819 9  21386314.664
  21598779.625      511188.374 7    354010.501 9  21598782.977
  23321373.063    -1124485.779 6   -708623.695 9  23321377.445
  21272801.094      435139.414 7    303333.166 9  21272802.441
  22850777.289     -775352.673 6   -536732.235 9  22850779.434
 94  2 17 16 57 30.0000000  0  5 14 15 22 25 29
  21370964.969     -983642.507 7   -683185.638 9  21370967.453
  21608297.969      561206.510 7    392985.635 9  21608301.004
  23302014.086    -1226217.615 6   -787895.234 9  23302018.750
  21280903.008      477714.044 8    336508.187 9  21280904.344
  22837485.023     -845200.448 6   -591159.025 9  22837486.629
 94  2 17 16 58  0.0000000  0  5 14 15 22 25 29
  21355658.742    -1064078.283 7   -745862.849 9  21355661.156
  21617897.039      611648.587 7    432291.120 9  21617900.203
  23282671.930    -1327862.869 6   -867099.306 9  23282675.785
  21289066.867      520615.391 8    369937.792 9  21289068.133
  22824199.133     -915017.617 6   -645561.972 9  22824201.430
 94  2 17 16 58 30.0000000  0  5 14 15 22 25 29
  21340390.703    -1144312.448 7   -808382.960 9  21340393.094
  21627573.313      662500.325 7    471915.815 9  21627576.582
  23263348.719    -1429411.106 6   -946227.789 9  23263352.973
  21297295.250      563853.698 8    403629.964 9  21297296.363
  22810915.922     -984821.282 6   -699954.416 9  22810917.973
 94  2 17 16 59  0.0000000  0  5 14 15 22 25 29
  21325164.828    -1224325.952 7   -870731.127 9  21325167.395
  21637329.617      713768.067 7    511864.671 9  21637332.758
  23244047.492    -1530836.770 6  -1025260.768 9  23244051.066
  21305589.664      607441.578 8    437594.531 9  21305590.848
  22797639.516    -1054588.784 6   -754318.674 9  22797641.742
 94  2 17 16 59 30.0000000  0  5 14 15 22 25 29
  21309980.734    -1304116.915 7   -932905.883 9  21309983.242
  21647163.180      765443.011 7    552130.822 9  21647166.449
  23224769.477    -1632144.839 6  -1104202.117 9  23224773.063
  21313949.836      651374.047 8    471827.603 9  21313951.055
  22784373.141    -1124305.852 6   -808643.638 9  22784375.977
 94  2 17 17  0  0.0000000  0  5 14 15 22 25 29
  21294839.398    -1383687.477 7   -994908.892 9  21294841.895
  21657072.281      817517.396 7    592708.225 9  21657075.703
  23205515.359    -1733324.530 6  -1183043.454 9  23205519.191
  21322374.148      695644.759 8    506324.244 9  21322375.402
  22771118.078    -1193959.198 6   -862918.939 9  22771120.387
 94  2 17 17  0 30.0000000  0  5 14 15 22 25 29
  21279736.430    -1463050.854 7  -1056750.460 9  21279738.879
  21667055.016      869976.579 7    633585.473 9  21667058.461
  23186283.688    -1834389.753 6  -1261795.582 9  23186287.285
  21330861.102      740244.565 8    541077.322 9  21330862.367
  22757873.984    -1263562.068 6   -917154.911 9  22757876.199
 94  2 17 17  1  0.0000000  0  5 14 15 22 25 29
  21264671.578    -1542219.168 7  -1118440.040 9  21264673.910
  21677108.320      922805.751 7    674751.021 9  21677111.754
  23167068.250    -1935364.056 6  -1340476.866 9  23167072.023
  21339406.234      785150.193 8    576068.701 9  21339407.523
  22744632.969    -1333141.024 6   -971372.246 9  22744635.418
 94  2 17 17  1 30.0000000  0  5 14 15 22 25 29
  21249642.563    -1621195.998 7  -1179980.417 9  21249645.023
  21687232.547      976008.844 7    716207.943 9  21687236.074
  23147871.547    -2036247.050 6  -1419087.010 9  23147874.816
  21348011.969      830372.679 8    611306.978 9  21348013.410
  22731396.789    -1402696.764 6  -1025571.490 9  22731398.934
 94  2 17 17  2  0.0000000  0  5 14 15 22 25 29
  21234650.883    -1699979.807 7  -1241370.385 9  21234653.402
  21697431.055     1029601.526 7    757968.434 9  21697434.184
  23128695.883    -2137017.812 6  -1497609.697 9  23128699.340
  21356679.648      875921.360 8    646799.422 9  21356681.230
  22718167.844    -1472216.630 6  -1079742.787 9  22718170.012
 94  2 17 17  2 30.0000000  0  5 14 15 22 25 29
  21219695.047    -1778571.844 7  -1302610.914 9  21219697.484
  21707703.281     1083582.926 7    800031.825 9  21707706.457
  23109538.961    -2237687.390 6  -1576053.529 9  23109542.746
  21365410.867      921802.927 8    682551.252 9  21365412.367
  22704944.906    -1541704.566 6  -1133889.182 9  22704947.309
 94  2 17 17  3  0.0000000  0  5 14 15 22 25 29
  21204777.023    -1856967.195 7  -1363698.189 9  21204779.590
  21718048.734     1137947.613 7    842393.881 9  21718052.027
  23090400.195    -2338260.768 6  -1654422.399 9  23090404.156
  21374204.563      968015.055 8    718560.662 9  21374206.297
  22691728.094    -1611157.652 6  -1188008.440 9  22691730.180
 94  2 17 17  3 30.0000000  0  5 14 15 22 25 29
  21189897.758    -1935158.156 7  -1424626.190 9  21189900.125
  21728466.008     1192692.202 7    885051.956 9  21728469.184
  23071283.445    -2438717.684 6  -1732700.521 9  23071287.477
  21383060.742     1014554.881 8    754825.429 9  21383062.535
  22678522.383    -1680554.194 6  -1242083.618 9  22678524.480
 94  2 17 17  4  0.0000000  0  5 14 15 22 25 29
  21175063.102    -2013116.471 7  -1485372.914 9  21175065.445
  21738956.086     1247817.678 7    928006.829 9  21738959.332
  23052192.016    -2539044.205 6  -1810877.025 9  23052196.070
  21391979.273     1061420.978 8    791344.428 9  21391981.055
  22665329.172    -1749885.423 6  -1296107.914 9  22665331.105
 94  2 17 17  4 30.0000000  0  5 14 15 22 25 29
  21160283.242    -2090783.405 7  -1545892.589 9  21160285.633
  21749523.227     1303348.374 7    971277.460 9  21749526.227
  23033132.148    -2639204.812 6  -1888924.245 9  23033136.543
  21400964.953     1108642.279 8    828140.204 9  21400966.816
  22652153.141    -1819124.922 6  -1350060.733 9  22652155.145
 94  2 17 17  5  0.0000000  0  5 14 15 22 25 29
  21145562.164    -2168144.013 7  -1606173.560 9  21145564.566
  21760167.180     1359280.402 7   1014860.816 9  21760169.863
  23014107.148    -2739182.645 6  -1966829.031 9  23014111.215
  21410014.523     1156197.334 7    865196.058 9  21410016.164
  22638994.875    -1888275.022 6  -1403943.882 9  22638996.914
 94  2 17 17  5 30.0000000  0  5 14 15 22 25 29
  21130895.750    -2245215.991 7  -1666229.640 9  21130898.141
  21770883.586     1415595.092 7   1058742.355 9  21770886.633
  22995117.227    -2838975.884 6  -2044589.977 9  22995121.188
  21419121.000     1204052.027 7    902485.394 9  21419122.711
  22625849.680    -1957348.914 6  -1457767.659 9  22625852.000
 94  2 17 17  6  0.0000000  0  5 14 15 22 25 29
  21116283.555    -2322003.279 7  -1726063.882 9  21116285.945
  21781672.836     1472292.655 7   1102922.233 9  21781675.789
  22976159.547    -2938597.224 6  -2122216.962 9  22976163.883
  21428283.836     1252203.354 7    940005.864 9  21428285.676
  22612718.094    -2026357.034 6  -1511540.178 9  22612720.543
 94  2 17 17  6 30.0000000  0  5 14 15 22 25 29
  21101720.930    -2398532.087 7  -1785696.714 9  21101723.121
  21792533.859     1529367.526 7   1147396.115 9  21792536.789
  22957232.852    -3038056.191 6  -2199717.432 9  22957237.340
  21437501.430     1300641.354 8    977749.724 9  21437503.023
  22599596.984    -2095309.863 6  -1565269.622 9  22599599.012
 94  2 17 17  7  0.0000000  0  5 14 15 22 25 29
  21087202.766    -2474825.584 7  -1845146.187 9  21087205.016
  21803466.117     1586818.056 7   1192162.718 9  21803468.766
  22938335.734    -3137360.639 6  -2277097.497 9  22938340.539
  21446771.648     1349356.427 8   1015709.486 9  21446773.219
  22586487.500    -2164199.896 6  -1618950.129 9  22586489.645
 94  2 17 17  7 30.0000000  0  5 14 15 22 25 29
  21072727.680    -2550892.190 7  -1904418.857 9  21072729.930
  21814470.625     1644645.746 7   1237223.218 9  21814473.473
  22919466.953    -3236520.362 6  -2354364.788 9  22919471.395
  21456096.930     1398360.273 8   1053894.269 9  21456098.488
  22573390.609    -2233024.555 6  -1672579.703 9  22573392.660
 94  2 17 17  8  0.0000000  0  5 14 15 22 25 29
  21058298.766    -2626716.901 7  -1963503.034 9  21058301.250
  21825547.516     1702853.453 7   1282579.816 9  21825550.363
  22900624.047    -3335538.749 6  -2431521.935 9  22900628.605
  21465479.766     1447668.623 8   1092316.335 9  21465481.313
  22560305.742    -2301786.210 6  -1726160.184 9  22560307.887
 94  2 17 17  8 30.0000000  0  5 14 15 22 25 29
  21043916.555    -2702294.938 7  -2022394.998 9  21043919.109
  21836694.680     1761432.793 7   1328226.005 9  21836697.762
  22881810.219    -3434407.009 6  -2508562.105 9  22881814.461
  21474923.078     1497290.216 8   1130982.487 9  21474924.426
  22547232.164    -2370489.001 6  -1779694.807 9  22547234.215
 94  2 17 17  9  0.0000000  0  5 14 15 22 25 29
  21029586.867    -2777597.495 7  -2081072.322 9  21029589.434
  21847912.984     1820386.450 7   1374163.873 9  21847916.207
  22863029.602    -3533106.977 6  -2585471.143 9  22863033.141
  21484427.609     1547238.193 8   1169902.976 9  21484428.898
  22534171.242    -2439122.221 6  -1833175.215 9  22534173.352
 94  2 17 17  9 30.0000000  0  5 14 15 22 25 29
  21015312.992    -2852607.231 7  -2139521.465 9  21015315.465
  21859202.953     1879714.915 7   1420393.793 9  21859206.164
  22844281.703    -3631620.690 6  -2662235.039 9  22844285.406
  21493998.086     1597530.829 8   1209092.032 9  21493999.527
  22521122.609    -2507692.566 6  -1886606.626 9  22521124.625
 94  2 17 17 10  0.0000000  0  5 14 15 22 25 29
  21001097.352    -2927312.435 7  -2197733.300 9  21001099.684
  21870563.938     1939417.678 7   1466915.378 9  21870567.430
  22825573.422    -3729931.836 6  -2738841.090 9  22825577.418
  21503635.727     1648177.138 8   1248556.674 9  21503637.133
  22508087.875    -2576193.180 6  -1939983.700 9  22508089.820
 94  2 17 17 10 30.0000000  0  5 14 15 22 25 29
  20986939.086    -3001714.637 7  -2255709.025 9  20986941.348
  21881995.234     1999489.359 7   1513724.434 9  21881998.352
  22806905.875    -3828030.661 6  -2815281.695 9  22806910.176
  21513338.594     1699167.174 8   1288289.150 9  21513340.223
  22495067.375    -2644616.536 6  -1993300.564 9  22495069.168
 94  2 17 17 11  0.0000000  0  5 14 15 22 25 29
  20972838.930    -3075810.981 7  -2313446.420 9  20972841.344
  21893497.164     2059932.165 7   1560822.668 9  21893500.469
  22788280.750    -3925907.511 6  -2891549.321 9  22788284.512
  21523105.711     1750493.846 8   1328283.952 9  21523107.328
  22482061.922    -2712959.811 6  -2046555.032 9  22482063.844
 94  2 17 17 11 30.0000000  0  5 14 15 22 25 29
  20958797.172    -3149600.845 7  -2370945.005 9  20958799.574
  21905069.930     2120747.840 7   1608211.461 9  21905073.586
  22769699.359    -4023557.035 6  -2967639.824 9  22769702.277
  21532936.500     1802153.987 8   1368538.598 9  21532938.363
  22469071.750    -2781221.334 6  -2099745.811 9  22469073.367
 94  2 17 17 12  0.0000000  0  5 14 15 22 25 29
  20944816.789    -3223068.134 7  -2428192.241 9  20944818.910
  21916716.180     2181947.178 7   1655899.200 9  21916719.848
  22751163.453    -4120957.961 6  -3043536.590 9  22751166.641
  21542829.328     1854140.992 7   1409047.951 9  21542830.887
  22456099.922    -2849387.694 6  -2152862.432 9  22456101.738
 94  2 17 17 12 30.0000000  0  5 14 15 22 25 29
  20930896.180    -3296220.511 7  -2485194.079 9  20930898.383
  21928432.250     2243516.620 7   1703875.335 9  21928436.012
  22732675.281    -4218113.555 6  -3119242.194 9  22732679.512
  21552779.031     1906428.341 7   1449791.342 9  21552781.070
  22443143.938    -2917475.142 6  -2205917.568 9  22443146.012
 94  2 17 17 13  0.0000000  0  5 14 15 22 25 29
  20917036.867    -3369052.265 7  -2541946.085 9  20917039.164
  21940220.398     2305462.405 7   1752144.728 9  21940224.008
  22714234.914    -4315018.319 6  -3194752.334 9  22714238.805
  21562788.570     1959028.080 7   1490778.151 9  21562790.621
  22430202.992    -2985480.980 6  -2258909.104 9  22430205.043
 94  2 17 17 13 30.0000000  0  5 14 15 22 25 29
  20903239.688    -3441556.604 7  -2598442.962 9  20903242.031
  21952078.594     2367777.436 7   1800701.838 9  21952082.379
  22695841.359    -4411677.060 6  -3270070.768 9  22695845.133
  21572854.766     2011925.544 7   1531996.947 9  21572856.758
  22417277.242    -3053404.515 6  -2311836.528 9  22417279.480
 94  2 17 17 14  0.0000000  0  5 14 15 22 25 29
  20889503.445    -3513742.344 7  -2654691.570 9  20889505.801
  21964005.078     2430452.161 7   1849539.236 9  21964008.898
  22677494.102    -4508094.630 6  -3345201.257 9  22677497.570
  21582974.484     2065107.229 7   1573437.237 9  21582976.512
  22404367.234    -3121248.163 6  -2364701.697 9  22404369.250
 94  2 17 17 14 30.0000000  0  5 14 15 22 25 29
  20875831.164    -3585590.694 7  -2710677.287 9  20875833.437
  21976002.859     2493500.288 7   1898667.602 9  21976006.551
  22659193.961    -4604262.980 6  -3420137.548 9  22659197.277
  21593155.375     2118605.535 7   1615124.238 9  21593157.297
  22391475.664    -3188992.703 6  -2417489.638 9  22391477.469
 94  2 17 17 15  0.0000000  0  5 14 15 22 25 29
  20862221.594    -3657109.764 7  -2766406.413 9  20862223.902
  21988070.641     2556914.941 7   1948081.562 9  21988074.344
  22640938.039    -4700196.003 6  -3494890.462 9  22640941.836
  21603394.039     2172411.969 7   1657051.341 9  21603396.137
  22378602.750    -3256641.246 6  -2470202.777 9  22378604.707
 94  2 17 17 15 30.0000000  0  5 14 15 22 25 29
  20848675.375    -3728293.670 7  -2821874.385 9  20848677.672
  22000207.727     2620694.996 7   1997780.257 9  22000211.078
  22622727.641    -4795893.267 6  -3569459.668 9  22622731.402
  21613688.656     2226509.375 7   1699205.174 9  21613690.602
  22365749.000    -3324186.299 6  -2522835.276 9  22365751.227
 94  2 17 17 16  0.0000000  0  5 14 15 22 25 29
  20835193.453    -3799143.526 7  -2877082.054 9  20835195.645
  22012414.883     2684844.646 7   2047766.951 9  22012418.270
  22604561.852    -4891352.591 6  -3643843.470 9  22604566.047
  21624041.008     2280912.216 7   1741597.008 9  21624042.848
  22352916.703    -3391621.081 6  -2575381.853 9  22352918.707
 94  2 17 17 16 30.0000000  0  5 14 15 22 25 29
  20821773.453    -3869665.658 7  -2932034.362 9  20821775.680
  22024690.016     2749350.520 7   2098031.215 9  22024693.473
  22586440.273    -4986581.965 6  -3718048.085 9  22586443.754
  21634450.359     2335613.246 7   1784221.190 9  21634452.047
  22340101.906    -3458963.239 6  -2627856.251 9  22340103.863
 94  2 17 17 16 59.9990000  0  5 14 15 22 25 29
  20808418.909    -3939841.810 7  -2986717.067 9  20808421.370
  22037034.729     2814222.539 7   2148580.797 9  22037038.151
  22568367.198    -5081555.979 6  -3792053.722 9  22568370.269
  21644916.308     2390610.913 7   1827076.514 9  21644917.913
  22327310.878    -3526182.828 6  -2680235.140 9  22327312.730
 94  2 17 17 17 29.9990000  0  5 14 15 22 25 29
  20795131.253    -4009670.813 7  -3041129.270 9  20795133.526
  22049448.433     2879457.888 7   2199413.486 9  22049451.983
  22550344.159    -5176263.972 6  -3865852.058 9  22550347.651
  21655442.722     2445928.337 7   1870180.992 9  21655444.280
  22314541.558    -3593286.479 6  -2732523.687 9  22314543.538
 94  2 17 17 17 59.9990000  0  5 14 15 22 25 29
  20781912.034    -4079137.473 7  -3095259.136 9  20781914.296
  22061931.495     2945056.379 7   2250529.153 9  22061934.987
  22532378.440    -5270678.472 6  -3939421.711 9  22532382.179
  21666033.784     2501585.838 7   1913550.473 9  21666035.073
  22301793.222    -3660276.742 6  -2784723.881 9  22301795.237
 94  2 17 17 18 29.9990000  0  5 14 15 22 25 29
  20768764.354    -4148229.107 7  -3149096.774 9  20768766.651
  22074484.284     3011020.171 7   2301929.465 9  22074487.788
  22514472.050    -5364775.573 6  -4012744.057 9  22514476.444
  21676690.940     2557587.875 7   1957188.407 9  21676692.499
  22289067.901    -3727148.881 6  -2836832.037 9  22289069.870
 94  2 17 17 18 59.9990000  0  5 14 15 22 25 29
  20755689.347    -4216937.795 7  -3202636.014 9  20755691.573
  22087104.987     3077345.249 6   2353611.298 9  22087108.679
  22496626.737    -5458553.832 6  -4085817.966 9  22496630.733
  21687414.448     2613940.977 7   2001099.893 9  21687415.913
  22276366.878    -3793894.209 6  -2888841.375 9  22276368.823
 94  2 17 17 19 29.9990000  0  5 14 15 22 25 29
  20742690.065    -4285251.029 7  -3255867.108 9  20742692.327
  22099796.198     3144034.482 7   2405576.884 9  22099799.784
  22478842.667    -5552011.364 6  -4158641.949 9  22478846.159
  21698205.792     2670649.856 7   2045288.589 9  21698207.456
  22263687.128    -3860526.780 6  -2940762.865 9  22263689.366
 94  2 17 17 19 59.9990000  0  5 14 15 22 25 29
  20729762.440    -4353185.603 7  -3308803.137 9  20729764.749
  22112554.019     3211079.619 6   2457819.809 9  22112557.522
  22461114.987    -5645171.948 6  -4231234.544 9  22461118.280
  21709059.503     2727686.627 7   2089732.795 9  21709061.249
  22251028.120    -3927050.985 6  -2992599.904 9  22251030.089
 94  2 17 17 20 29.9990000  0  5 14 15 22 25 29
  20716908.433    -4420734.212 7  -3361438.428 9  20716910.729
  22125381.097     3278485.104 6   2510343.520 9  22125384.601
  22443443.167    -5738035.413 6  -4303595.635 9  22443446.659
  21719977.058     2785057.812 7   2134437.561 9  21719978.745
  22238392.487    -3993452.345 6  -3044341.225 9  22238394.749
 94  2 17 17 20 59.9990000  0  5 14 15 22 25 29
  20704128.698    -4487891.155 7  -3413768.518 9  20704130.983
  22138276.909     3346253.494 6   2563150.020 9  22138280.319
  22425828.534    -5830600.489 6  -4375724.219 9  22425832.390
  21730954.472     2842744.996 7   2179388.566 9  21730956.183
  22225779.284    -4059732.134 6  -3095987.804 9  22225781.487
 94  2 17 17 21 29.9990000  0  5 14 15 22 25 29
  20691423.659    -4554658.056 7  -3465794.680 9  20691425.886
  22151242.011     3414386.376 6   2616240.527 9  22151245.749
  22408275.753    -5922839.666 6  -4447598.857 9  22408279.667
  21741990.956     2900740.581 7   2224579.866 9  21741992.702
  22213188.331    -4125899.721 6  -3147546.946 9  22213190.675
 94  2 17 17 21 59.9990000  0  5 14 15 22 25 29
  20678791.433    -4621041.193 7  -3517521.808 9  20678793.683
  22164274.909     3482872.822 6   2669606.547 9  22164278.472
  22390789.940    -6014730.554 6  -4519202.114 9  22390793.562
  21753084.870     2959040.785 7   2270008.535 9  21753086.546
  22200618.628    -4191952.185 6  -3199016.395 9  22200620.632
 94  2 17 17 22 29.9990000  0  5 14 15 22 25 29
  20666236.026    -4687020.896 7  -3568934.563 9  20666238.206
  22177375.917     3551720.712 6   2723254.215 9  22177379.479
  22373375.847    -6106242.355 6  -4590509.968 9  22373379.034
  21764237.386     3017647.143 7   2315675.760 9  21764239.378
  22188072.979    -4257880.246 6  -3250388.983 9  22188074.761
 94  2 17 17 22 59.9990000  0  5 14 15 22 25 29
  20653758.206    -4752592.580 7  -3620029.396 9  20653760.456
  22190546.089     3620927.605 6   2777181.609 9  22190549.968
  22356035.472    -6197368.118 6  -4661517.013 9  22356038.905
  21775447.409     3076556.315 7   2361578.932 9  21775449.272
  22175553.222    -4323674.817 6  -3301657.371 9  22175555.401
 94  2 17 17 23 29.9990000  0  5 14 15 22 25 29
  20641358.933    -4817751.021 7  -3670802.209 9  20641361.147
  22203782.651     3690486.923 6   2831383.637 9  22203786.507
  22338767.870    -6288108.139 6  -4732223.485 9  22338771.608
  21786717.753     3135781.799 7   2407728.582 9  21786719.780
  22163058.034    -4389334.160 6  -3352820.479 9  22163060.132
 94  2 17 17 23 59.9990000  0  5 14 15 22 25 29
  20629039.831    -4882486.949 7  -3721245.786 9  20629042.081
  22217086.128     3760397.817 6   2885859.612 9  22217089.749
  22321568.972    -6378487.718 6  -4802649.091 9  22321572.394
  21798046.370     3195312.618 7   2454116.145 9  21798048.433
  22150592.761    -4454839.765 6  -3403863.789 9  22150594.683
 94  2 17 17 24 29.9990000  0  5 14 15 22 25 29
  20616803.659    -4946790.168 7  -3771352.197 9  20616805.979
  22230456.089     3830657.026 6   2940607.003 9  22230459.546
  22304435.690    -6468525.958 6  -4872808.725 9  22304439.054
  21809433.120     3255150.582 7   2500743.049 9  21809434.948
  22138156.362    -4520192.404 6  -3454787.898 9  22138158.519
 94  2 17 17 24 59.9990000  0  5 14 15 22 25 29
  20604653.933    -5010637.519 7  -3821103.379 9  20604656.394
  22243893.323     3901269.461 6   2995629.618 9  22243897.425
  22287367.378    -6558219.046 6  -4942699.395 9  22287370.729
  21820882.659     3315318.134 7   2547626.769 9  21820884.780
  22125750.667    -4585385.692 6  -3505587.848 9  22125752.765
 94  2 17 17 25 29.9990000  0  5 14 15 22 25 29
  20592589.245    -5074036.942 7  -3870505.520 9  20592591.612
  22257396.237     3972229.403 6   3050923.031 9  22257399.952
  22270365.183    -6647568.254 6  -5012322.118 9  22270368.546
  21832392.925     3375806.642 7   2594760.594 9  21832394.858
  22113372.144    -4650434.041 6  -3556274.855 9  22113373.948
 94  2 17 17 25 59.9990000  0  5 14 15 22 25 29
  20580606.698    -5137005.790 7  -3919572.157 9  20580608.913
  22270963.675     4043528.191 6   3106480.479 9  22270967.882
  22253426.933    -6736576.196 6  -5081678.917 9  22253430.331
  21843964.362     3436610.384 7   2642140.067 9  21843966.015
  22101021.456    -4715338.618 6  -3606849.823 9  22101023.472
 94  2 17 17 26 29.9990000  0  5 14 15 22 25 29
  20568705.940    -5199545.027 7  -3968304.020 9  20568708.226
  22284597.237     4115168.586 6   3162304.119 9  22284601.327
  22236559.542    -6825216.906 6  -5150749.565 9  22236562.858
  21855596.542     3497740.470 7   2689773.842 9  21855598.499
  22088697.862    -4780101.561 6  -3657314.436 9  22088699.937
 94  2 17 17 26 59.9990000  0  5 14 15 22 25 29
  20556886.190    -5261658.225 7  -4016703.911 9  20556888.651
  22298295.644     4187154.300 6   3218396.820 9  22298299.757
  22219765.409    -6913468.350 6  -5219516.900 9  22219768.761
  21867289.823     3559186.192 7   2737653.570 9  21867291.464
  22076402.651    -4844713.406 6  -3707661.323 9  22076404.843
 94  2 17 17 27 29.9990000  0  5 14 15 22 25 29
  20545146.526    -5323350.342 7  -4064775.687 9  20545148.976
  22312059.628     4259484.605 6   3274758.039 9  22312063.612
  22203046.604    -7001325.829 6  -5287977.243 9  22203049.909
  21879039.581     3620932.714 7   2785767.702 9  21879041.304
  22064137.315    -4909164.914 6  -3757883.258 9  22064139.671
 94  2 17 17 27 59.9990000  0  5 14 15 22 25 29
  20533489.792    -5384606.675 7  -4112507.893 9  20533492.276
  22325889.729     4332159.880 6   3331388.056 9  22325893.831
  22186403.151    -7088786.676 6  -5356128.531 9  22186406.702
  21890847.472     3682983.303 7   2834118.757 9  21890849.276
  22051904.464    -4973451.907 6  -3807977.007 9  22051906.808
 94  2 17 17 28 29.9990000  0  5 14 15 22 25 29
  20521919.378    -5445409.884 7  -4159887.003 9  20521921.897
  22339783.808     4405176.651 6   3388284.192 9  22339788.015
  22169835.315    -7175849.525 6  -5423969.681 9  22169839.312
  21902712.167     3745332.162 7   2882702.258 9  21902713.749
  22039701.675    -5037578.504 6  -3857945.769 9  22039703.995
 94  2 17 17 28 59.9990000  0  5 14 15 22 25 29
  20510440.823    -5505729.941 7  -4206889.633 9  20510443.202
  22353744.659     4478536.782 6   3445447.871 9  22353748.737
  22153343.769    -7262515.482 6  -5491501.574 9  22153347.190
  21914635.628     3807990.124 7   2931526.620 9  21914637.397
  22027530.729    -5101536.579 6  -3907783.211 9  22027532.780
 94  2 17 17 29 29.9990000  0  5 14 15 22 25 29
  20499054.503    -5565565.286 7  -4253514.572 9  20499057.093
  22367768.542     4552233.846 6   3502874.098 9  22367772.280
  22136924.589    -7348799.379 6  -5558735.759 9  22136928.022
  21926618.620     3870960.424 7   2980594.372 9  21926620.437
  22015388.714    -5165343.408 6  -3957502.804 9  22015390.976
 94  2 17 17 29 59.9990000  0  5 14 15 22 25 29
  20487757.698    -5624931.124 7  -4299773.671 9  20487760.147
  22381854.534     4626256.689 6   3560554.169 9  22381858.753
  22120579.229    -7434695.991 7  -5625668.169 9  22120582.312
  21938661.042     3934245.534 7   3029907.432 9  21938663.069
  22003273.636    -5229008.046 6  -4007111.595 9  22003275.886
 94  2 17 17 30 29.9990000  0  5 14 15 22 25 29
  20476550.753    -5683821.990 7  -4345662.654 9  20476553.448
  22396002.089     4700606.618 6   3618489.104 9  22396006.812
  22104310.128    -7520189.718 7  -5692286.646 9  22104313.491
  21950764.198     3997847.539 7   3079467.424 9  21950766.425
  21991187.972    -5292521.043 6  -4056602.232 9  21991190.104
 94  2 17 17 30 59.9990000  0  5 14 15 22 25 29
  20465434.573    -5742239.505 7  -4391182.787 9  20465437.233
  22410212.761     4775283.856 6   3676679.090 9  22410217.202
  22088119.167    -7605271.671 7  -5758584.268 9  22088122.776
  21962926.878     4061763.125 7   3129271.757 9  21962929.046
  21979129.136    -5355888.443 6  -4105979.408 9  21979131.280
 94  2 17 17 31 29.9990000  0  5 14 15 22 25 29
  20454402.854    -5800210.373 7  -4436354.893 9  20454405.468
  22424486.222     4850289.409 6   3735124.922 9  22424490.968
  22072009.183    -7689931.838 7  -5824553.230 9  22072012.815
  21975149.159     4125993.569 7   3179321.440 9  21975151.151
  21967097.323    -5419113.299 6  -4155245.521 9  21967099.667
 94  2 17 17 31 59.9990000  0  5 14 15 22 25 29
  20443458.558    -5857722.130 7  -4481169.257 9  20443461.206
  22438822.190     4925623.369 6   3793826.628 9  22438825.964
  22055981.534    -7774159.499 7  -5890185.178 9  22055984.593
  21987431.503     4190535.433 7   3229613.774 9  21987434.034
  21955097.144    -5482175.676 6  -4204385.032 9  21955099.323
 94  2 17 17 32 29.9990000  0  5 14 15 22 25 29
  20432604.456    -5914764.155 7  -4525617.590 9  20432607.081
  22453218.003     5001273.217 6   3852774.502 9  22453221.577
  22040031.854    -7857974.691 7  -5955495.714 9  22040034.925
  21999767.925     4255362.454 7   3280128.316 9  21999769.952
  21943124.698    -5545093.563 6  -4253411.952 9  21943126.960
 94  2 17 17 32 59.9990000  0  5 14 15 22 25 29
  20421839.909    -5971332.033 7  -4569696.452 9  20421842.546
  22467673.847     5077241.832 6   3911970.745 9  22467678.101
  22024163.222    -7941366.802 7  -6020476.584 9  22024166.140
  22012158.761     4320477.524 7   3330867.325 9  22012160.894
  21931180.894    -5607857.383 6  -4302318.813 9  21931182.979
 94  2 17 17 33 29.9990000  0  5 14 15 22 25 29
  20411168.058    -6027412.363 7  -4613395.418 9  20411170.413
  22482191.081     5153529.936 6   3971415.959 9  22482195.265
  22008376.370    -8024324.928 7  -6085119.286 9  22008379.851
  22024606.558     4385889.090 7   3381837.351 9  22024608.515
  21919271.550    -5670443.531 6  -4351087.231 9  21919273.483
 94  2 17 17 33 59.9990000  0  5 14 15 22 25 29
  20400594.183    -6082978.402 7  -4656693.631 9  20400596.608
  22496769.409     5230136.185 6   4031109.076 9  22496773.019
  21992675.628    -8106834.835 7  -6149412.726 9  21992678.862
  22037108.940     4451591.932 7   3433034.352 9  22037110.851
  21907397.073    -5732845.007 7  -4399711.749 9  21907398.925
 94  2 17 17 34 29.9990000  0  5 14 15 22 25 29
  20390117.222    -6138034.322 7  -4699594.358 9  20390119.647
  22511407.058     5307058.308 6   4091048.310 9  22511411.042
  21977061.589    -8188887.686 7  -6213350.016 9  21977064.812
  22049669.370     4517595.869 7   3484465.965 9  22049671.292
  21895556.425    -5795064.454 6  -4448194.435 9  21895558.194
 94  2 17 17 34 59.9990000  0  5 14 15 22 25 29
  20379739.183    -6192572.020 7  -4742091.274 9  20379741.632
  22526105.808     5384300.309 6   4151236.812 9  22526109.651
  21961536.511    -8270472.646 7  -6276922.716 9  21961539.733
  22062290.964     4583923.191 7   3536149.562 9  22062293.097
  21883754.183    -5857089.076 7  -4496525.300 9  21883756.116
 94  2 17 17 35 29.9990000  0  5 14 15 22 25 29
  20369457.839    -6246599.857 7  -4784190.895 9  20369460.265
  22540863.464     5461852.518 6   4211667.037 9  22540867.390
  21946098.862    -8351598.353 7  -6340137.557 9  21946102.085
  22074972.448     4650565.425 7   3588078.542 9  22074974.147
  21871984.042    -5918940.163 6  -4544720.942 9  21871985.823
 94  2 17 17 35 59.9990000  0  5 14 15 22 25 29
  20359271.003    -6300131.858 7  -4825904.148 9  20359273.487
  22555678.526     5539705.443 6   4272331.593 9  22555682.546
  21930746.347    -8432275.251 7  -6403002.673 9  21930749.757
  22087711.042     4717507.317 7   3640241.033 9  22087712.870
  21860244.237    -5980632.874 6  -4592793.171 9  21860246.358
 94  2 17 17 36 29.9990000  0  5 14 15 22 25 29
  20349180.964    -6353156.770 7  -4867222.265 9  20349183.413
  22570551.550     5617864.936 6   4333235.017 9  22570555.394
  21915481.245    -8512493.819 7  -6465510.642 9  21915484.550
  22100506.862     4784749.313 7   3692637.351 9  22100509.147
  21848536.753    -6042156.249 6  -4640733.455 9  21848538.640
 94  2 17 17 36 59.9990000  0  5 14 15 22 25 29
  20339186.901    -6405675.467 7  -4908145.930 9  20339189.397
  22585482.636     5696327.747 6   4394374.791 9  22585486.433
  21900306.198    -8592238.333 7  -6527649.216 9  21900309.749
  22113357.089     4852276.754 7   3745256.110 9  22113358.753
  21836861.745    -6103507.878 6  -4688539.906 9  21836863.995
 94  2 17 17 37 29.9990000  0  5 14 15 22 25 29
  20329286.667    -6457701.897 7  -4948686.005 9  20329289.034
  22600470.690     5775089.980 6   4455747.882 9  22600474.792
  21885221.683    -8671507.254 7  -6589417.191 9  21885225.515
  22126258.073     4920071.868 7   3798083.425 9  22126260.230
  21825221.315    -6164679.612 6  -4736206.173 9  21825223.202
 94  2 17 17 37 59.9990000  0  5 14 15 22 25 29
  20319482.128    -6509225.730 7  -4988834.448 9  20319484.519
  22615515.511     5854151.151 6   4517353.909 9  22615519.612
  21870227.894    -8750300.506 7  -6650814.514 9  21870231.620
  22139210.456     4988137.843 7   3851121.803 9  22139212.601
  21813619.479    -6225647.454 6  -4783713.557 9  21813621.589
 94  2 17 17 38 29.9990000  0  5 14 15 22 25 29
  20309772.448    -6560249.481 7  -5028593.215 9  20309774.757
  22630615.800     5933504.861 6   4579187.893 9  22630620.065
  21855325.167    -8828614.441 7  -6711838.326 9  21855328.870
  22152215.800     5056482.746 7   3904377.520 9  22152217.886
  21802054.831    -6286420.795 6  -4831069.391 9  21802056.694
 94  2 17 17 38 59.9990000  0  5 14 15 22 25 29
  20300156.847    -6610782.075 7  -5067969.256 9  20300159.272
  22645771.753     6013146.218 6   4641246.011 9  22645776.171
  21840512.206    -8906457.276 7  -6772495.040 9  21840515.792
  22165277.183     5125118.449 7   3957859.848 9  22165279.104
  21790524.073    -6347013.157 6  -4878284.194 9  21790526.159
 94  2 17 17 39 29.9990000  0  5 14 15 22 25 29
  20290635.112    -6660818.372 7  -5106958.575 9  20290637.503
  22660980.581     6093069.672 6   4703523.947 9  22660984.319
  21825785.128    -8983847.273 7  -6832798.888 9  21825788.866
  22178394.636     5194049.986 7   4011572.690 9  22178396.675
  21779026.737    -6407431.828 6  -4925363.660 9  21779028.718
 94  2 17 17 39 59.9990000  0  5 14 15 22 25 29
  20281214.386    -6710323.257 7  -5145533.809 9  20281216.847
  22676245.261     6173285.775 6   4766029.914 9  22676249.632
  21811151.409    -9060746.269 7  -6892720.115 9  21811155.358
  22191572.206     5263299.377 7   4065533.210 9  22191573.987
  21767561.761    -6467679.905 6  -4972310.196 9  21767563.718
 94  2 17 17 40 29.9990000  0  5 14 15 22 25 29
  20271896.331    -6759290.403 7  -5183690.026 9  20271898.909
  22691565.433     6253793.576 6   4828763.179 9  22691569.405
  21796614.722    -9137138.192 7  -6952246.213 9  21796618.800
  22204810.214     5332864.323 7   4119739.615 9  22204811.937
  21756126.964    -6527769.168 6  -5019132.984 9  21756129.167
 94  2 17 17 40 59.9990000  0  5 14 15 22 25 29
  20262679.800    -6807724.254 8  -5221430.686 9  20262682.202
  22706938.581     6334581.401 6   4891714.654 9  22706943.233
  21782171.425    -9213037.964 7  -7011388.807 9  21782175.034
  22218101.050     5402707.783 7   4174163.030 9  22218103.019
  21744724.003    -6587693.094 6  -5065826.934 9  21744726.265
 94  2 17 17 41 29.9990000  0  5 14 15 22 25 29
  20253566.104    -6855615.981 7  -5258748.911 9  20253568.624
  22722366.128     6415650.562 6   4954885.337 9  22722370.124
  21767824.612    -9288430.378 7  -7070136.046 9  21767828.151
  22231443.581     5472823.326 7   4228798.472 9  22231445.456
  21733354.183    -6647442.923 6  -5112385.230 9  21733356.421
 94  2 17 17 41 59.9990000  0  5 14 15 22 25 29
  20244556.284    -6902963.563 8  -5295643.127 9  20244558.780
  22737847.003     6497002.198 6   5018276.150 9  22737850.437
  21753576.237    -9363306.304 7  -7128480.815 9  21753579.788
  22244837.206     5543206.991 7   4283642.840 9  22244838.835
  21722018.081    -6707014.957 7  -5158804.985 9  21722020.190
 94  2 17 17 42 29.9990000  0  5 14 15 22 25 29
  20235647.253    -6949781.779 8  -5332124.857 9  20235649.550
  22753380.370     6578630.577 6   5081882.583 9  22753384.179
  21739421.386    -9437689.846 7  -7186441.919 9  21739424.784
  22258279.347     5613846.814 7   4338686.808 9  22258281.433
  21710716.581    -6766403.065 7  -5205081.432 9  21710718.644
 94  2 17 17 42 59.9990000  0  5 14 15 22 25 29
  20226839.675    -6996065.625 8  -5368190.186 9  20226842.019
  22768965.675     6660532.372 6   5145702.061 9  22768969.495
  21725360.581    -9511579.901 7  -7244018.470 9  21725363.886
  22271770.683     5684744.067 7   4393931.367 9  22271772.382
  21699450.323    -6825607.144 7  -5251214.474 9  21699452.608
 94  2 17 17 43 29.9990000  0  5 14 15 22 25 29
  20218135.394    -7041806.874 7  -5403832.717 9  20218137.808
  22784600.847     6742697.922 6   5209727.070 9  22784604.901
  21711394.229    -9584973.899 7  -7301208.488 9  21711397.663
  22285313.550     5755911.515 7   4449386.476 9  22285315.378
  21688216.800    -6884641.924 7  -5297215.593 9  21688219.144
 94  2 17 17 43 59.9990000  0  5 14 15 22 25 29
  20209537.597    -7086987.625 7  -5439038.494 9  20209539.976
  22800288.597     6825134.781 6   5273963.498 9  22800292.944
  21697522.675    -9657868.093 7  -7358009.034 9  21697525.897
  22298909.526     5827359.727 7   4505060.351 9  22298911.729
  21677019.620    -6943482.750 7  -5343065.580 9  21677021.800
 94  2 17 17 44 29.9990000  0  5 14 15 22 25 29
  20201046.901    -7131605.705 7  -5473805.829 9  20201049.351
  22816025.558     6907832.614 6   5338403.283 9  22816030.140
  21683746.081    -9730264.551 7  -7414421.738 9  21683749.491
  22312558.862     5899087.672 7   4560952.194 9  22312561.147
  21665858.940    -7002130.406 7  -5388765.046 9  21665861.097
 94  2 17 17 44 59.9990000  0  5 14 15 22 25 29
  20192664.722    -7175656.031 7  -5508130.757 9  20192667.042
  22831812.526     6990792.697 6   5403047.420 9  22831817.202
  21670067.831    -9802142.461 7  -7470430.381 9  21670070.995
  22326262.073     5971096.579 7   4617062.979 9  22326264.522
  21654736.019    -7060586.201 7  -5434315.018 9  21654738.093
 94  2 17 17 45 29.9990000  0  5 14 15 22 25 29
  20184388.315    -7219147.703 7  -5542020.362 9  20184390.683
  22847648.948     7074009.918 6   5467891.919 9  22847653.167
  21656489.136    -9873501.091 7  -7526034.404 9  21656492.054
  22340017.495     6043382.442 7   4673389.561 9  22340019.991
  21643649.964    -7118842.729 7  -5479709.712 9  21643652.015
 94  2 17 17 45 59.9990000  0  5 14 15 22 25 29
  20176215.878    -7262094.229 7  -5575485.185 9  20176218.315
  22863533.003     7157481.974 6   5532934.995 9  22863537.187
  21643010.776    -9944331.343 7  -7581226.705 9  21643013.800
  22353823.815     6115934.452 7   4729923.524 9  22353826.112
  21632602.245    -7176897.788 7  -5524947.418 9  21632604.483
 94  2 17 17 46 29.9990000  0  5 14 15 22 25 29
  20168146.354    -7304500.142 7  -5608528.747 9  20168148.886
  22879464.987     7241207.150 6   5598175.298 9  22879469.065
  21629635.175   -10014619.009 7  -7635996.221 9  21629638.034
  22367680.331     6188749.315 7   4786662.331 9  22367682.159
  21621591.464    -7234759.544 7  -5570034.501 9  21621593.397
 94  2 17 17 46 59.9990000  0  6 18 14 15 22 25 29
  23928377.729      -50412.01914
  20160179.479    -7346365.790 7  -5641151.324 9  20160181.999
  22895444.792     7325181.090 6   5663609.447 9  22895449.257
  21616364.558   -10084354.940 7  -7690335.820 9  21616367.288
  22381584.323     6261818.270 7   4843599.116 9  22381586.866
  21610615.823    -7292435.667 7  -5614976.925 9  21610617.722
 94  2 17 17 47 29.9990000  0  6 18 14 15 22 25 29
  23911463.683     -139305.276 5
  20152316.956    -7387684.224 7  -5673347.492 9  20152319.522
  22911470.886     7409396.855 6   5729232.046 9  22911474.788
  21603197.229   -10153548.993 7  -7744253.178 9  21603199.679
  22395536.909     6335135.622 7   4900729.468 9  22395539.007
  21599676.034    -7349927.338 7  -5659775.626 9  21599677.909
 94  2 17 17 47 59.9990000  0  6 18 14 15 22 25 29
  23894566.003     -228102.977 5    -34585.52619  23894569.155
  20144561.862    -7428437.265 7  -5705103.095 9  20144564.452
  22927543.300     7493859.895 6   5795047.318 9  22927547.507
  21590134.761   -10222191.651 7  -7797740.891 9  21590137.503
  22409537.034     6408708.565 7   4958058.993 9  22409539.155
  21588768.323    -7407245.706 7  -5704439.280 9  21588770.386
 94  2 17 17 48 29.9990000  0  6 18 14 15 22 25 29
  23877683.550     -316819.870 5   -103715.582 8  23877686.690
  20136916.839    -7468612.454 7  -5736408.426 9  20136919.370
  22943662.026     7578562.271 6   5861049.074 9  22943666.690
  21577176.714   -10290288.587 7  -7850803.362 9  21577179.409
  22423585.620     6482534.970 7   5015585.992 9  22423588.116
  21577891.964    -7464402.212 7  -5748976.805 9  21577894.132
 94  2 17 17 48 59.9990000  0  6 18 14 15 22 25 29
  23860814.972     -405461.853 5   -172787.260 8  23860817.819
  20129382.917    -7508204.232 7  -5767259.144 9  20129385.331
  22959825.370     7663499.298 6   5927233.689 9  22959829.155
  21564320.612   -10357848.334 7  -7903447.259 9  21564323.261
  22437680.878     6556604.880 7   5073302.739 9  22437682.999
  21567046.386    -7521396.157 7  -5793387.673 9  21567048.226
 94  2 17 17 49 29.9990000  0  6 18 14 15 22 25 29
  23843964.690     -494009.798 4   -241785.666 9  23843971.253
  20121960.362    -7547208.299 7  -5797651.905 9  20121963.128
  22976031.675     7748669.151 5   5993599.729 9  22976036.784
  21551565.026   -10424877.290 7  -7955677.552 9  21551567.675
  22451822.753     6630922.181 6   5131212.261 9  22451825.073
  21556233.886    -7578215.064 7  -5837662.143 9  21556235.866
 94  2 17 17 49 59.9990000  0  6 18 14 15 22 25 29
  23827135.714     -582450.332 5   -310700.316 9  23827140.835
  20114649.300    -7585627.838 7  -5827589.197 9  20114651.972
  22992283.167     7834068.500 6   6060144.576 9  22992287.901
  21538912.097   -10491370.475 7  -8007490.366 9  21538914.616
  22466012.784     6705488.942 7   5189316.169 9  22466014.741
  21545456.597    -7634849.547 7  -5881792.895 9  21545458.472
 94  2 17 17 50 29.9990000  0  6 18 14 15 22 25 29
  23810328.761     -670772.306 5   -379522.619 9  23810333.390
  20107447.831    -7623472.635 7  -5857078.633 9  20107450.456
  23008577.183     7919694.372 6   6126865.962 9  23008581.530
  21526361.972   -10557321.196 7  -8058880.492 9  21526364.573
  22480248.628     6780298.361 6   5247609.166 9  22480250.550
  21534719.472    -7691275.357 7  -5925761.055 9  21534721.546
 94  2 17 17 50 59.9990000  0  6 18 14 15 22 25 29
  23793547.542     -758952.981 5   -448234.768 8  23793551.210
  20100354.706    -7660747.000 7  -5886123.571 9  20100357.378
  23024915.230     8005549.866 6   6193766.245 9  23024920.187
  21513917.354   -10622718.712 7  -8109839.546 9  21513920.050
  22494530.753     6855353.330 6   5306093.497 9  22494532.897
  21524023.948    -7747478.520 7  -5969555.714 9  21524025.940
 94  2 17 17 51 29.9990000  0  6 18 14 15 22 25 29
  23776794.495     -846994.031 5   -516838.145 9  23776799.335
  20093368.261    -7697461.900 7  -5914732.571 9  20093370.745
  23041294.933     8091625.570 6   6260838.127 9  23041299.292
  21501580.019   -10687550.910 7  -8160358.103 9  21501582.597
  22508861.925     6930661.507 7   5364775.141 9  22508863.929
  21513369.800    -7803466.495 7  -6013182.704 9  21513371.757
 94  2 17 17 51 59.9990000  0  6 18 14 15 22 25 29
  23760065.261     -934913.931 5   -585347.085 9  23760069.913
  20086486.448    -7733625.451 7  -5942911.948 9  20086489.179
  23057715.823     8177920.163 5   6328080.565 9  23057721.062
  21489352.315   -10751808.921 7  -8210429.245 9  21489354.987
  22523239.354     7006215.384 6   5423648.226 9  22523241.687
  21502756.956    -7859239.198 7  -6056641.946 9  21502758.878
 94  2 17 17 52 29.9990000  0  6 18 14 15 22 25 29
  23743353.667    -1022728.796 5   -653774.187 9  23743358.190
  20079711.003    -7769231.564 7  -5970656.959 9  20079713.534
  23074178.183     8264428.356 5   6395489.439 9  23074182.601
  21477233.214   -10815493.252 7  -8260053.367 9  21477235.956
  22537662.097     7082006.451 7   5482706.121 9  22537664.159
  21492183.604    -7914803.021 7  -6099938.420 9  21492185.679
 94  2 17 17 52 59.9990000  0  6 18 14 15 22 25 29
  23726659.644    -1110453.656 5   -722131.111 8  23726664.366
  20073044.214    -7804265.637 7  -5997956.229 9  20073046.698
  23090679.597     8351146.609 5   6463062.015 9  23090685.339
  21465221.878   -10878613.772 7  -8309238.155 9  21465224.854
  22552130.269     7158037.390 7   5541950.935 9  22552132.495
  21481648.698    -7970163.082 7  -6143076.121 9  21481650.597
 94  2 17 17 53 29.9990000  0  6 18 14 15 22 25 29
  23709981.831    -1198097.430 5   -790424.921 9  23709986.823
  20066487.808    -7838718.956 7  -6024802.960 9  20066490.222
  23107222.050     8438073.018 5   6530796.774 9  23107227.288
  21453317.386   -10941172.944 7  -8357985.542 9  21453320.386
  22566644.440     7234310.477 6   5601384.425 9  22566646.819
  21471152.550    -8025321.552 7  -6186056.750 9  21471154.296
 94  2 17 17 53 59.9990000  0  6 18 14 15 22 25 29
  23693321.214    -1285648.709 5   -858646.649 9  23693326.077
  20060044.995    -7872576.186 7  -6051185.212 9  20060047.362
  23123801.597     8525202.968 5   6598690.148 9  23123806.085
  21441516.612   -11003184.803 7  -8406306.453 9  21441519.730
  22581202.808     7310813.506 7   5660997.085 9  22581204.940
  21460693.354    -8080282.318 7  -6228883.303 9  21460695.171
 94  2 17 17 54 29.9990000  0  6 18 14 15 22 25 29
  23676685.417    -1373067.927 5   -926765.469 9  23676691.886
  20053721.761    -7905805.106 7  -6077077.870 9  20053724.151
  23140423.628     8612548.146 5   6666751.228 9  23140428.444
  21429824.511   -11064626.055 7  -8454182.735 9  21429827.616
  22595807.519     7387560.738 7   5720800.053 9  22595809.933
  21450273.394    -8135042.007 7  -6271553.178 9  21450275.362
 94  2 17 17 54 59.9990000  0  6 18 14 15 22 25 29
  23660076.105    -1460353.008 5   -994779.786 9  23660080.722
  20047515.800    -7938418.158 7  -6102490.634 9  20047518.272
  23157083.409     8700097.990 5   6734971.776 9  23157087.897
  21418240.214   -11125503.281 7  -8501619.517 9  21418243.284
  22610457.737     7464548.517 6   5780790.455 9  22610460.315
  21439887.792    -8189617.703 7  -6314079.685 9  21439889.690
 94  2 17 17 55 29.9990000  0  6 18 14 15 22 25 29
  23643492.823    -1547496.110 5  -1062683.522 9  23643496.726
  20041424.917    -7970426.122 8  -6127431.905 9  20041427.226
  23173782.612     8787847.523 5   6803347.940 9  23173787.933
  21406766.815   -11185797.429 7  -8548601.961 9  21406769.862
  22625153.456     7541776.365 6   5840967.908 9  22625156.046
  21429536.972    -8244012.398 7  -6356465.142 9  21429538.788
 94  2 17 17 55 59.9990000  0  6 18 14 15 22 25 29
  23626935.409    -1634503.139 5  -1130481.173 9  23626939.663
  20035448.190    -8001834.416 8  -6151905.896 9  20035450.440
  23190516.972     8875792.851 5   6871876.678 9  23190521.964
  21395405.073   -11245503.150 7  -8595125.881 9  21395407.979
  22639893.120     7619235.695 6   5901325.737 9  22639895.979
  21419222.097    -8298218.175 7  -6398703.400 9  21419223.866
 94  2 17 17 56 29.9990000  0  6 18 14 15 22 25 29
  23610402.534    -1721388.591 5  -1198184.122 8  23610407.526
  20029584.081    -8032649.757 8  -6175917.855 9  20029586.296
  23207289.362     8963934.504 5   6940558.373 9  23207295.866
  21384155.839   -11304616.509 7  -8641188.226 9  21384158.886
  22654677.964     7696926.956 6   5961864.281 9  22654680.577
  21408944.729    -8352225.945 7  -6440787.362 9  21408946.476
 94  2 17 17 56 59.9990000  0  6 18 14 15 22 25 29
  23593888.925    -1808168.276 5  -1265804.650 9  23593893.249
  20023829.894    -8062889.176 8  -6199481.044 9  20023831.851
  23224097.065     9052258.614 5   7009382.235 9  23224102.995
  21373016.651   -11363154.568 7  -8686802.288 9  21373019.405
  22669504.120     7774840.498 6   6022576.040 9  22669507.073
  21398704.112    -8406038.360 7  -6482719.099 9  21398705.835
 94  2 17 17 57 29.9990000  0  6 18 14 15 22 25 29
  23577397.003    -1894833.344 5  -1333335.807 9  23577400.858
  20018185.644    -8092549.607 8  -6222593.071 9  20018187.718
  23240940.565     9140766.099 5   7078349.010 9  23240945.874
  21361988.909   -11421104.908 7  -8731958.374 9  21361991.956
  22684370.440     7852963.796 6   6083451.240 9  22684373.019
  21388502.925    -8459647.988 7  -6524492.807 9  21388504.729
 94  2 17 17 57 59.9990000  0  6 18 14 15 22 25 29
  23560930.917    -1981361.415 5  -1400760.268 9  23560935.136
  20012654.745    -8121614.975 8  -6245241.413 9  20012656.913
  23257819.019     9229462.588 5   7147463.050 9  23257825.054
  21351072.003   -11478471.328 7  -8776659.463 9  21351075.050
  22699274.886     7931288.236 6   6144483.188 9  22699277.405
  21378339.714    -8513054.532 7  -6566108.276 9  21378341.530
 94  2 17 17 58 29.9990000  0  6 18 14 15 22 25 29
  23544490.526    -2067753.924 5  -1468079.081 9  23544492.636
  20007236.597    -8150086.880 8  -6267427.322 9  20007238.636
  23274731.722     9318336.880 5   7216715.636 9  23274737.147
  21340266.722   -11535252.815 7  -8820904.753 9  21340269.593
  22714217.909     8009810.638 6   6205669.376 9  22714220.194
  21368212.433    -8566274.996 7  -6607578.747 9  21368214.226
 94  2 17 17 58 59.9990000  0  6 18 14 15 22 25 29
  23528076.901    -2154009.178 5  -1535290.911 9  23528081.882
  20001930.948    -8177970.220 8  -6289154.602 9  20001932.905
  23291676.323     9407381.457 5   7286100.931 9  23291681.140
  21329575.315   -11591438.498 7  -8864685.777 9  21329578.245
  22729197.972     8088527.530 6   6267007.126 9  22729200.362
  21358121.308    -8619302.869 7  -6648899.146 9  21358123.077
 94  2 17 17 59 29.9990000  0  6 18 14 15 22 25 29
  23511688.901    -2240131.962 5  -1602399.540 9  23511694.374
  19996739.401    -8205250.633 8  -6310412.072 9  19996741.511
  23308653.620     9496602.270 5   7355623.523 9  23308658.636
  21318999.901   -11647011.812 7  -8907989.626 9  21319002.913
  22744215.925     8167451.045 6   6328505.879 9  22744218.655
  21348070.511    -8672121.094 7  -6690056.182 9  21348072.210
 94  2 17 17 59 59.9990000  0  6 18 14 15 22 25 29
  23495319.151    -2326152.263 5  -1669428.290 9  23495323.687
  19991663.581    -8231924.047 8  -6331196.553 9  19991665.515
  23325664.136     9585992.934 5   7425278.490 9  23325670.218
  21308539.198   -11701983.237 7  -8950824.474 9  21308542.187
  22759276.956     8246594.988 6   6390176.414 9  22759278.995
  21338059.714    -8724729.103 7  -6731049.407 9  21338061.472
 94  2 17 18  0 29.9990000  0  6 18 14 15 22 25 29
  23478965.776    -2412093.777 5  -1736395.648 9  23478969.562
  19986706.370    -8257974.678 8  -6351495.750 9  19986708.515
  23342707.167     9675552.907 5   7495065.392 9  23342712.534
  21298193.542   -11756350.327 7  -8993188.406 9  21298196.554
  22774382.222     8325975.172 6   6452031.022 9  22774384.741
  21328089.901    -8777120.840 7  -6771874.109 9  21328091.601
 94  2 17 18  0 59.9990000  0  6 18 14 15 22 25 29
  23462628.183    -2497948.461 5  -1803295.328 9  23462632.343
  19981869.058    -8283394.870 8  -6371303.690 9  19981871.015
  23359782.144     9765284.279 5   7564985.841 9  23359787.147
  21287963.026   -11810112.109 7  -9035080.668 9  21287965.757
  22789533.097     8405588.765 6   6514067.508 9  22789535.218
  21318162.479    -8829288.794 7  -6812524.429 9  21318164.108
 94  2 17 18  1 29.9990000  0  6 18 14 15 22 25 29
  23446310.355    -2583698.759 5  -1870113.643 9  23446315.206
  19977155.190    -8308166.107 8  -6390605.950 9  19977157.323
  23376893.401     9855201.650 5   7635051.211 9  23376899.108
  21277850.128   -11863255.495 7  -9076491.071 9  21277852.917
  22804729.972     8485450.518 6   6576297.364 9  22804732.104
  21308276.409    -8881239.476 7  -6853005.455 9  21308278.026
 94  2 17 18  1 59.9990000  0  6 18 14 15 22 25 29
  23430009.620    -2669356.051 5  -1936859.517 9  23430013.499
  19972559.776    -8332315.136 8  -6409423.379 9  19972561.780
  23394033.933     9945272.129 5   7705235.897 9  23394038.819
  21267850.151   -11915805.221 7  -9117438.872 9  21267853.222
  22819966.565     8565519.087 6   6638688.382 9  22819968.663
  21298425.144    -8933008.022 7  -6893344.555 9  21298426.655
 94  2 17 18  2 29.9990000  0  6 18 14 15 22 25 29
  23413733.987    -2754887.118 5  -2003507.035 9  23413738.288
  19968083.159    -8355841.276 8  -6427755.442 9  19968085.104
  23411203.542    10035498.417 5   7775541.971 9  23411208.698
  21257967.526   -11967740.033 7  -9157907.530 9  21257970.409
  22835241.253     8645787.263 6   6701234.935 9  22835243.819
  21288611.800    -8984579.201 7  -6933529.873 9  21288613.300
 94  2 17 18  2 59.9990000  0  6 18 14 15 22 25 29
  23397483.683    -2840282.477 5  -2070048.761 9  23397487.421
  19963718.714    -8378776.456 8  -6445627.010 9  19963720.565
  23428401.784    10125874.415 5   7845964.724 9  23428406.542
  21248204.050   -12019046.525 7  -9197886.588 9  21248206.745
  22850550.995     8726245.272 6   6763929.406 9  22850554.019
  21278835.964    -9035949.405 7  -6973558.585 9  21278837.733
 94  2 17 18  3 29.9990000  0  6 18 14 15 22 25 29
  23381259.214    -2925538.379 5  -2136481.851 9  23381263.222
  19959466.276    -8401123.145 8  -6463040.017 9  19959468.245
  23445628.308    10216400.054 5   7916504.056 9  23445633.452
  21238560.784   -12069722.747 7  -9237374.523 9  21238563.327
  22865899.229     8806900.990 6   6826777.934 9  22865902.065
  21269100.737    -9087108.600 7  -7013422.874 9  21269102.519
 94  2 17 18  3 59.9990000  0  6 18 14 15 22 25 29
  23365062.589    -3010657.637 5  -2202808.457 9  23365066.667
  19955325.612    -8422880.573 8  -6479993.859 9  19955327.499
  23462881.104    10307064.844 5   7987151.830 9  23462886.132
  21229035.909   -12119777.003 7  -9276377.819 9  21229038.276
  22881283.370     8887741.279 6   6889770.307 9  22881286.054
  21259407.894    -9138046.000 7  -7053114.333 9  21259409.616
 94  2 17 18  4 29.9990000  0  6 18 14 15 22 25 29
  23348890.558    -3095638.555 5  -2269027.287 9  23348894.050
  19951298.214    -8444046.726 8  -6496486.965 9  19951299.972
  23480160.464    10397871.793 5   8057910.398 9  23480165.210
  21219627.628   -12169218.396 7  -9314903.550 9  21219630.019
  22896702.964     8968773.665 6   6952912.354 9  22896705.659
  21249757.597    -9188758.266 7  -7092630.368 9  21249759.237
 94  2 17 18  4 59.9990000  0  6 18 14 15 22 25 29
  23332746.104    -3180476.897 5  -2335135.013 9  23332750.065
  19947384.659    -8464612.636 8  -6512512.349 9  19947386.499
  23497466.894    10488813.984 5   8128774.324 9  23497472.718
  21210333.925   -12218056.060 7  -9352958.853 9  21210336.479
  22912159.823     9049999.294 6   7016204.990 9  22912162.589
  21240146.894    -9239263.714 7  -7131985.247 9  21240148.569
 94  2 17 18  5 29.9990000  0  6 18 14 15 22 25 29
  23316630.956    -3265163.484 5  -2401124.482 9  23316635.304
  19943591.339    -8484546.428 8  -6528045.177 9  19943593.167
  23514798.456    10579893.176 5   8199744.999 9  23514805.112
  21201156.198   -12266286.079 7  -9390540.667 9  21201158.636
  22927653.987     9131419.444 6   7079649.222 9  22927656.366
  21230576.362    -9289557.153 7  -7171174.936 9  21230578.120
 94  2 17 18  5 59.9990000  0  6 18 14 15 22 25 29
  23300542.081    -3349707.770 5  -2467003.084 9  23300547.261
  19939919.558    -8503842.026 8  -6543080.708 9  19939921.526
  23532155.847    10671102.851 5   8270817.355 9  23532161.120
  21192095.315   -12313900.978 7  -9427643.165 9  21192097.835
  22943183.011     9213025.820 6   7143238.556 9  22943185.647
  21221045.198    -9339643.928 7  -7210203.585 9  21221046.991
 94  2 17 18  6 29.9990000  0  6 18 14 15 22 25 29
  23284481.229    -3434110.787 5  -2532771.603 9  23284486.937
  19936367.628    -8522506.527 8  -6557624.476 9  19936369.573
  23549536.940    10762438.703 5   8341988.023 9  23549542.038
  21183153.089   -12360893.518 7  -9464260.705 9  21183155.632
  22958750.729     9294833.314 6   7206984.593 9  22958753.624
  21211550.198    -9389538.518 7  -7249082.472 9  21211551.909
 94  2 17 18  6 59.9990000  0  6 18 14 15 22 25 29
  23268444.659    -3518378.585 5  -2598434.758 9  23268449.394
  19932937.925    -8540529.388 7  -6571668.264 9  19932940.069
  23566942.058    10853902.579 5   8413258.449 9  23566947.284
  21174334.761   -12407235.016 7  -9500370.943 9  21174337.163
  22974357.323     9376846.895 6   7270891.216 9  22974359.948
  21202095.589    -9439224.326 7  -7287798.671 9  21202097.452
 94  2 17 18  7 29.9990000  0  6 18 14 15 22 25 29
  23252429.144    -3602544.680 5  -2664018.655 9  23252433.339
  19929628.831    -8557918.870 8  -6585218.505 9  19929630.800
  23584369.612    10945487.538 5   8484623.238 9  23584374.511
  21165638.362   -12452933.193 7  -9535979.887 9  21165640.741
  22990000.831     9459054.022 6   7334948.672 9  22990003.315
  21192681.503    -9488695.247 7  -7326347.427 9  21192683.331
 94  2 17 18  7 59.9990000  0  6 18 14 15 22 25 29
  23236433.214    -3686607.493 5  -2729522.067 9  23236437.444
  19926440.128    -8574676.279 8  -6598276.224 9  19926442.226
  23601819.636    11037189.377 5   8556079.102 9  23601825.554
  21157063.456   -12497996.593 7  -9571094.199 9  21157065.765
  23005680.167     9541449.718 6   7399153.050 9  23005683.015
  21183306.776    -9537957.899 7  -7364733.902 9  21183308.757
 94  2 17 18  8 29.9990000  0  6 18 14 15 22 25 29
  23220456.862    -3770559.754 5  -2794939.321 9  23220460.589
  19923372.479    -8590796.664 8  -6610837.560 9  19923374.483
  23619293.136    11129006.268 5   8627624.607 9  23619299.206
  21148606.854   -12542434.298 7  -9605720.962 9  21148609.104
  23021392.730     9624021.090 6   7463494.304 9  23021395.378
  21173971.167    -9587017.668 7  -7402962.276 9  21173973.019
 94  2 17 18  8 59.9990000  0  6 18 14 15 22 25 29
  23204501.745    -3854405.391 5  -2860273.509 9  23204505.976
  19920427.183    -8606273.250 8  -6622897.240 9  19920429.304
  23636785.519    11220934.697 5   8699257.020 9  23636791.647
  21140269.425   -12586248.463 7  -9639861.845 9  21140271.897
  23037134.651     9706743.103 6   7527952.937 9  23037137.698
  21164674.690    -9635868.997 7  -7441028.243 9  21164676.659
 94  2 17 18  9 29.9990000  0  6 18 14 15 22 25 29
  23188569.081    -3938130.736 5  -2925513.985 9  23188572.585
  19917604.604    -8621107.092 8  -6634456.078 9  19917606.737
  23654300.222    11312972.782 5   8770974.882 9  23654306.046
  21132048.417   -12629451.611 7  -9673526.612 9  21132050.749
  23052904.675     9789615.243 6   7592528.527 9  23052907.851
  21155415.808    -9684526.551 7  -7478943.211 9  21155417.800
 94  2 17 18  9 59.9990000  0  6 18 14 15 22 25 29
  23172661.573    -4021727.593 5  -2990654.328 9  23172665.640
  19914903.222    -8635303.492 8  -6645518.204 9  19914905.319
  23671833.722    11405112.249 5   8842771.753 9  23671839.358
  21123943.784   -12672039.638 7  -9706712.068 9  21123946.151
  23068703.753     9872637.904 6   7657221.392 9  23068707.128
  21146191.979    -9732998.159 7  -7516713.281 9  21146193.772
 94  2 17 18 10 29.9990000  0  6 18 14 15 22 25 29
  23156777.433    -4105196.571 5  -3055695.048 9  23156781.675
  19912321.112    -8648872.313 8  -6656091.313 9  19912323.069
  23689386.933    11497355.178 5   8914649.246 9  23689393.132
  21115959.065   -12713999.378 7  -9739407.948 9  21115961.503
  23084533.847     9955824.965 6   7722042.387 9  23084536.647
  21137004.433    -9781279.414 7  -7554335.022 9  21137006.343
 94  2 17 18 10 59.9990000  0  6 18 14 15 22 25 29
  23140917.511    -4188541.893 5  -3120639.436 9  23140922.878
  19909856.534    -8661823.612 8  -6666183.233 9  19909858.737
  23706959.987    11589699.688 5   8986605.886 9  23706965.272
  21108094.831   -12755326.623 7  -9771610.976 9  21108097.421
  23100397.636    10039189.728 6   7787001.838 9  23100400.823
  21127855.558    -9829357.440 7  -7591798.400 9  21127857.456
 94  2 17 18 11 29.9990000  0  6 18 14 15 22 25 29
  23125079.675    -4271769.438 5  -3185492.037 9  23125084.351
  19907506.597    -8674172.901 8  -6675806.061 9  19907508.694
  23724549.675    11682132.047 5   9058630.996 9  23724555.054
  21100349.308   -12796029.090 7  -9803327.166 9  21100351.792
  23116293.980    10122724.471 6   7852093.742 9  23116297.226
  21118744.003    -9877236.855 7  -7629107.024 9  21118745.843
 94  2 17 18 11 59.9990000  0  6 18 14 15 22 25 29
  23109265.597    -4354872.072 5  -3250247.302 9  23109269.979
  19905272.229    -8685914.664 8  -6684955.490 9  19905274.046
  23742156.542    11774653.733 5   9130725.686 9  23742162.647
  21092724.854   -12836095.007 7  -9834547.340 9  21092727.292
  23132221.995    10206425.729 6   7917315.389 9  23132224.491
  21109674.722    -9924897.238 7  -7666244.976 9  21109676.386
 94  2 17 18 12 29.9990000  0  6 18 14 15 22 25 29
  23093476.308    -4437847.258 5  -3314903.248 9  23093480.374
  19903153.386    -8697048.067 8  -6693630.872 9  19903155.437
  23759779.839    11867264.684 5   9202889.946 9  23759785.253
  21085223.823   -12875514.286 7  -9865263.650 9  21085226.401
  23148179.854    10290286.137 6   7982661.077 9  23148182.866
  21100647.026    -9972337.879 7  -7703211.694 9  21100648.749
 94  2 17 18 12 59.9990000  0  6 18 14 15 22 25 29
  23077708.472    -4520708.136 5  -3379470.120 9  23077712.585
  19901152.378    -8707563.679 8  -6701824.864 9  19901154.358
  23777418.550    11959955.230 5   9275116.215 9  23777424.198
  21077847.089   -12914277.712 7  -9895468.902 9  21077849.526
  23164164.620    10374286.838 6   8048116.080 9  23164167.655
  21091661.487   -10019556.971 7  -7740005.782 9  21091663.187
 94  2 17 18 13 29.9990000  0  6 18 14 15 22 25 29
  23061962.136    -4603449.675 5  -3443943.984 9  23061966.729
  19899272.425    -8717443.880 8  -6709523.730 9  19899274.546
  23795071.620    12052724.693 5   9347403.992 9  23795078.749
  21070598.589   -12952370.674 7  -9925151.716 9  21070601.155
  23180178.612    10458441.246 6   8113690.855 9  23180181.296
  21082717.159   -10066559.120 7  -7776630.826 9  21082718.976
 94  2 17 18 13 59.9990000  0  6 18 14 15 22 25 29
  23046238.456    -4686082.564 5  -3508333.174 9  23046242.054
  19897513.136    -8726687.726 8  -6716726.739 9  19897515.292
  23812738.362    12145562.101 5   9419744.745 9  23812745.147
  21063477.456   -12989792.620 7  -9954311.664 9  21063479.940
  23196221.315    10542744.977 6   8179381.989 9  23196224.151
  21073810.323   -10113366.019 7  -7813103.728 9  21073812.046
 94  2 17 18 14 29.9990000  0  6 18 14 15 22 25 29
  23030528.683    -4768635.650 5  -3572660.184 9  23030532.292
  19895870.878    -8735318.506 8  -6723452.026 9  19895873.011
  23830411.206    12238437.294 5   9492114.904 9  23830417.417
  21056479.917   -13026564.922 7  -9982965.396 9  21056482.355
  23212287.854    10627176.128 6   8245172.418 9  23212291.054
  21064934.128   -10160010.887 7  -7849450.370 9  21064935.780
 94  2 17 18 14 59.9990000  0  6 18 14 15 22 25 29
  23014841.417    -4851074.482 5  -3636898.170 9  23014846.433
  19894352.378    -8743296.662 8  -6729668.780 9  19894354.546
  23848098.175    12331382.800 5   9564539.843 9  23848104.046
  21049608.206   -13062673.479 7 -10011101.928 9  21049610.726
  23228386.776    10711777.511 5   8311095.479 9  23228390.081
  21056097.370   -10206448.715 7  -7885635.683 9  21056099.046
 94  2 17 18 15 29.9990000  0  6 18 14 15 22 25 29
  22999179.347    -4933376.831 5  -3701029.821 9  22999183.132
  19892957.190    -8750630.869 8  -6735383.760 9  19892959.335
  23865798.925    12424398.694 5   9637019.668 9  23865805.593
  21042859.167   -13098141.406 7 -10038739.272 9  21042861.792
  23244518.417    10796548.684 5   8377150.840 9  23244521.874
  21047299.019   -10252683.587 7  -7921662.841 9  21047300.847
 94  2 17 18 15 59.9990000  0  6 18 14 15 22 25 29
  22983541.722    -5015552.355 5  -3765062.632 9  22983546.608
  19891678.839    -8757347.659 8  -6740617.632 9  19891681.007
  23883510.019    12517473.955 5   9709545.750 9  23883516.417
  21036227.815   -13132987.750 7 -10065892.264 9  21036230.452
  23260676.331    10881457.577 5   8443313.528 9  23260679.823
  21038539.854   -10298713.853 7  -7957530.572 9  21038541.671
 94  2 17 18 16 29.9990000  0  6 18 14 15 22 25 29
  22967928.159    -5097604.006 5  -3828998.913 9  22967932.718
  19890519.479    -8763440.286 8  -6745365.140 9  19890521.800
  23901232.839    12610610.767 5   9782119.796 9  23901238.347
  21029712.667   -13167227.185 7 -10092572.346 9  21029715.116
  23276862.550    10966516.257 5   8509592.928 9  23276865.526
  21029822.784   -10344520.599 7  -7993224.129 9  21029824.542
 94  2 17 18 16 59.9990000  0  6 18 14 15 22 25 29
  22952337.331    -5179533.510 5  -3892840.006 9  22952341.116
  19889478.901    -8768908.995 8  -6749626.481 9  19889481.175
  23918966.940    12703805.386 5   9854738.858 9  23918972.132
  21023311.862   -13200861.606 7 -10118780.985 9  21023314.499
  23293077.253    11051722.897 5   8575987.619 9  23293080.546
  21021148.487   -10390105.586 7  -8028744.877 9  21021150.257
 94  2 17 18 17 29.9990000  0  6 18 14 15 22 25 29
  22936773.190    -5261323.014 5  -3956572.007 9  22936776.354
  19888558.815    -8773743.799 8  -6753393.867 9  19888561.159
  23936715.253    12797066.090 5   9927409.420 9  23936721.921
  21017033.862   -13233854.545 7 -10144489.774 9  21017036.616
  23309320.925    11137084.008 6   8642502.663 9  23309324.124
  21012516.409   -10435467.671 7  -8064091.948 9  21012518.237
 94  2 17 18 17 59.9990000  0  6 18 14 15 22 25 29
  22921231.378    -5342999.335 5  -4020215.815 9  22921235.702
  19887760.440    -8777938.470 8  -6756662.442 9  19887762.878
  23954473.464    12890381.127 5  10000122.318 9  23954480.546
  21010877.714   -13266203.800 7 -10169696.992 9  21010880.339
  23325592.839    11222592.335 6   8709132.441 9  23325596.015
  21003926.026   -10480608.634 7  -8099266.707 9  21003927.925
 94  2 17 18 18 29.9990000  0  6 18 14 15 22 25 29
  22905710.394    -5424560.133 5  -4083769.607 9  22905713.605
  19887087.526    -8781476.401 8  -6759419.280 9  19887089.718
  23972238.659    12983745.474 5  10072873.667 9  23972246.632
  21004847.440   -13297894.704 7 -10194391.210 9  21004849.854
  23341893.159    11308252.421 6   8775880.473 9  23341896.077
  20995377.050   -10525534.394 7  -8134273.768 9  20995378.843
 94  2 17 18 18 59.9990000  0  6 18 14 15 22 25 29
  22890212.206    -5505998.112 5  -4147227.719 9  22890215.722
  19886535.394    -8784377.644 8  -6761679.990 9  19886537.562
  23990014.136    13077150.961 5  10145657.012 9  23990022.296
  20998946.120   -13328907.021 7 -10218556.659 9  20998948.640
  23358218.190    11394040.525 6   8842728.262 9  23358221.401
  20986868.214   -10570249.475 7  -8169116.662 9  20986870.019
 94  2 17 18 19 29.9990000  0  6 18 14 15 22 25 29
  22874738.933    -5587313.257 5  -4210590.117 9  22874744.101
  19886104.120    -8786643.444 8  -6763445.552 9  19886106.288
  24007794.886    13170594.977 5  10218470.421 8  24007800.241
  20993172.487   -13359247.258 7 -10242198.410 9  20993175.147
  23374567.284    11479955.145 6   8909674.635 9  23374569.979
  20978399.339   -10614753.624 7  -8203795.202 9  20978401.097
 94  2 17 18 19 59.9990000  0  5 18 14 22 25 29
  22859287.737    -5668511.161 5  -4273861.167 9  22859291.722
  19885794.565    -8788270.169 8  -6764713.133 9  19885796.745
  20987525.612   -13388922.297 7 -10265321.826 9  20987528.050
  23390938.339    11565985.596 6   8976711.283 9  23390941.843
  20969973.050   -10659033.823 7  -8238299.233 9  20969974.737
 94  2 17 18 20 29.9990000  0  5 18 14 22 25 29
  22843862.464    -5749569.717 5  -4337023.638 9  22843865.968
  19885606.315    -8789259.810 8  -6765484.285 9  19885608.472
  20982009.237   -13417910.852 7 -10287910.310 9  20982011.968
  23407332.479    11652136.936 5   9043842.115 9  23407335.550
  20961589.651   -10703089.932 7  -8272628.650 9  20961591.409
 94  2 17 18 20 59.9990000  0  5 18 14 22 25 29
  22828466.229    -5830482.510 5  -4400072.523 9  22828469.956
  19885537.604    -8789621.239 8  -6765765.922 9  19885539.913
  20976618.886   -13446235.194 7 -10309981.226 9  20976621.769
  23423748.487    11738405.763 5   9111064.485 9  23423752.190
  20953246.276   -10746933.565 7  -8306792.509 9  20953247.847
 94  2 17 18 21 29.9990000  0  5 18 14 22 25 29
  22813094.675    -5911258.250 5  -4463014.599 9  22813097.769
  19885591.612    -8789336.967 8  -6765544.420 9  19885593.862
  20971352.581   -13473910.283 7 -10331546.226 9  20971355.323
  23440189.198    11824800.243 5   9178384.779 9  23440192.187
  20944944.050   -10790562.972 7  -8340789.436 9  20944945.608
 94  2 17 18 21 59.9990000  0  5 18 14 22 25 29
  22797749.675    -5991899.060 5  -4525851.546 9  22797753.343
  19885769.987    -8788399.783 8  -6764814.151 9  19885772.026
  20966213.073   -13500918.443 7 -10352591.543 9  20966215.944
  23456651.487    11911313.143 5   9245797.372 9  23456655.659
  20936682.753   -10833975.747 7  -8374617.567 9  20936684.159
 94  2 17 18 22 29.9990000  0  5 18 14 22 25 29
  22782428.331    -6072407.863 5  -4588585.638 9  22782431.624
  19886072.394    -8786810.805 8  -6763575.990 9  19886074.468
  20961200.886   -13527258.382 7 -10373116.162 9  20961203.593
  23473139.800    11997956.224 5   9313311.369 9  23473142.483
  20928460.144   -10877186.295 7  -8408288.108 9  20928461.597
 94  2 17 18 22 59.9990000  0  5 18 14 22 25 29
  22767131.003    -6152799.198 5  -4651228.203 9  22767134.343
  19886499.589    -8784566.696 8  -6761827.336 9  19886501.522
  20956312.487   -13552947.735 7 -10393133.831 9  20956315.183
  23489651.386    12084725.851 5   9380923.986 9  23489654.491
  20920278.198   -10920182.025 7  -8441791.266 9  20920279.675
 94  2 17 18 23 29.9990000  0  5 18 14 22 25 29
  22751853.222    -6233077.784 5  -4713782.920 9  22751856.796
  19887050.151    -8781672.587 8  -6759572.188 9  19887052.097
  20951549.714   -13577976.164 7 -10412636.496 9  20951552.550
  23506182.964    12171599.533 5   9448617.679 9  23506187.112
  20912138.230   -10962957.662 7  -8475122.920 9  20912139.847
 94  2 17 18 23 59.9990000  0  5 18 14 22 25 29
  22736602.800    -6313220.691 5  -4776231.905 9  22736607.054
  19887722.753    -8778138.844 8  -6756818.624 9  19887724.710
  20946913.933   -13602336.307 7 -10431618.409 9  20946916.675
  23522733.081    12258568.949 5   9516385.966 9  23522737.171
  20904039.112   -11005517.969 7  -8508286.786 9  20904040.683
 94  2 17 18 24 29.9990000  0  5 18 14 22 25 29
  22721377.190    -6393234.538 5  -4838580.322 9  22721380.331
  19888513.370    -8773984.086 8  -6753581.156 9  19888515.397
  20942400.370   -13626056.386 7 -10450101.574 9  20942403.124
  23539299.839    12345628.325 5   9584224.348 9  23539303.483
  20895978.378   -11047877.657 7  -8541294.323 9  20895979.995
 94  2 17 18 24 59.9990000  0  5 18 14 22 25 29
  22706178.081    -6473106.593 5  -4900818.246 9  22706181.386
  19889422.448    -8769206.273 8  -6749858.189 9  19889424.440
  20938007.394   -13649141.370 7 -10468089.857 9  20938010.112
  23555884.339    12432774.934 5   9652130.706 9  23555887.421
  20887957.284   -11090029.234 7  -8574139.688 9  20887958.948
 94  2 17 18 25 29.9990000  0  5 18 14 22 25 29
  22691005.737    -6552835.960 5  -4962944.976 9  22691009.440
  19890450.878    -8763802.975 8  -6745647.830 9  19890453.069
  20933737.870   -13671575.668 7 -10485571.112 9  20933740.683
  23572484.464    12520014.599 5   9720109.564 9  23572488.366
  20879974.526   -11131977.526 7  -8606826.657 9  20879976.097
 94  2 17 18 25 59.9990000  0  5 18 14 22 25 29
  22675857.917    -6632445.382 6  -5024978.244 9  22675861.327
  19891599.315    -8757767.843 8  -6740945.134 9  19891601.401
  20929594.480   -13693350.392 7 -10502538.417 9  20929597.257
  23589107.831    12607373.470 5   9788181.325 9  23589111.687
  20872031.370   -11173719.390 7  -8639352.757 9  20872032.870
 94  2 17 18 26 29.9990000  0  5 18 14 22 25 29
  22660726.987    -6711950.573 5  -5086930.283 9  22660730.093
  19892871.769    -8751080.446 8  -6735734.184 9  19892873.749
  20925579.026   -13714452.158 7 -10518981.322 9  20925581.827
  23605758.651    12694863.191 6   9856355.045 9  23605762.249
  20864132.229   -11215231.318 7  -8671699.696 9  20864133.659
 94  2 17 18 26 59.9990000  0  5 18 14 22 25 29
  22645618.151    -6791350.995 5  -5148800.674 9  22645621.374
  19894271.019    -8743728.555 8  -6730005.441 9  19894273.034
  20921695.269   -13734861.093 7 -10534884.373 9  20921697.940
  23622430.300    12782477.675 5   9924625.995 9  23622434.144
  20856280.433   -11256492.258 7  -8703851.060 9  20856282.062
 94  2 17 18 27 29.9990000  0  5 18 14 22 25 29
  22630526.808    -6870659.754 5  -5210599.661 9  22630529.878
  19895794.565    -8735721.930 8  -6723766.517 9  19895796.675
  20917943.456   -13754576.346 7 -10550246.882 9  20917946.362
  23639123.909    12870204.490 5   9992984.465 9  23639127.987
  20848475.862   -11297506.657 7  -8735810.303 9  20848477.433
 94  2 17 18 27 59.9990000  0  5 18 14 22 25 29
  22615452.995    -6949865.116 5  -5272318.072 9  22615456.229
  19897441.737    -8727065.999 8  -6717021.646 9  19897443.765
  20914321.120   -13773612.184 7 -10565079.982 9  20914323.968
  23655838.198    12958038.603 5  10061426.525 9  23655841.983
  20840716.581   -11338281.320 7  -8767582.750 9  20840717.976
 94  2 17 18 28 29.9990000  0  5 18 14 22 25 29
  22600405.073    -7028944.454 5  -5333938.290 9  22600408.003
  19899209.831    -8717773.934 8  -6709781.083 9  19899211.999
  20910824.878   -13791987.122 7 -10579398.095 9  20910827.772
  23672571.073    13045971.750 5  10129945.768 9  23672575.128
  20833002.058   -11378822.035 7  -8799172.893 9  20833003.640
 94  2 17 18 28 59.9990000  0  5 18 14 22 25 29
  22585384.776    -7107878.638 5  -5395445.407 9  22585388.597
  19901097.308    -8707855.858 8  -6702052.718 9  19901099.558
  20907453.409   -13809702.105 7 -10593201.954 9  20907456.222
  23689322.894    13134001.655 5  10198540.420 9  23689326.444
  20825327.823   -11419148.950 7  -8830596.452 9  20825329.569
 94  2 17 18 29 29.9990000  0  5 18 14 22 25 29
  22570396.050    -7186646.366 6  -5456822.801 9  22570399.507
  19903105.120    -8697305.359 8  -6693831.557 9  19903107.358
  20904209.909   -13826746.611 7 -10606483.365 9  20904212.710
  23706096.401    13222145.838 5  10267224.087 9  23706100.198
  20817693.612   -11459267.368 7  -8861857.548 9  20817695.417
 94  2 17 18 29 59.9990000  0  5 18 14 22 25 29
  22555436.073    -7265257.354 6  -5518078.077 9  22555439.800
  19905230.097    -8686138.586 8  -6685130.183 9  19905232.136
  20901092.081   -13843132.117 7 -10619251.273 9  20901094.823
  23722889.198    13310389.927 5  10335985.621 9  23722892.339
  20810097.300   -11499185.956 7  -8892962.936 9  20810098.917
 94  2 17 18 30 29.9990000  0  5 18 14 22 25 29
  22540505.581    -7343719.609 6  -5579217.435 9  22540508.921
  19907472.737    -8674354.247 8  -6675947.592 9  19907474.788
  20898101.378   -13858847.852 7 -10631497.278 9  20898104.202
  23739698.815    13398725.247 5  10404818.231 9  23739702.460
  20802540.347   -11538898.167 7  -8923907.510 9  20802542.093
 94  2 17 18 30 59.9990000  0  5 18 14 22 25 29
  22525597.136    -7422063.523 6  -5640264.585 9  22525600.640
  19909832.690    -8661951.623 8  -6666283.221 9  19909834.847
  20895237.354   -13873897.617 7 -10643224.354 9  20895240.097
  23756522.534    13487134.264 5  10473708.277 9  23756526.249
  20795021.440   -11578409.459 7  -8954695.520 9  20795022.976
 94  2 17 18 31 29.9990000  0  4 18 14 22 29
  22510708.706    -7500303.298 6  -5701230.593 9  22510712.245
  19912311.503    -8648925.578 8  -6656133.069 9  19912313.659
  20892502.097   -13888273.979 7 -10654426.703 9  20892504.604
  20787544.987   -11617698.625 7  -8985310.456 9  20787546.780
 94  2 17 18 31 59.9990000  0  4 18 14 22 29
  22495839.089    -7578441.374 6  -5762117.365 9  22495842.405
  19914910.308    -8635268.903 8  -6645491.515 9  19914912.417
  20889895.019   -13901973.742 7 -10665101.835 9  20889897.655
  20780113.980   -11656750.140 7  -9015740.208 9  20780115.737
 94  2 17 18 32 29.9990000  0  4 18 14 22 29
  22480990.401    -7656472.965 6  -5822921.150 9  22480993.647
  19917633.956    -8620955.880 8  -6634338.525 9  19917636.276
  20887416.526   -13914996.917 7 -10675249.756 9  20887419.210
  20772728.089   -11695561.739 7  -9045983.012 9  20772729.976
 94  2 17 18 32 59.9990000  0  4 18 14 22 29
  22466161.433    -7734400.128 6  -5883643.572 9  22466165.206
  19920481.683    -8605992.168 8  -6622678.508 9  19920484.073
  20885066.519   -13927346.819 7 -10684873.050 9  20885069.413
  20765386.440   -11734142.002 7  -9076045.560 9  20765388.269
 94  2 17 18 33 29.9990000  0  4 18 14 22 29
  22451355.690    -7812203.110 6  -5944269.216 9  22451358.761
  19923451.159    -8590386.593 8  -6610518.334 9  19923453.456
  20882845.222   -13939019.637 7 -10693968.739 9  20882848.210
  20758087.284   -11772500.064 7  -9105934.954 9  20758089.019
 94  2 17 18 33 59.9990000  0  5 18 14 19 22 29
  22436576.534    -7889868.553 6  -6004787.701 9  22436580.190
  19926542.917    -8574138.195 8  -6597857.267 9  19926545.331
  23858618.190      -89352.212 5
  20880750.347   -13950028.122 7 -10702546.772 9  20880753.206
  20750828.730   -11810644.585 7  -9135657.960 9  20750830.241
 94  2 17 18 34 29.9990000  0  5 18 14 19 22 29
  22421823.644    -7967397.182 6  -6065199.559 9  22421826.620
  19929755.503    -8557256.368 8  -6584702.615 9  19929757.976
  23841070.675     -181563.063 5    -28717.38119  23841077.097
  20878781.042   -13960376.793 7 -10710610.663 9  20878783.855
  20743611.417   -11848572.620 7  -9165212.269 9  20743612.976
 94  2 17 18 34 59.9990000  0  5 18 14 19 22 29
  22407094.987    -8044794.358 6  -6125508.991 9  22407098.972
  19933083.089    -8539770.885 8  -6571077.577 9  19933085.562
  23823570.854     -273525.364 5   -100376.206 8  23823576.269
  20876937.120   -13970066.518 7 -10718161.090 9  20876940.015
  20736434.354   -11886288.059 7  -9194600.920 9  20736436.030
 94  2 17 18 35 29.9990000  0  5 18 14 19 22 29
  22392393.222    -8122053.429 6  -6185710.803 9  22392396.374
  19936523.933    -8521688.011 8  -6556987.047 9  19936526.288
  23806122.964     -365214.867 5   -171822.538 9  23806128.448
  20875216.425   -13979108.749 7 -10725206.974 9  20875219.413
  20729297.651   -11923791.389 7  -9223824.292 9  20729299.456
 94  2 17 18 35 59.9990000  0  5 18 14 19 22 29
  22377715.667    -8199181.813 6  -6245810.782 9  22377718.714
  19940080.386    -8502999.432 8  -6542424.533 9  19940082.870
  23788723.495     -456649.188 5   -243069.957 9  23788729.483
  20873617.190   -13987513.924 7 -10731756.456 9  20873619.968
  20722201.761   -11961081.538 7  -9252881.544 9  20722203.401
 94  2 17 18 36 29.9990000  0  5 18 14 19 22 29
  22363063.839    -8276182.203 6  -6305811.024 9  22363067.776
  19943751.862    -8483704.788 8  -6527389.767 9  19943754.522
  23771371.081     -547835.757 5   -314124.363 9  23771378.163
  20872140.378   -13995274.801 7 -10737803.880 9  20872143.062
  20715143.214   -11998172.307 7  -9281783.428 9  20715144.831
 94  2 17 18 36 59.9990000  0  5 18 14 19 22 29
  22348435.440    -8353051.342 6  -6365708.995 9  22348439.026
  19947540.808    -8463794.136 8  -6511874.993 9  19947543.444
  23754065.987     -638777.097 5   -384987.676 9  23754071.683
  20870787.620   -14002385.332 7 -10743344.546 9  20870790.421
  20708119.558   -12035081.594 7  -9310543.899 9  20708121.046
 94  2 17 18 37 29.9990000  0  5 18 14 19 22 29
  22333834.870    -8429778.074 6  -6425496.009 9  22333838.608
  19951451.542    -8443243.867 8  -6495861.819 9  19951454.062
  23736806.011     -729477.250 5   -455663.112 9  23736813.327
  20869557.628   -14008846.445 7 -10748379.171 9  20869560.581
  20701132.417   -12071801.411 7  -9339156.719 9  20701133.976
 94  2 17 18 37 59.9990000  0  5 18 14 19 22 29
  22319259.050    -8506375.143 6  -6485181.988 9  22319263.304
  19955486.573    -8422039.429 8  -6479338.899 9  19955489.128
  23719588.823     -819954.246 5   -526164.663 9  23719595.882
  20868452.284   -14014654.838 7 -10752905.176 9  20868455.167
  20694183.190   -12108320.348 7  -9367613.013 9  20694184.714
 94  2 17 18 38 29.9990000  0  5 18 14 19 22 29
  22304706.472    -8582849.121 6  -6544772.054 9  22304709.999
  19959643.456    -8400193.971 8  -6462316.487 9  19959646.046
  23702413.823     -910209.316 5   -596493.277 9  23702420.198
  20867472.440   -14019804.302 7 -10756917.737 9  20867475.358
  20687274.253   -12144625.771 7  -9395902.929 9  20687275.952
 94  2 17 18 38 59.9990000  0  5 18 14 19 22 29
  22290177.730    -8659200.635 6  -6604266.704 9  22290181.034
  19963922.206    -8377708.305 8  -6444795.215 9  19963924.866
  23685281.136    -1000242.577 5   -666649.078 9  23685286.690
  20866618.331   -14024290.771 7 -10760413.676 9  20866621.366
  20680410.597   -12180693.969 7  -9424008.000 9  20680412.308
 94  2 17 18 39 29.9990000  0  5 18 14 19 22 29
  22275669.276    -8735438.925 6  -6663673.120 9  22275672.804
  19968322.245    -8354586.307 8  -6426778.100 9  19968324.823
  23668188.979    -1090064.903 5   -736640.485 9  23668193.890
  20865890.401   -14028117.517 7 -10763395.549 9  20865893.437
  20673595.417   -12216508.470 7  -9451915.387 9  20673597.046
 94  2 17 18 39 59.9990000  0  5 18 14 19 22 29
  22261180.331    -8811579.966 6  -6723003.752 9  22261183.729
  19972838.636    -8330854.389 8  -6408285.718 9  19972841.167
  23651134.198    -1179686.016 5   -806475.107 9  23651139.624
  20865290.050   -14031272.714 7 -10765854.140 9  20865292.979
  20666826.456   -12252079.321 7  -9479632.913 9  20666828.026
 94  2 17 18 40 29.9990000  0  5 18 14 19 22 29
  22246712.058    -8887613.004 6  -6782250.223 9  22246715.491
  19977468.105    -8306526.210 8  -6389328.719 9  19977470.694
  23634122.581    -1269080.558 5   -876133.169 9  23634129.038
  20864819.581   -14033744.413 7 -10767780.138 9  20864822.452
  20660101.347   -12287419.998 7  -9507171.083 9  20660102.987
 94  2 17 18 40 59.9990000  0  5 18 14 19 22 29
  22232261.745    -8963547.800 6  -6841420.163 9  22232265.097
  19982210.190    -8281606.595 8  -6369910.859 9  19982212.851
  23617154.737    -1358249.327 5   -945615.268 9  23617161.878
  20864475.448   -14035552.659 7 -10769189.164 9  20864478.390
  20653415.050   -12322556.682 7  -9534550.302 9  20653416.808
 94  2 17 18 41 29.9990000  0  5 18 14 19 22 29
  22217833.120    -9039369.741 6  -6900502.139 9  22217836.308
  19987064.628    -8256094.658 7  -6350031.453 9  19987067.358
  23600231.042    -1447185.153 5  -1014915.849 9  23600237.522
  20864258.190   -14036694.881 7 -10770079.214 9  20864261.038
  20646766.315   -12357495.788 7  -9561775.570 9  20646767.944
 94  2 17 18 41 59.9990000  0  5 18 14 19 22 29
  22203427.019    -9115074.309 6  -6959492.667 9  22203430.452
  19992030.261    -8229999.029 7  -6329697.221 9  19992032.991
  23583351.128    -1535884.676 5  -1084032.317 9  23583356.858
  20864164.940   -14037184.448 7 -10770460.708 9  20864167.976
  20640153.409   -12392246.988 7  -9588854.415 9  20640155.073
 94  2 17 18 42 29.9990000  0  5 18 14 19 22 29
  22189046.589    -9190644.125 6  -7018378.193 9  22189049.776
  19997114.065    -8203286.370 7  -6308882.184 9  19997116.761
  23566520.151    -1624337.306 5  -1152956.311 9  23566526.819
  20864195.229   -14037025.308 7 -10770336.709 9  20864198.312
  20633580.151   -12426789.452 7  -9615770.610 9  20633581.792
 94  2 17 18 42 59.9990000  0  5 18 14 19 22 29
  22174693.526    -9266069.945 6  -7077151.513 9  22174697.007
  20002316.534    -8175946.269 7  -6287578.233 9  20002319.358
  23549732.394    -1712557.162 5  -1221698.952 9  23549737.749
  20864349.253   -14036217.081 7 -10769706.927 9  20864352.229
  20627050.901   -12461101.161 7  -9642506.985 9  20627052.437
 94  2 17 18 43 29.9980000  0  5 18 14 19 22 29
  22160366.967    -9341354.972 6  -7135815.124 9  22160370.330
  20007638.303    -8147980.745 7  -6265786.941 9  20007640.975
  23532988.584    -1800543.079 5  -1290259.231 9  23532995.123
  20864627.240   -14034755.447 7 -10768568.005 9  20864630.510
  20620567.381   -12495171.556 7  -9669055.334 9  20620568.963
 94  2 17 18 43 59.9980000  0  5 18 14 19 22 29
  22146064.795    -9416514.780 6  -7194381.155 9  22146068.076
  20013081.311    -8119377.799 7  -6243498.949 9  20013083.900
  23516291.623    -1888286.536 5  -1358630.631 9  23516297.951
  20865028.529   -14032646.611 7 -10766924.770 9  20865031.588
  20614131.240   -12528993.632 7  -9695410.183 9  20614132.729
 94  2 17 18 44 29.9980000  0  5 18 14 19 22 29
  22131789.717    -9491530.871 6  -7252835.209 9  22131792.705
  20018646.146    -8090133.641 7  -6220711.318 9  20018648.713
  23499644.818    -1975764.148 5  -1426794.817 9  23499649.881
  20865554.381   -14029883.893 7 -10764772.016 9  20865557.428
  20607743.818   -12562559.839 7  -9721565.654 9  20607745.318
 94  2 17 18 44 59.9980000  0  5 18 14 19 22 29
  22117541.311    -9566407.113 6  -7311180.294 9  22117544.814
  20024329.717    -8060266.226 7  -6197438.027 9  20024332.400
  23483051.389    -2062965.909 5  -1494744.076 9  23483056.498
  20866202.459   -14026477.299 7 -10762117.528 9  20866205.623
  20601404.311   -12595875.232 7  -9747525.692 9  20601405.705
 94  2 17 18 45 29.9980000  0  5 18 14 19 22 29
  22103315.334    -9641166.595 6  -7369434.395 9  22103318.908
  20030130.537    -8029783.225 7  -6173685.059 9  20030133.115
  23466507.139    -2149900.951 5  -1562485.504 9  23466512.494
  20866970.318   -14022443.814 7 -10758974.548 9  20866973.389
  20595109.686   -12628954.212 7  -9773301.507 9  20595111.221
 94  2 17 18 45 59.9980000  0  5 18 14 19 22 29
  22089113.061    -9715797.470 6  -7427588.275 9  22089116.518
  20036045.748    -7998699.681 7  -6149464.137 9  20036048.162
  23450014.623    -2236577.523 5  -1630025.511 9  23450021.256
  20867856.967   -14017782.733 7 -10755342.536 9  20867860.037
  20588858.654   -12661801.444 7  -9798896.744 9  20588860.154
 94  2 17 18 46 29.9980000  0  5 18 14 19 22 29
  22074939.326    -9790281.105 6  -7485627.435 9  22074942.479
  20042076.443    -7967007.894 7  -6124769.258 9  20042078.904
  23433567.365    -2323001.382 5  -1697368.618 9  23433572.932
  20868870.076   -14012458.967 7 -10751194.145 9  20868873.240
  20582653.951   -12694409.666 7  -9824305.737 9  20582655.275
 94  2 17 18 46 59.9980000  0  5 18 14 19 22 29
  22060787.217    -9864647.476 6  -7543575.211 9  22060790.240
  20048220.725    -7934720.390 7  -6099610.184 9  20048223.279
  23417164.365    -2409201.180 5  -1764537.117 9  23417169.006
  20870009.865   -14006469.775 7 -10746527.226 9  20870012.760
  20576492.014   -12726790.889 7  -9849537.846 9  20576493.361
 94  2 17 18 47 29.9980000  0  5 18 14 19 22 29
  22046662.061    -9938880.034 6  -7601418.734 9  22046665.154
  20054477.795    -7901838.366 7  -6073987.852 9  20054480.443
  23400802.896    -2495181.249 5  -1831534.430 9  23400807.584
  20871280.092   -13999794.199 7 -10741325.463 9  20871283.186
  20570372.162   -12758951.198 7  -9874597.816 9  20570373.498
 94  2 17 18 47 59.9980000  0  5 18 14 19 22 29
  22032563.920   -10012964.618 6  -7659146.941 9  22032566.662
  20060846.553    -7868371.032 7  -6047909.432 9  20060848.990
  23384483.998    -2580932.072 5  -1898353.124 9  23384489.201
  20872682.545   -13992424.194 7 -10735582.582 9  20872685.615
  20564292.654   -12790898.452 7  -9899491.777 9  20564294.096
 94  2 17 18 48 29.9980000  0  5 18 14 19 22 29
  22018493.865   -10086907.653 6  -7716764.849 9  22018497.205
  20067328.889    -7834305.089 7  -6021364.560 9  20067331.561
  23368211.428    -2666445.380 5  -1964986.731 9  23368217.592
  20874216.818   -13984362.321 7 -10729300.578 9  20874219.795
  20558255.920   -12822621.453 7  -9924210.989 9  20558257.420
 94  2 17 18 48 59.9980000  0  5 18 14 19 22 29
  22004448.561   -10160713.107 6  -7774275.551 9  22004452.147
  20073922.186    -7799657.128 8  -5994366.177 9  20073924.693
  23351983.248    -2751726.954 5  -2031439.814 9  23351988.451
  20875877.240   -13975636.811 7 -10722501.455 9  20875880.076
  20552262.443   -12854117.745 7  -9948753.547 9  20552263.896
 94  2 17 18 49 29.9980000  0  5 18 14 19 22 29
  21990432.186   -10234367.116 6  -7831668.245 9  21990435.467
  20080628.631    -7764416.503 8  -5966905.972 9  20080631.115
  23335800.654    -2836768.957 5  -2097706.189 9  23335807.619
  20877662.646   -13966253.812 7 -10715190.011 9  20877665.646
  20546312.490   -12885383.387 7  -9973116.381 9  20546313.814
 94  2 17 18 49 59.9980000  0  5 18 14 19 22 29
  21976442.217   -10307885.469 6  -7888955.229 9  21976445.498
  20087450.795    -7728566.101 8  -5938970.618 9  20087453.209
  23319662.873    -2921570.767 5  -2163785.461 9  23319668.943
  20879571.193   -13956223.690 7 -10707374.312 9  20879574.158
  20540409.154   -12916407.093 7  -9997290.684 9  20540410.596
 94  2 17 18 50 29.9980000  0  5 18 14 19 22 29
  21962477.904   -10381267.819 6  -7946136.231 9  21962481.174
  20094389.467    -7692101.610 8  -5910556.751 9  20094391.916
  23303571.553    -3006129.413 5  -2229675.256 9  23303576.533
  20881602.709   -13945548.760 7 -10699056.164 9  20881605.604
  20534552.506   -12947183.382 7 -10021272.208 9  20534553.877
 94  2 17 18 50 59.9980000  0  5 18 14 19 22 29
  21948538.553   -10454517.675 6  -8003213.999 9  21948541.740
  20101445.568    -7655023.127 8  -5881664.451 9  20101447.936
  23287527.943    -3090438.454 5  -2295370.555 9  23287533.264
  20883756.678   -13934228.855 7 -10690235.451 9  20883759.689
  20528740.842   -12977723.011 7 -10045069.317 9  20528742.307
 94  2 17 18 51 29.9980000  0  5 18 14 19 22 29
  21934625.045   -10527632.931 6  -8060186.880 9  21934628.080
  20108619.365    -7617323.399 8  -5852288.064 9  20108621.686
  23271534.600    -3174485.680 5  -2360861.852 9  23271540.002
  20886034.889   -13922257.810 7 -10680907.352 9  20886037.807
  20522972.912   -13008033.075 7 -10068687.547 9  20522974.354
 94  2 17 18 51 59.9980000  0  5 18 14 19 22 29
  21920736.709   -10600619.838 6  -8117059.745 9  21920739.897
  20115910.584    -7579007.451 8  -5822431.506 9  20115913.104
  23255590.865    -3258269.881 5  -2426148.186 9  23255596.396
  20888435.436   -13909642.546 7 -10671077.269 9  20888438.342
  20517250.490   -13038107.201 7 -10092121.932 9  20517251.920
 94  2 17 18 52 29.9980000  0  5 18 14 19 22 29
  21906874.959   -10673464.622 6  -8173821.860 9  21906877.783
  20123317.670    -7540083.165 8  -5792100.912 9  20123320.061
  23239699.412    -3341780.484 5  -2491221.349 9  23239705.072
  20890959.717   -13896376.891 7 -10660740.391 9  20890962.658
  20511574.873   -13067931.139 7 -10115361.364 9  20511576.397
 94  2 17 18 52 59.9980000  0  5 18 14 19 22 29
  21893040.217   -10746165.422 6  -8230471.780 9  21893043.088
  20130839.943    -7500554.976 8  -5761299.752 9  20130842.240
  23223857.428    -3425033.379 5  -2556093.696 9  23223862.268
  20893607.178   -13882464.977 7 -10649899.937 9  20893610.025
  20505948.326   -13097499.768 7 -10138401.857 9  20505949.850
 94  2 17 18 53 29.9980000  0  5 18 14 19 22 29
  21879233.537   -10818720.470 6  -8287008.118 9  21879236.373
  20138475.404    -7460429.902 8  -5730033.478 9  20138477.842
  23208061.076    -3508039.975 5  -2620774.134 9  23208066.033
  20896374.662   -13867920.777 7 -10638566.801 9  20896377.510
  20500369.396   -13126817.624 7 -10161246.929 9  20500370.885
 94  2 17 18 53 59.9980000  0  5 18 14 19 22 29
  21865454.021   -10891131.949 6  -8343432.592 9  21865457.010
  20146225.037    -7419704.839 7  -5698299.687 9  20146227.709
  23192313.350    -3590794.872 5  -2685258.427 9  23192318.881
  20899263.459   -13852739.109 7 -10626736.938 9  20899266.248
  20494839.850   -13155875.293 7 -10183889.264 9  20494841.268
 94  2 17 18 54 29.9980000  0  5 18 14 19 22 29
  21851702.451   -10963396.341 6  -8399742.447 9  21851705.545
  20154086.850    -7378389.513 7  -5666105.950 9  20154089.521
  23176612.521    -3673304.818 6  -2749551.882 9  23176617.256
  20902275.654   -13836911.330 7 -10614403.613 9  20902278.373
  20489358.248   -13184682.282 7 -10206336.261 9  20489359.561
 94  2 17 18 54 59.9980000  0  5 18 14 19 22 29
  21837977.662   -11035519.434 6  -8455942.219 9  21837980.498
  20162063.240    -7336475.696 7  -5633445.858 9  20162065.736
  23160957.342    -3755574.691 5  -2813658.234 9  23160962.006
  20905408.232   -13820448.176 7 -10601575.194 9  20905411.174
  20483919.467   -13213262.759 7 -10228606.753 9  20483920.896
 94  2 17 18 55 29.9980000  0  5 18 14 19 22 29
  21824278.771   -11107507.292 6  -8512036.599 9  21824281.584
  20170153.896    -7293958.272 7  -5600315.421 9  20170156.346
  23145348.295    -3837597.753 5  -2877572.293 9  23145353.252
  20908660.521   -13803358.578 7 -10588258.639 9  20908663.393
  20478521.201   -13241631.300 7 -10250712.099 9  20478522.818
 94  2 17 18 55 59.9980000  0  5 18 14 19 22 29
  21810605.646   -11179358.982 6  -8568024.872 9  21810608.635
  20178357.842    -7250845.652 7  -5566721.196 9  20178360.479
  23129787.522    -3919374.603 6  -2941294.486 9  23129791.576
  20912034.076   -13785629.859 7 -10574444.066 9  20912037.135
  20473164.686   -13269778.692 7 -10272645.116 9  20473166.244
 94  2 17 18 56 29.9980000  0  5 18 14 19 22 29
  21796961.998   -11251057.393 6  -8623893.723 9  21796964.975
  20186673.693    -7207145.835 7  -5532669.416 9  20186676.189
  23114271.771    -4000910.599 6  -3004828.984 9  23114276.717
  20915529.029   -13767265.407 7 -10560134.124 9  20915532.205
  20467849.662   -13297708.542 7 -10294408.621 9  20467851.150
 94  2 17 18 56 59.9980000  0  5 18 14 19 22 29
  21783349.842   -11322592.792 6  -8679635.543 9  21783352.924
  20195101.951    -7162854.654 7  -5498156.831 9  20195104.482
  23098804.178    -4082190.321 6  -3068163.810 9  23098808.572
  20919145.178   -13748260.365 7 -10545325.022 9  20919148.213
  20462578.803   -13325406.615 7 -10315991.518 9  20462580.268
 94  2 17 18 57 29.9980000  0  5 18 14 19 22 29
  21769768.279   -11393959.881 6  -8735246.223 9  21769771.244
  20203638.287    -7117995.230 7  -5463201.466 9  20203641.229
  23083386.022    -4163213.588 6  -3131298.796 9  23083391.166
  20922885.912   -13728603.894 7 -10530008.305 9  20922888.982
  20457358.240   -13352841.915 7 -10337369.649 9  20457359.611
 94  2 17 18 57 59.9980000  0  5 18 14 19 22 29
  21756220.287   -11465157.037 6  -8790724.485 9  21756223.334
  20212280.100    -7072583.750 7  -5427815.928 9  20212282.959
  23068016.764    -4243978.252 6  -3194232.279 9  23068021.990
  20926750.889   -13708292.881 7 -10514181.552 9  20926753.795
  20452190.311   -13379999.690 7 -10358531.529 9  20452191.529
 94  2 17 18 58 29.9980000  0  5 18 14 19 22 29
  21742704.740   -11536180.221 6  -8846067.185 9  21742707.588
  20221028.139    -7026612.259 7  -5391994.015 9  20221030.846
  23052697.529    -4324481.469 5  -3256962.039 9  23052702.182
  20930740.318   -13687328.720 7 -10497845.848 9  20930743.131
  20447074.561   -13406883.087 7 -10379479.609 9  20447075.955
 94  2 17 18 58 59.9980000  0  5 18 14 19 22 29
  21729219.717   -11607044.788 6  -8901286.282 9  21729222.693
  20229881.686    -6980085.238 7  -5355739.225 9  20229884.568
  23037428.045    -4404724.890 6  -3319489.309 9  23037433.541
  20934851.412   -13665724.498 7 -10481011.395 9  20934854.131
  20442013.764   -13433477.309 7 -10400202.365 9  20442015.135
 94  2 17 18 59 29.9980000  0  5 18 14 19 22 29
  21715761.826   -11677765.352 6  -8956393.190 9  21715764.697
  20238841.490    -6933002.372 7  -5319051.309 9  20238844.443
  23022202.795    -4484728.381 5  -3381829.657 9  23022207.506
  20939082.170   -13643492.905 7 -10463688.083 9  20939084.713
  20437004.295   -13459802.162 7 -10420715.222 9  20437005.596
 94  2 17 18 59 59.9980000  0  5 18 14 19 22 29
  21702330.146   -11748350.068 6  -9011394.231 9  21702333.088
  20247911.053    -6885343.161 7  -5281914.293 9  20247913.607
  23007024.975    -4564489.885 6  -3443981.414 9  23007030.400
  20943432.740   -13620631.401 7 -10445873.926 9  20943435.342
  20432040.709   -13485885.764 7 -10441040.089 9  20432041.963
 94  2 17 19  0 29.9980000  0  5 18 14 19 22 29
  21688920.131   -11818819.565 6  -9066305.488 9  21688922.967
  20257090.045    -6837106.859 7  -5244327.593 9  20257092.846
  22991890.764    -4644020.858 6  -3505953.534 9  22991896.189
  20947900.568   -13597151.332 7 -10427577.766 9  20947903.076
  20427119.740   -13511745.390 7 -10461190.422 9  20427120.994
 94  2 17 19  0 59.9980000  0  5 18 14 19 22 29
  21675532.795   -11889171.475 6  -9121125.132 9  21675535.865
  20266380.928    -6788281.265 7  -5206281.706 9  20266383.787
  22976802.553    -4723310.946 6  -3567737.959 9  22976808.564
  20952486.982   -13573049.714 7 -10408797.279 9  20952489.455
  20422242.959   -13537374.093 7 -10481160.821 9  20422244.318
 94  2 17 19  1 29.9980000  0  5 18 14 19 22 29
  21662167.865   -11959404.475 6  -9175852.128 9  21662170.877
  20275787.475    -6738849.928 7  -5167763.811 9  20275790.264
  22961760.779    -4802358.422 6  -3629333.322 9  22961765.807
  20957194.420   -13548313.124 7 -10389522.001 9  20957196.846
  20417407.717   -13562781.891 7 -10500959.083 9  20417409.053
 94  2 17 19  1 59.9980000  0  5 18 14 19 22 29
  21648827.881   -12029505.574 6  -9230476.327 9  21648830.799
  20285307.068    -6688825.850 7  -5128784.037 9  20285309.846
  22946765.826    -4881158.412 6  -3690735.803 9  22946770.525
  20962021.842   -13522945.438 7 -10369754.960 9  20962024.115
  20412620.529   -13587939.644 7 -10520562.512 9  20412621.830
 94  2 17 19  2 29.9980000  0  5 18 14 19 22 29
  21635519.264   -12099441.876 6  -9284972.124 9  21635522.533
  20294938.896    -6638208.655 7  -5089342.092 9  20294941.662
  22931819.779    -4959700.075 6  -3751937.007 9  22931824.080
  20966970.006   -13496941.854 7 -10349492.418 9  20966972.256
  20407887.139   -13612813.300 7 -10539944.569 9  20407888.428
 94  2 17 19  2 59.9980000  0  5 18 14 19 22 29
  21622245.490   -12169195.696 6  -9339325.730 9  21622248.408
  20304683.764    -6586999.882 7  -5049439.181 9  20304686.717
  22916922.756    -5037983.532 6  -3812936.999 9  22916927.221
  20972042.920   -13470284.589 7 -10328720.521 9  20972045.287
  20403210.818   -13637388.632 7 -10559094.164 9  20403212.049
 94  2 17 19  3 29.9980000  0  5 18 14 19 22 29
  21609007.436   -12238762.655 6  -9393533.725 9  21609010.541
  20314535.873    -6535225.831 7  -5009095.791 9  20314538.768
  22902073.381    -5116014.847 6  -3873740.524 9  22902078.291
  20977238.787   -13442979.315 7 -10307443.672 9  20977241.061
  20398590.021   -13661669.560 7 -10578014.356 9  20398591.381
 94  2 17 19  3 59.9980000  0  5 18 14 19 22 29
  21595804.943   -12308143.900 6  -9447597.004 9  21595807.697
  20324491.154    -6482910.362 7  -4968330.517 9  20324494.072
  22887272.428    -5193796.141 6  -3934349.229 9  22887277.092
  20982555.232   -13415041.423 7 -10285673.877 9  20982557.588
  20394022.084   -13685674.414 7 -10596719.424 9  20394023.514
 94  2 17 19  4 29.9980000  0  5 18 14 19 22 29
  21582636.600   -12377343.382 6  -9501518.661 9  21582639.354
  20334550.639    -6430047.948 7  -4927139.051 9  20334553.580
  22872520.717    -5271315.025 6  -3994753.438 9  22872525.123
  20987991.670   -13386471.986 7 -10263411.976 9  20987994.096
  20389501.857   -13709428.250 7 -10615228.897 9  20389503.158
 94  2 17 19  4 59.9980000  0  5 18 14 19 22 29
  21569500.912   -12446373.558 7  -9555308.392 9  21569503.830
  20344713.029    -6376645.199 7  -4885526.549 9  20344715.982
  22857817.021    -5348581.066 6  -4054960.641 9  22857821.041
  20993546.709   -13357281.587 7 -10240666.204 9  20993549.029
  20385027.701   -13732940.374 7 -10633550.019 9  20385028.943
 94  2 17 19  5 29.9980000  0  5 18 14 19 22 29
  21556397.365   -12515230.562 6  -9608963.181 9  21556400.107
  20354977.021    -6322710.266 7  -4843499.355 9  20354979.682
  22843161.240    -5425596.315 6  -4114972.400 9  22843165.740
  20999215.123   -13327492.158 7 -10217453.657 9  20999217.455
  20380598.162   -13756217.934 7 -10651688.369 9  20380599.393
 94  2 17 19  5 59.9980000  0  5 18 14 19 22 29
  21543327.217   -12583913.891 6  -9662482.636 9  21543329.936
  20365345.404    -6268223.377 7  -4801042.066 9  20365348.146
  22828553.412    -5502359.373 6  -4174787.672 9  22828557.842
  21004998.826   -13297098.464 8 -10193770.255 9  21005001.170
  20376215.279   -13779249.763 7 -10669635.239 9  20376216.697
 94  2 17 19  6 29.9980000  0  5 18 14 19 22 29
  21530288.936   -12652430.936 6  -9715872.517 9  21530291.713
  20375819.061    -6213182.639 7  -4758153.210 9  20375821.838
  22813992.326    -5578878.391 6  -4234412.792 9  22813997.225
  21010896.490   -13266107.745 8 -10169621.639 9  21010898.717
  20371882.764   -13802017.376 7 -10687376.233 9  20371884.029
 94  2 17 19  6 59.9980000  0  5 18 14 19 22 29
  21517281.404   -12720786.240 6  -9769136.367 9  21517284.158
  20386398.756    -6157586.699 7  -4714831.725 9  20386401.439
  22799476.092    -5655161.778 6  -4293854.294 9  22799481.096
  21016908.553   -13234513.767 8 -10145002.957 9  21016911.025
  20367603.014   -13824507.651 7 -10704901.113 9  20367604.256
 94  2 17 19  7 29.9980000  0  5 18 14 19 22 29
  21504303.303   -12788986.137 6  -9822279.112 9  21504306.244
  20397086.522    -6101421.853 7  -4671066.939 9  20397089.381
  22785007.709    -5731191.755 6  -4353098.343 9  22785012.080
  21023034.623   -13202319.845 7 -10119916.794 9  21023037.061
  20363374.811   -13846728.175 7 -10722215.804 9  20363376.193
 94  2 17 19  7 59.9980000  0  5 18 14 19 22 29
  21491352.357   -12857043.354 6  -9875310.674 9  21491354.994
  20407884.459    -6044677.357 7  -4626850.473 9  20407887.260
  22770589.084    -5806962.015 6  -4412140.015 9  22770594.018
  21029273.584   -13169533.902 7 -10094369.308 9  21029276.104
  20359196.920   -13868682.313 7 -10739322.918 9  20359198.408
 94  2 17 19  8 29.9980000  0  5 18 14 19 22 29
  21478428.842   -12924956.298 6  -9928229.823 9  21478431.795
  20418791.670    -5987359.324 7  -4582187.105 9  20418794.553
  22756220.639    -5882466.885 6  -4470974.907 9  22756226.029
  21035625.975   -13136153.089 7 -10068358.294 9  21035628.295
  20355069.998   -13890370.305 7 -10756222.654 9  20355071.475
 94  2 17 19  8 59.9980000  0  5 18 14 19 22 29
  21465534.623   -12992716.700 6  -9981030.097 9  21465537.588
  20429807.803    -5929470.577 7  -4537079.019 9  20429810.580
  22741903.068    -5957705.465 6  -4529602.294 9  22741908.494
  21042092.404   -13102170.776 7 -10041878.575 9  21042094.713
  20350990.482   -13911807.003 7 -10772926.576 9  20350991.795
 94  2 17 19  9 29.9980000  0  5 18 14 19 22 29
  21452671.811   -13060309.146 6 -10033699.501 9  21452674.775
  20440931.170    -5871017.496 7  -4491531.190 9  20440933.889
  22727636.732    -6032678.452 6  -4588022.735 9  22727641.619
  21048672.076   -13067593.808 7 -10014935.496 9  21048674.549
  20346957.951   -13932998.589 7 -10789439.500 9  20346959.311
 94  2 17 19  9 59.9980000  0  5 18 14 19 22 29
  21439844.303   -13127721.412 7 -10086228.496 9  21439847.186
  20452158.053    -5812017.694 7  -4445557.343 9  20452160.854
  22713420.162    -6107387.217 6  -4646237.288 9  22713424.826
  21055369.436   -13032399.749 7  -9987511.568 9  21055371.885
  20342976.748   -13953919.756 7 -10805741.704 9  20342977.826
 94  2 17 19 10 29.9980000  0  5 18 14 19 22 29
  21427050.436   -13194951.028 6 -10138615.176 9  21427053.318
  20463486.178    -5752489.394 7  -4399171.680 9  20463488.897
  22699254.037    -6181832.145 6  -4704246.259 9  22699258.783
  21062187.100   -12996572.784 7  -9959594.471 9  21062189.467
  20339048.240   -13974566.034 7 -10821829.714 9  20339049.389
 94  2 17 19 10 59.9980000  0  5 18 14 19 22 29
  21414292.404   -13261996.886 7 -10190858.661 9  21414295.088
  20474913.092    -5692439.995 7  -4352379.971 9  20474916.162
  22685137.248    -6256014.744 6  -4762050.810 9  22685142.053
  21069123.646   -12960121.203 7  -9931190.671 9  21069126.154
  20335171.936   -13994934.081 7 -10837700.924 9  20335173.143
 94  2 17 19 11 29.9980000  0  5 18 14 19 22 29
  21401566.162   -13328872.184 6 -10242969.235 9  21401568.939
  20486439.193    -5631870.425 7  -4305182.932 9  20486442.416
  22671069.912    -6329938.123 6  -4819653.385 9  22671074.857
  21076178.084   -12923049.770 7  -9902303.866 9  21076180.744
  20331352.092   -14015008.236 7 -10853343.127 9  20331353.252
 94  2 17 19 11 59.9980000  0  5 18 14 19 22 29
  21388869.350   -13395594.609 7 -10294960.689 9  21388872.186
  20498063.545    -5570784.417 7  -4257583.472 9  20498066.650
  22657053.139    -6403599.397 6  -4877051.725 9  22657058.189
  21083351.147   -12885355.459 7  -9872931.708 9  21083353.713
  20327589.646   -14034779.644 7 -10868749.420 9  20327590.783
 94  2 17 19 12 29.9980000  0  5 18 14 19 22 29
  21376200.646   -13462170.664 7 -10346838.092 9  21376203.365
  20509785.717    -5509183.646 7  -4209582.894 9  20509788.822
  22643083.365    -6477012.938 6  -4934257.010 9  22643087.771
  21090637.896   -12847064.475 7  -9843094.606 9  21090640.416
  20323880.147   -14054273.300 7 -10883939.286 9  20323881.400
 94  2 17 19 12 59.9980000  0  5 18 14 19 22 29
  21363559.818   -13528596.782 6 -10398598.665 9  21363562.549
  20521606.514    -5447065.091 7  -4161178.854 9  20521609.713
  22629157.584    -6550193.247 6  -4991280.575 9  22629161.709
  21098035.162   -12808189.809 7  -9812802.697 9  21098037.846
  20320222.951   -14073492.903 7 -10898915.605 9  20320224.041
 94  2 17 19 13 29.9980000  0  5 18 14 19 22 29
  21350949.568   -13594864.232 7 -10450235.593 9  21350952.615
  20533524.936    -5384433.884 7  -4112375.346 9  20533528.064
  22615276.100    -6623142.275 6  -5048123.906 9  22615279.943
  21105543.475   -12768733.868 7  -9782057.849 9  21105546.205
  20316617.264   -14092441.507 7 -10913680.751 9  20316618.365
 94  2 17 19 13 59.9980000  0  5 18 14 19 22 29
  21338372.943   -13660956.724 7 -10501736.195 9  21338375.756
  20545537.670    -5321307.047 7  -4063185.629 9  20545540.588
  22601437.920    -6695859.408 6  -5104786.559 9  22601442.033
  21113159.936   -12728710.523 7  -9750870.865 9  21113162.607
  20313060.146   -14111132.974 7 -10928245.529 9  20313061.107
 94  2 17 19 14 29.9980000  0  5 18 14 19 22 29
  21325834.287   -13726844.128 7 -10553076.999 9  21325837.088
  20557645.615    -5257678.269 7  -4013604.794 9  20557648.885
  22587644.209    -6768343.557 6  -5161267.662 9  22587648.838
  21120882.271   -12688128.522 7  -9719248.570 9  21120885.037
  20309552.279   -14129567.757 7 -10942610.291 9  20309553.486
 94  2 17 19 14 59.9980000  0  5 18 14 19 22 29
  21313337.670   -13792516.534 7 -10604250.265 9  21313340.482
  20569851.896    -5193534.492 7  -3963622.654 9  20569855.365
  22573898.811    -6840577.655 6  -5217553.916 9  22573903.275
  21128711.842   -12646984.848 7  -9687188.608 9  21128714.795
  20306095.264   -14147733.819 7 -10956765.666 9  20306096.471
 94  2 17 19 15 29.9980000  0  5 18 14 19 22 29
  21300883.904   -13857960.530 7 -10655245.559 9  21300886.518
  20582158.998    -5128860.994 7  -3913227.747 9  20582161.939
  22560203.475    -6912545.068 6  -5273632.366 9  22560207.330
  21136650.521   -12605265.250 7  -9654679.870 9  21136653.346
  20302690.748   -14165625.363 7 -10970707.129 9  20302691.967
 94  2 17 19 15 59.9980000  0  5 18 14 19 22 29
  21288473.139   -13923181.025 7 -10706066.696 9  21288475.857
  20594572.115    -5063630.543 7  -3862398.850 9  20594574.752
  22546560.545    -6984239.021 6  -5329497.708 9  22546564.635
  21144700.186   -12562964.029 7  -9621717.919 9  21144702.916
  20299338.826   -14183239.749 7 -10984432.624 9  20299340.127
 94  2 17 19 16 29.9980000  0  5 18 14 19 22 29
  21276101.545   -13988192.759 7 -10756725.164 9  21276104.240
  20607093.553    -4997828.169 7  -3811124.301 9  20607096.482
  22532969.186    -7055660.654 6  -5385150.867 9  22532973.650
  21152863.170   -12520067.559 7  -9588292.136 9  21152866.299
  20296040.576   -14200571.870 7 -10997938.179 9  20296042.018
 94  2 17 19 16 59.9980000  0  5 18 14 19 22 29
  21263765.451   -14053020.730 7 -10807240.441 9  21263768.299
  20619724.436    -4931453.709 7  -3759403.974 9  20619727.436
  22519428.154    -7126816.373 6  -5440596.844 9  22519433.264
  21161143.490   -12476554.633 7  -9554385.995 9  21161146.490
  20292798.092   -14217610.509 7 -11011215.042 9  20292799.439
 94  2 17 19 17 29.9980000  0  5 18 14 19 22 29
  21251459.756   -14117683.545 7 -10857627.026 9  21251462.451
  20632458.271    -4864537.821 7  -3707261.749 9  20632460.990
  22505934.811    -7197725.325 6  -5495850.524 9  22505939.604
  21169539.584   -12432432.808 7  -9520005.377 9  21169542.514
  20289612.217   -14234353.529 7 -11024261.550 9  20289613.389
 94  2 17 19 17 59.9980000  0  5 18 14 19 22 29
  21239185.389   -14182186.946 7 -10907889.397 9  21239188.084
  20645290.889    -4797101.173 7  -3654713.742 9  20645293.994
  22492489.811    -7268382.475 6  -5550907.981 9  22492493.772
  21178049.365   -12387713.607 7  -9485159.282 9  21178052.330
  20286483.100   -14250795.842 7 -11037073.747 9  20286484.553
 94  2 17 19 18 29.9980000  0  5 18 14 19 22 29
  21226941.514   -14246530.391 7 -10958027.132 9  21226944.150
  20658216.982    -4729176.205 7  -3601785.223 9  20658220.100
  22479089.732    -7338796.786 6  -5605776.209 9  22479093.705
  21186670.318   -12342411.399 7  -9449858.882 9  21186673.236
  20283412.053   -14266934.256 7 -11049649.138 9  20283413.541
 94  2 17 19 18 59.9980000  0  5 18 14 19 22 29
  21214730.396   -14310699.547 7 -11008029.063 9  21214732.916
  20671234.100    -4660769.605 7  -3548481.408 9  20671236.924
  22465737.732    -7408963.658 6  -5660451.618 9  22465742.139
  21195398.193   -12296545.046 7  -9414118.885 9  21195401.135
  20280399.131   -14282767.235 7 -11061986.536 9  20280400.209
 94  2 17 19 19 29.9980000  0  5 18 14 19 22 29
  21202556.904   -14374671.858 7 -11057877.606 9  21202559.518
  20684342.779    -4591883.678 7  -3494804.092 9  20684345.756
  22452434.717    -7478874.173 6  -5714927.283 9  22452439.158
  21204229.209   -12250138.754 7  -9377958.149 9  21204232.361
  20277441.818   -14298309.423 7 -11074097.343 9  20277443.084
 94  2 17 19 19 59.9980000  0  5 18 14 19 22 29
  21190424.186   -14438429.537 7 -11107558.896 9  21190427.010
  20697547.389    -4522492.690 7  -3440733.216 9  20697550.400
  22439182.897    -7548516.312 6  -5769193.823 9  22439186.881
  21213162.982   -12203191.411 7  -9341375.806 9  21213165.936
  20274539.186   -14313562.316 7 -11085982.720 9  20274540.580
 94  2 17 19 20 29.9980000  0  5 18 14 19 22 29
  21178332.357   -14501972.612 7 -11157072.960 9  21178335.182
  20710851.045    -4452581.897 7  -3386257.302 9  20710854.092
  22425981.576    -7617889.487 6  -5823250.773 9  22425985.607
  21222200.209   -12155701.336 7  -9304370.542 9  21222203.174
  20271692.498   -14328520.879 7 -11097638.746 9  20271693.857
 94  2 17 19 20 59.9980000  0  5 18 14 19 22 29
  21166278.951   -14565313.683 7 -11206429.618 9  21166281.471
  20724250.881    -4382164.625 7  -3331386.724 9  20724253.928
  22412828.248    -7687007.940 6  -5877109.223 9  22412832.232
  21231341.146   -12107663.588 7  -9266938.525 9  21231344.123
  20268897.459   -14343209.753 7 -11109084.621 9  20268898.689
 94  2 17 19 21 29.9980000  0  5 18 14 19 22 29
  21154264.506   -14628452.515 7 -11255628.675 9  21154266.932
  20737745.514    -4311247.408 7  -3276126.585 9  20737748.549
  22399724.670    -7755868.843 6  -5930766.996 9  22399728.959
  21240591.967   -12059052.830 7  -9229060.011 9  21240594.791
  20266157.240   -14357609.930 7 -11120305.535 9  20266158.377
 94  2 17 19 21 59.9980000  0  5 18 14 19 22 29
  21142282.967   -14691412.754 7 -11304688.581 9  21142285.557
  20751333.623    -4239842.331 7  -3220486.297 9  20751336.893
  22386667.896    -7824480.094 6  -5984230.231 9  22386672.186
  21249952.889   -12009859.036 7  -9190727.177 9  21249955.771
  20263472.584   -14371717.952 7 -11131298.794 9  20263474.025
 94  2 17 19 22 29.9980000  0  5 18 14 19 22 29
  21130336.428   -14754193.369 7 -11353608.520 9  21130339.088
  20765010.857    -4167969.151 7  -3164481.244 9  20765013.904
  22373657.279    -7892850.108 6  -6037505.488 9  22373660.924
  21259427.834   -11960068.345 7  -9151929.228 9  21259430.529
  20260844.936   -14385526.270 7 -11142058.521 9  20260846.225
 94  2 17 19 22 59.9980000  0  5 18 14 19 22 29
  21118425.795   -14816782.599 7 -11402379.316 9  21118428.479
  20778775.943    -4095632.306 7  -3108114.901 9  20778779.178
  22360693.865    -7960972.479 6  -6090587.767 9  22360697.791
  21269016.146   -11909681.113 7  -9112666.431 9  21269018.900
  20258277.303   -14399020.078 7 -11152573.175 9  20258278.521
 94  2 17 19 23 29.9980000  0  5 18 14 19 22 29
  21106552.428   -14879176.577 7 -11450997.990 9  21106555.229
  20792631.131    -4022823.604 7  -3051380.880 9  20792634.471
  22347779.334    -8028836.126 6  -6143468.446 9  22347783.588
  21278713.811   -11858719.428 7  -9072956.015 9  21278716.471
  20255771.271   -14412188.108 7 -11162833.967 9  20255772.479
 94  2 17 19 23 59.9980000  0  5 18 14 19 22 29
  21094720.514   -14941354.636 7 -11499448.410 9  21094723.080
  20806578.389    -3949528.796 7  -2994268.075 9  20806581.588
  22334917.342    -8096428.098 6  -6196137.444 9  22334921.455
  21288517.475   -11807200.028 7  -9032811.019 9  21288520.029
  20253324.850   -14425044.153 7 -11172851.658 9  20253326.139
 94  2 17 19 24 29.9980000  0  5 18 14 19 22 29
  21082931.232   -15003308.606 7 -11547724.217 9  21082933.775
  20820618.568    -3875748.651 7  -2936777.085 9  20820621.803
  22322106.818    -8163747.465 6  -6248594.031 9  22322110.826
  21298422.975   -11755147.890 7  -8992250.913 9  21298425.436
  20250936.357   -14437595.139 7 -11182631.635 9  20250937.529
 94  2 17 19 24 59.9980000  0  5 18 14 19 22 29
  21071183.498   -15065042.497 7 -11595828.533 9  21071186.170
  20834751.373    -3801480.587 7  -2878905.907 9  20834754.689
  22309349.490    -8230786.219 6  -6300831.948 9  22309353.580
  21308425.787   -11702580.943 7  -8951289.652 9  21308428.330
  20248602.670   -14449858.601 7 -11192187.570 9  20248604.029
 94  2 17 19 25 29.9980000  0  5 18 14 19 22 29
  21059479.896   -15126545.253 7 -11643752.741 9  21059482.428
  20848978.709    -3726714.447 7  -2820646.608 9  20848982.049
  22296645.154    -8297549.888 6  -6352855.515 9  22296649.080
  21318530.936   -11649478.690 7  -8909911.278 9  21318533.502
  20246322.795   -14461840.762 7 -11201524.309 9  20246324.236
 94  2 17 19 25 59.9980000  0  5 18 14 19 22 29
  21047818.811   -15187824.089 7 -11691502.468 9  21047821.307
  20863299.725    -3651459.068 7  -2762006.091 9  20863302.900
  22283990.225    -8364051.776 6  -6404675.114 9  22283994.631
  21328736.732   -11595846.828 7  -8868120.225 9  21328739.147
  20244094.982   -14473548.142 7 -11210646.928 9  20244096.295
 94  2 17 19 26 29.9980000  0  5 18 14 19 22 29
  21036196.881   -15248898.337 7 -11739092.774 9  21036199.424
  20877711.436    -3575724.350 7  -2702992.058 9  20877714.318
  22271382.967    -8430303.140 6  -6456299.518 9  22271387.197
  21339044.248   -11541679.279 7  -8825911.760 9  21339046.920
  20241921.631   -14484967.805 7 -11219545.358 9  20241922.955
 94  2 17 19 26 59.9980000  0  5 18 14 19 22 29
  21024614.998   -15309760.851 7 -11786518.086 9  21024617.564
  20892213.014    -3499517.767 7  -2643610.343 9  20892216.201
  22258822.545    -8496305.252 6  -6507729.686 9  22258826.729
  21349457.475   -11486956.909 7  -8783270.975 9  21349460.229
  20239804.725   -14496092.908 7 -11228214.273 9  20239805.932
 94  2 17 19 27 29.9980000  0  5 18 14 19 22 29
  21013070.561   -15370426.640 7 -11833790.106 9  21013073.197
  20906800.748    -3422860.093 7  -2583877.131 9  20906803.900
  22246307.451    -8562070.601 6  -6558975.378 9  22246311.424
  21359975.287   -11431687.818 7  -8740204.183 9  21359977.936
  20237745.373   -14506914.467 7 -11236646.650 9  20237746.697
 94  2 17 19 27 59.9980000  0  5 18 14 19 22 29
  21001562.475   -15430902.499 7 -11880914.131 9  21001565.100
  20921472.209    -3345762.501 7  -2523801.125 9  20921474.998
  22233841.022    -8627585.206 6  -6610025.674 9  22233844.666
  21370593.467   -11375888.757 7  -8696724.434 9  21370596.162
  20235745.998   -14517422.136 7 -11244834.441 9  20235747.299
 94  2 17 19 28 29.9980000  0  5 18 14 19 22 29
  20990090.256   -15491190.266 7 -11927891.589 9  20990092.951
  20936224.561    -3268235.399 7  -2463390.432 9  20936227.561
  22221420.014    -8692858.244 6  -6660887.742 9  22221423.564
  21381313.029   -11319555.047 7  -8652828.072 9  21381316.018
  20233806.092   -14527613.978 7 -11252776.128 9  20233807.393
 94  2 17 19 28 59.9980000  0  5 18 14 19 22 29
  20978656.295   -15551275.373 7 -11974711.122 9  20978658.779
  20951060.100    -3190274.960 7  -2402642.086 9  20951063.076
  22209044.725    -8757888.628 6  -6711560.734 9  22209048.744
  21392134.748   -11262688.870 7  -8608516.803 9  21392137.783
  20231928.420   -14537482.010 7 -11260465.499 9  20231929.744
 94  2 17 19 29 29.9980000  0  5 18 14 19 22 29
  20967259.756   -15611164.566 7 -12021377.999 9  20967262.275
  20965979.396    -3111875.481 7  -2341551.620 9  20965982.396
  22196714.521    -8822683.967 6  -6762050.573 9  22196718.775
  21403056.389   -11205295.225 7  -8563794.509 9  21403059.248
  20230113.990   -14547017.595 7 -11267895.823 9  20230115.385
 94  2 17 19 29 59.9980000  0  5 18 14 19 22 29
  20955904.162   -15670838.317 7 -12067876.981 9  20955906.646
  20980985.389    -3033016.721 7  -2280103.280 9  20980988.506
  22184429.514    -8887245.992 6  -6812358.607 9  22184433.768
  21414077.139   -11147380.092 7  -8518665.864 9  21414080.303
  20228361.412   -14556227.845 7 -11275072.647 9  20228362.854
 94  2 17 19 30 29.9980000  0  5 18 14 19 22 29
  20944591.397   -15730284.464 7 -12114198.620 9  20944594.010
  20996081.529    -2953686.617 7  -2218287.654 9  20996084.635
  22172186.396    -8951580.001 6  -6862488.957 9  22172190.592
  21425197.795   -11088940.332 7  -8473128.431 9  21425201.041
  20226670.287   -14565115.008 7 -11281997.713 9  20226671.752
 94  2 17 19 30 59.9980000  0  5 18 14 19 22 29
  20933323.842   -15789498.667 7 -12160339.524 9  20933326.420
  21011269.553    -2873874.752 7  -2156096.626 9  21011272.740
  22159990.303    -9015675.196 6  -6912433.229 9  22159994.135
  21436418.357   -11029977.565 7  -8427183.456 9  21436421.334
  20225040.686   -14573678.525 7 -11288670.589 9  20225042.150
 94  2 17 19 31 29.9980000  0  5 18 14 19 22 29
  20922100.107   -15848480.145 7 -12206299.077 9  20922102.604
  21026550.889    -2793570.632 7  -2093522.028 9  21026554.029
  22147841.475    -9079513.604 6  -6962177.397 9  22147845.436
  21447736.592   -10970499.237 7  -8380836.734 9  21447739.334
  20223470.803   -14581928.036 7 -11295098.781 9  20223472.092
 94  2 17 19 31 59.9980000  0  5 18 14 19 22 29
  20910923.873   -15907209.836 7 -12252062.446 9  20910926.275
  21041926.857    -2712769.117 7  -2030559.849 9  21041930.139
  22135746.443    -9143074.620 6  -7011705.417 9  22135750.439
  21459151.506   -10910513.803 7  -8334094.864 9  21459154.623
  20221959.904   -14589867.953 7 -11301285.734 9  20221961.357
 94  2 17 19 32 29.9980000  0  5 18 14 19 22 29
  20899791.936   -15965708.442 7 -12297645.746 9  20899794.338
  21057391.326    -2631502.443 7  -1967235.208 9  21057394.619
  22123703.225    -9206362.484 6  -7061020.590 9  22123707.104
  21470663.436   -10850018.851 7  -8286955.954 9  21470666.400
  20220506.584   -14597505.725 7 -11307237.250 9  20220507.920
 94  2 17 19 32 59.9980000  0  5 18 14 19 22 29
  20888703.920   -16023977.834 7 -12343050.441 9  20888706.275
  21072940.123    -2549791.025 7  -1903564.007 9  21072943.416
  22111713.287    -9269366.490 6  -7110114.566 9  22111717.389
  21482273.193   -10789009.264 7  -8239416.020 9  21482276.311
  20219111.037   -14604837.750 7 -11312950.524 9  20219112.291
 94  2 17 19 33 29.9980000  0  5 18 14 19 22 29
  20877659.482   -16082015.382 7 -12388274.479 9  20877661.955
  21088569.498    -2467660.790 7  -1839566.458 9  21088572.979
  22099778.686    -9332087.243 6  -7158987.823 9  22099782.916
  21493980.881   -10727484.188 7  -8191474.419 9  21493984.021
  20217774.795   -14611861.439 7 -11318423.543 9  20217776.154
 94  2 17 19 33 59.9980000  0  5 18 14 19 22 29
  20866656.568   -16139835.830 7 -12433329.347 9  20866659.264
  21104272.912    -2385139.236 7  -1775263.986 9  21104276.299
  22087891.896    -9394548.820 6  -7207659.131 9  22087896.174
  21505787.092   -10665441.524 7  -8143129.501 9  21505790.303
  20216497.334   -14618574.124 7 -11323654.214 9  20216498.682
 94  2 17 19 34 29.9980000  0  5 18 14 19 22 29
  20855692.381   -16197452.592 7 -12478225.510 9  20855694.889
  21120048.756    -2302237.280 7  -1710665.094 9  21120051.791
  22076052.951    -9456766.015 6  -7256140.009 9  22076057.029
  21517690.982   -10602885.640 7  -8094384.680 9  21517694.428
  20215281.014   -14624967.504 7 -11328636.077 9  20215282.197
 94  2 17 19 34 59.9980000  0  5 18 14 19 22 29
  20844770.240   -16254849.291 7 -12522950.196 9  20844772.549
  21135898.412    -2218946.130 7  -1645762.931 9  21135901.811
  22064259.467    -9518742.793 6  -7304433.539 9  22064263.311
  21529690.279   -10539829.216 7  -8045249.825 9  21529693.525
  20214127.365   -14631029.730 7 -11333359.896 9  20214128.561
 94  2 17 19 35 29.9980000  0  5 18 14 19 22 29
  20833890.732   -16312022.259 7 -12567500.548 9  20833893.135
  21151826.725    -2135241.967 7  -1580538.934 9  21151830.018
  22052509.514    -9580484.501 6  -7352543.914 9  22052513.451
  21541783.811   -10476278.424 7  -7995729.738 9  21541786.729
  20213036.904   -14636759.629 7 -11337824.764 9  20213038.240
 94  2 17 19 35 59.9980000  0  5 18 14 19 22 29
  20823054.436   -16368967.070 7 -12611873.111 9  20823057.014
  21167837.904    -2051103.007 7  -1514976.142 9  21167841.139
  22040807.607    -9641983.109 6  -7400464.854 9  22040811.393
  21553969.584   -10412243.228 7  -7945832.196 9  21553972.467
  20212009.639   -14642156.878 7 -11342030.425 9  20212010.916
 94  2 17 19 36 29.9980000  0  5 18 14 19 22 29
  20812264.396   -16425667.820 7 -12656055.495 9  20812267.104
  21183932.936    -1966523.385 7  -1449069.966 9  21183936.100
  22029153.756    -9703219.517 6  -7448181.491 9  22029157.893
  21566246.561   -10347724.662 7  -7895558.002 9  21566249.654
  20211045.818   -14647222.970 7 -11345978.033 9  20211047.107
 94  2 17 19 36 59.9980000  0  5 18 14 19 22 29
  20801522.068   -16482119.377 7 -12700043.711 9  20801524.576
  21200110.865    -1881508.392 7  -1382824.549 9  21200113.936
  22017550.928    -9764191.980 6  -7495692.445 9  22017554.854
  21578616.076   -10282724.878 7  -7844908.837 9  21578618.795
  20210143.639   -14651963.236 7 -11349671.751 9  20210144.822
 94  2 17 19 37 29.9980000  0  5 18 14 19 22 29
  20790825.912   -16538328.578 7 -12743843.074 9  20790828.303
  21216373.334    -1796048.784 7  -1316232.674 9  21216376.522
  22006001.475    -9824889.776 6  -7542989.377 9  22006004.896
  21591077.467   -10217240.308 7  -7793881.921 9  21591080.080
  20209302.076   -14656385.436 7 -11353117.634 9  20209303.318
 94  2 17 19 37 59.9980000  0  5 18 14 19 22 29
  20780177.936   -16594284.912 7 -12787445.404 9  20780180.338
  21232717.654    -1710156.619 7  -1249303.739 9  21232720.971
  21994500.990    -9885322.210 6  -7590079.532 9  21994504.342
  21603630.451   -10151272.482 7  -7742478.444 9  21603633.182
  20208522.772   -14660481.900 7 -11356309.699 9  20208524.107
 94  2 17 19 38 29.9980000  0  5 18 14 19 22 29
  20769577.264   -16649991.094 7 -12830852.809 9  20769579.643
  21249144.920    -1623833.829 7  -1182039.256 9  21249148.025
  21983047.850    -9945509.831 6  -7636978.925 9  21983051.365
  21616277.147   -10084814.063 7  -7690692.701 9  21616279.947
  20207806.576   -14664246.010 7 -11359242.782 9  20207807.877
 94  2 17 19 38 59.9980000  0  5 18 14 19 22 29
  20759022.553   -16705456.064 7 -12874072.248 9  20759024.779
  21265653.068    -1537082.527 7  -1114440.868 9  21265656.314
  21971637.811   -10005469.681 6  -7683700.828 9  21971641.232
  21629015.646   -10017872.418 7  -7638530.413 9  21629018.307
  20207150.795   -14667690.532 7 -11361926.830 9  20207152.037
 94  2 17 19 39 29.9980000  0  5 18 14 19 22 29
  20748512.654   -16760684.745 7 -12917107.578 9  20748515.021
  21282241.818    -1449905.799 7  -1046510.982 9  21282244.900
  21960270.295   -10065204.114 6  -7730247.088 9  21960273.916
  21641846.631    -9950447.704 7  -7585991.704 9  21641849.150
  20206554.982   -14670821.472 7 -11364366.528 9  20206556.213
 94  2 17 19 39 59.9980000  0  5 18 14 19 22 29
  20738048.732   -16815674.484 7 -12959956.711 9  20738050.982
  21298907.287    -1362328.739 7   -978269.145 9  21298910.346
  21948946.076   -10124716.007 6  -7776619.932 9  21948949.346
  21654768.975    -9882540.442 7  -7533076.983 9  21654771.588
  20206020.967   -14673629.419 7 -11366554.536 9  20206022.127
 94  2 17 19 40 29.9980000  0  5 18 14 19 22 29
  20727627.561   -16870437.112 7 -13002628.872 9  20727630.021
  21315646.529    -1274364.831 7   -909725.867 9  21315649.857
  21937666.756   -10183985.553 6  -7822803.930 9  21937670.271
  21667780.850    -9814161.859 7  -7479795.004 9  21667783.674
  20205547.264   -14676118.717 7 -11368494.251 9  20205548.330
 94  2 17 19 40 59.9980000  0  5 18 14 19 22 29
  20717254.357   -16924950.015 7 -13045106.447 9  20717256.725
  21332456.920    -1186027.718 7   -840891.791 9  21332460.143
  21926439.936   -10242985.160 6  -7868777.584 9  21926443.334
  21680881.693    -9745316.692 7  -7426149.456 9  21680884.553
  20205134.818   -14678286.113 7 -11370183.128 9  20205136.049
 94  2 17 19 41 29.9980000  0  5 18 14 19 22 29
  20706930.287   -16979204.000 7 -13087382.277 9  20706932.607
  21349338.662    -1097314.893 7   -771764.951 9  21349341.533
  21915265.787   -10301704.220 6  -7914532.635 9  21915269.139
  21694073.561    -9675992.701 7  -7372130.795 9  21694076.303
  20204791.084   -14680093.283 7 -11371591.311 9  20204792.033
 94  2 17 19 41 59.9980000  0  5 18 14 19 22 29
  20696656.592   -17033191.011 7 -13129450.073 9  20696659.158
  21366291.982    -1008222.434 7   -702342.285 9  21366294.795
  21904147.771   -10360129.866 6  -7960059.044 9  21904150.912
  21707355.365    -9606196.847 7  -7317744.447 9  21707358.213
  20204518.287   -14681525.603 7 -11372707.401 9  20204519.459
 94  2 17 19 42 29.9980000  0  5 18 14 19 22 29
  20686433.740   -17086913.401 7 -13171311.671 9  20686436.236
  21383317.709     -918751.062 7   -632624.372 9  21383321.236
  21893082.459   -10418277.653 6  -8005368.950 9  21893085.986
  21720723.959    -9535942.444 7  -7263000.795 9  21720727.053
  20204312.686   -14682605.133 7 -11373548.590 9  20204314.080
 94  2 17 19 42 59.9980000  0  5 18 14 19 22 29
  20676262.022   -17140364.424 7 -13212961.822 9  20676264.482
  21400415.725     -828901.791 7   -562611.988 9  21400418.900
  21882065.506   -10476170.072 6  -8050479.862 9  21882069.197
  21734180.865    -9465226.331 7  -7207897.366 9  21734184.076
  20204174.803   -14683330.633 7 -11374113.910 9  20204176.068
 94  2 17 19 43 29.9980000  0  5 18 14 19 22 29
  20666140.881   -17193551.846 7 -13254406.565 9  20666143.436
  21417586.021     -738670.183 7   -492301.683 9  21417589.197
  21871097.061   -10533810.680 6  -8095394.560 9  21871100.811
  21747724.389    -9394052.289 7  -7152437.089 9  21747727.611
  20204105.397   -14683695.996 7 -11374398.604 9  20204106.697
 94  2 17 19 43 59.9980000  0  5 18 14 19 22 29
  20656072.748   -17246459.341 7 -13295633.180 9  20656075.361
  21434827.225     -648067.628 7   -421702.336 9  21434830.541
  21860176.553   -10591199.335 6  -8140112.939 9  21860180.268
  21761353.982    -9322430.285 7  -7096627.761 9  21761357.475
  20204099.678   -14683725.168 7 -11374421.335 9  20204101.201
 94  2 17 19 44 29.9980000  0  5 18 14 19 22 29
  20646061.021   -17299073.497 7 -13336631.212 9  20646063.354
  21452137.381     -557102.742 7   -350820.640 9  21452140.650
  21849301.146   -10648349.056 6  -8184645.140 9  21849305.189
  21775070.561    -9250351.669 7  -7040462.626 9  21775073.818
  20204158.842   -14683414.348 7 -11374179.132 9  20204160.201
 94  2 17 19 44 59.9980000  0  5 18 14 19 22 29
  20636104.021   -17351397.617 7 -13377403.251 9  20636106.506
  21469517.514     -465768.539 7   -279651.179 9  21469520.889
  21838473.412   -10705248.426 6  -8228982.261 9  21838477.256
  21788874.686    -9177809.138 7  -6983935.999 9  21788877.686
  20204287.357   -14682739.068 7 -11373652.932 9  20204288.717
 94  2 17 19 45 29.9980000  0  5 18 14 19 22 29
  20626197.865   -17403453.995 7 -13417966.653 9  20626200.326
  21486968.334     -374064.312 7   -208193.387 9  21486971.346
  21827692.537   -10761903.799 7  -8273129.261 9  21827695.947
  21802766.006    -9104808.482 7  -6927052.377 9  21802769.029
  20204482.193   -14681713.819 7 -11372854.030 9  20204483.529
 94  2 17 19 45 59.9980000  0  5 18 14 19 22 29
  20616342.420   -17455245.422 7 -13458323.594 9  20616344.975
  21504491.131     -281981.088 6   -136440.268 9  21504494.436
  21816955.162   -10818329.369 7  -8317097.199 9  21816958.736
  21816747.959    -9031335.127 7  -6869800.428 9  21816751.123
  20204741.975   -14680349.110 7 -11371790.609 9  20204743.369
 94  2 17 19 46 29.9980000  0  5 18 14 19 22 29
  20606533.904   -17506788.078 7 -13498486.689 9  20606536.248
  21522089.889     -189498.424 6    -64375.903 9  21522093.334
  21806261.498   -10874523.493 6  -8360884.790 9  21806265.037
  21830819.209    -8957387.853 7  -6812179.202 9  21830822.314
  20205068.397   -14678634.432 7 -11370454.494 9  20205069.838
 94  2 17 19 46 59.9980000  0  5 18 14 19 22 29
  20596770.615   -17558094.511 7 -13538465.720 9  20596773.135
  21539766.772      -96606.097 6      8007.682 9  21539770.686
  21795613.029   -10930480.000 6  -8404487.226 9  21795616.439
  21844980.311    -8882974.563 7  -6754194.842 9  21844983.357
  20205459.139   -14676580.487 7 -11368854.016 9  20205460.604
 94  2 17 19 47 29.9980000  0  5 18 14 19 22 29
  20587055.045   -17609152.237 7 -13578250.946 9  20587057.553
  21557520.623       -3309.350 6     80706.404 9  21557524.385
  21785010.146   -10986201.351 7  -8447906.417 9  21785013.686
  21859225.162    -8808114.347 7  -6695862.221 9  21859228.350
  20205912.326   -14674199.631 7 -11366998.802 9  20205913.791
 94  2 17 19 47 59.9980000  0  5 18 14 19 22 29
  20577390.842   -17659937.601 7 -13617823.943 9  20577393.232
  21575349.279       90382.749 6    153713.177 9  21575353.135
  21774454.771   -11041668.554 6  -8491127.575 9  21774458.111
  21873553.748    -8732818.263 7  -6637189.977 9  21873557.006
  20206431.076   -14671473.350 7 -11364874.423 9  20206432.389
 94  2 17 19 48 29.9980000  0  5 18 14 19 22 29
  20567778.045   -17710452.135 7 -13657185.899 9  20567780.412
  21593250.764      184454.039 6    227015.444 9  21593254.607
  21763950.397   -11096870.395 7  -8534141.957 9  21763953.561
  21887960.615    -8657109.777 7  -6578196.390 9  21887963.709
  20207018.568   -14668386.856 7 -11362469.359 9  20207019.869
 94  2 17 19 48 59.9980000  0  5 18 14 19 22 29
  20558219.373   -17760684.584 7 -13696328.053 9  20558221.600
  21611220.279      278882.880 6    300596.309 9  21611224.135
  21753497.311   -11151801.945 7  -8576945.714 9  21753500.545
  21902445.537    -8580990.442 7  -6518882.669 9  21902448.900
  20207675.131   -14664936.018 7 -11359780.392 9  20207676.525
 94  2 17 19 49 29.9980000  0  7 18 14 19 27 28 22 29
  20548714.748   -17810631.433 7 -13735247.654 9  20548717.139
  21629254.209      373651.553 6    374441.986 9  21629257.572
  21743094.529   -11206468.487 7  -8619542.983 9  21743097.857
  24111532.021      -13233.61715
  23972851.389      -10449.95215
  21917009.092    -8504457.044 7  -6459246.308 9  21917012.455
  20208401.990   -14661116.533 7 -11356804.176 9  20208403.326
 94  2 17 19 49 59.9980000  0  7 18 14 19 27 28 22 29
  20539261.506   -17860306.819 7 -13773955.716 9  20539263.814
  21647348.147      468736.996 6    448534.496 9  21647351.674
  21732740.357   -11260880.058 7  -8661941.569 9  21732743.803
  24096435.475      -92559.867 5
  23960943.201      -73030.243 5
  21931652.834    -8427504.271 7  -6399283.169 9  21931656.068
  20209199.443   -14656926.527 7 -11353539.239 9  20209200.721
 94  2 17 19 50 29.9980000  0  7 18 14 19 27 28 22 29
  20529862.396   -17909700.300 7 -13812444.118 9  20529864.658
  21665505.795      564154.458 6    522885.727 9  21665509.146
  21722433.475   -11315040.843 6  -8704144.732 9  21722436.826
  24081368.756     -171739.072 5    -39060.96219  24081374.334
  23949081.131     -135366.347 5     -4847.02319  23949085.549
  21946378.186    -8350124.819 7  -6338987.549 9  21946381.385
  20210067.436   -14652364.811 7 -11349984.659 9  20210068.924
 94  2 17 19 50 59.9980000  0  7 18 14 19 27 28 22 29
  20520517.287   -17958809.343 7 -13850710.889 9  20520519.713
  21683725.889      659901.932 6    597494.103 9  21683729.393
  21712172.639   -11368963.091 7  -8746162.038 9  21712175.838
  24066326.811     -250781.396 5   -100652.314 9  24066333.010
  23937269.162     -197441.154 5    -53216.894 9  23937274.119
  21961184.443    -8272316.878 7  -6278358.045 9  21961187.502
  20211003.029   -14647447.245 7 -11346152.805 9  20211004.459
 94  2 17 19 51 29.9980000  0  7 18 14 19 27 28 22 29
  20511225.318   -18007638.498 7 -13888759.562 9  20511227.709
  21702009.225      755982.162 6    672361.774 9  21702012.822
  21701957.678   -11422643.315 7  -8787990.757 9  21701960.936
  24051312.342     -329681.984 5   -162133.182 9  24051317.639
  23925506.295     -259252.932 5   -101381.803 9  23925511.475
  21976071.225    -8194086.633 7  -6217399.482 9  21976074.424
  20212008.826   -14642162.909 7 -11342035.140 9  20212010.197
 94  2 17 19 51 59.9980000  0  7 18 14 19 27 28 22 29
  20501987.740   -18056181.499 7 -13926585.260 9  20501990.189
  21720358.920      852409.127 6    747499.627 9  21720362.588
  21691788.928   -11476079.146 6  -8829629.030 9  21691792.139
  24036322.326     -408456.711 5   -223515.967 9  24036327.365
  23913791.357     -320812.624 5   -149350.295 9  23913796.596
  21991036.943    -8115442.017 7  -6156118.044 9  21991040.600
  20213084.928   -14636508.241 7 -11337628.914 9  20213086.416
 94  2 17 19 52 29.9980000  0  7 18 14 19 27 28 22 29
  20492805.365   -18104435.513 7 -13964185.773 9  20492807.955
  21738776.154      949192.222 6    822914.979 9  21738779.658
  21681667.029   -11529270.599 7  -8871076.897 9  21681670.264
  24021354.178     -487111.739 5   -284805.508 9  24021360.740
  23902124.701     -382122.755 5   -197124.323 9  23902129.623
  22006080.029    -8036388.995 6  -6094518.359 9  22006083.475
  20214228.756   -14630495.914 7 -11332943.985 9  20214230.338
 94  2 17 19 52 59.9980000  0  7 18 14 19 27 28 22 29
  20483676.639   -18152406.549 7 -14001565.794 9  20483679.076
  21757255.373     1046302.703 6    898585.450 9  21757258.924
  21671592.561   -11582212.184 7  -8912330.066 9  21671595.666
  24006410.982     -565636.092 5   -345993.142 9  24006415.611
  23890503.943     -443187.569 5   -244707.231 9  23890508.432
  22021202.225    -7956921.949 7  -6032596.064 9  22021205.424
  20215439.381   -14624134.209 7 -11327986.816 9  20215440.799
 94  2 17 19 53 29.9980000  0  7 18 14 19 27 28 22 29
  20474602.967   -18200090.792 7 -14038722.335 9  20474605.451
  21775795.443     1143730.526 6    974503.187 9  21775799.287
  21661566.139   -11634898.569 6  -8953384.372 9  21661569.654
  23991493.857     -644030.897 5   -407079.831 9  23991498.475
  23878931.373     -504004.419 5   -292096.913 9  23878935.510
  22036400.553    -7877055.710 7  -5970362.698 9  22036403.857
  20216716.772   -14617423.436 7 -11322757.651 9  20216718.037
 94  2 17 19 53 59.9980000  0  7 18 14 19 27 28 22 29
  20465584.740   -18247480.446 7 -14075649.325 9  20465587.096
  21794396.678     1241479.981 6   1050671.540 9  21794400.486
  21651587.482   -11687340.011 7  -8994247.826 9  21651590.541
  23976600.318     -722294.884 5   -468064.588 9  23976606.049
  23867406.709     -564566.795 5   -339288.339 9  23867411.385
  22051674.498    -7796792.548 7  -5907820.039 9  22051677.814
  20218056.514   -14610382.723 7 -11317271.388 9  20218057.943
 94  2 17 19 54 29.9980000  0  7 18 14 19 27 28 22 29
  20456621.920   -18294580.821 7 -14112350.909 9  20456624.311
  21813055.217     1339529.455 6   1127073.696 9  21813058.744
  21641656.748   -11739527.065 7  -9034913.048 9  21641659.971
  23961735.740     -800404.351 4   -528928.946 9  23961740.943
  23855932.467     -624865.237 5   -386274.110 9  23855937.213
  22067022.342    -7716136.930 7  -5844971.559 9  22067025.576
  20219459.709   -14603007.797 7 -11311524.704 9  20219461.162
 94  2 17 19 54 59.9980000  0  7 18 14 19 27 28 22 29
  20447714.561   -18341389.502 7 -14148825.207 9  20447716.998
  21831769.920     1437876.154 6   1203707.436 9  21831773.084
  21631773.561   -11791463.943 7  -9075383.323 9  21631776.912
  23946902.311     -878352.548 5   -589667.692 9  23946907.385
  23844509.889     -684887.660 5   -433044.807 9  23844514.389
  22082445.717    -7635089.915 7  -5781818.100 9  22082448.857
  20220930.904   -14595277.381 7 -11305501.015 9  20220932.217
 94  2 17 19 55 29.9980000  0  7 18 14 19 27 28 22 29
  20438862.029   -18387908.676 7 -14185073.914 9  20438864.361
  21850545.592     1536543.726 6   1280591.212 9  21850549.143
  21621935.842   -11843159.467 7  -9115665.535 9  21621939.217
  23932099.982     -956139.995 5   -650281.108 9  23932105.174
  23833137.873     -744648.827 5   -479611.929 9  23833142.959
  22097941.334    -7553657.963 7  -5718364.678 9  22097944.416
  20222471.959   -14587179.172 7 -11299190.732 9  20222473.459
 94  2 17 19 55 59.9980000  0  7 18 14 19 27 28 22 29
  20430066.053   -18434133.710 7 -14221093.423 9  20430068.314
  21869383.818     1635539.669 6   1357730.863 9  21869387.404
  21612144.162   -11894614.802 7  -9155760.582 9  21612147.736
  23917329.811    -1033767.540 5   -710769.985 9  23917335.998
  23821813.717     -804155.504 5   -525980.752 9  23821818.674
  22113513.467    -7471826.176 7  -5654599.697 9  22113516.760
  20224086.076   -14578695.688 7 -11292580.233 9  20224087.623
 94  2 17 19 56 29.9980000  0  7 18 14 19 27 28 22 29
  20421327.373   -18480055.198 7 -14256876.400 9  20421329.693
  21888284.467     1734862.883 6   1435125.531 9  21888288.170
  21602398.514   -11945829.272 7  -9195667.934 9  21602401.889
  23902585.068    -1111244.120 5   -771141.246 9  23902590.260
  23810539.920     -863401.014 5   -572146.055 9  23810544.607
  22129161.240    -7389596.149 7  -5590524.395 9  22129164.275
  20225777.256   -14569809.250 7 -11285655.745 9  20225778.885
 94  2 17 19 56 59.9980000  0  7 18 14 19 27 28 22 29
  20412648.936   -18525661.304 7 -14292413.624 9  20412651.209
  21907249.561     1834525.023 6   1512784.289 9  21907253.498
  21592695.873   -11996814.706 6  -9235396.819 9  21592699.412
  23887865.646    -1188593.016 5   -831412.981 9  23887871.646
  23799318.084     -922375.976 5   -618100.529 9  23799323.170
  22144883.904    -7306971.415 6  -5526141.518 9  22144887.068
  20227544.600   -14560521.771 7 -11278418.759 9  20227546.064
 94  2 17 19 57 29.9980000  0  7 18 14 19 27 28 22 29
  20404030.897   -18570948.244 7 -14327702.158 9  20404033.334
  21926278.225     1934520.681 6   1590702.938 9  21926281.846
  21583040.006   -12047557.100 7  -9274936.319 9  21583043.451
  23873167.959    -1265830.039 5   -891597.617 9  23873173.420
  23788147.436     -981074.443 5   -663839.543 9  23788152.240
  22160680.756    -7223959.856 6  -5461457.224 9  22160684.178
  20229387.397   -14550839.071 7 -11270873.809 9  20229388.826
 94  2 17 19 57 59.9980000  0  7 18 14 19 27 28 22 29
  20395476.107   -18615904.064 7 -14362732.668 9  20395478.475
  21945368.600     2034840.523 6   1668874.195 9  21945372.174
  21573432.850   -12098044.570 7  -9314277.163 9  21573436.307
  23858490.982    -1342958.749 5   -951697.799 9  23858495.600
  23777036.045    -1039463.509 5   -709337.437 9  23777041.447
  22176549.225    -7140569.682 6  -5396477.904 9  22176552.787
  20231304.084   -14540764.491 7 -11263023.504 9  20231305.561
 94  2 17 19 58 29.9980000  0  7 18 14 19 27 28 22 29
  20386983.943   -18660531.100 7 -14397506.982 9  20386986.182
  21964518.154     2135471.853 6   1747288.167 9  21964521.998
  21563873.717   -12148275.403 6  -9353418.044 9  21563876.975
  23843834.982    -1419975.045 5  -1011710.410 9  23843841.686
  23765987.404    -1097524.703 5   -754579.854 9  23765992.443
  22192489.865    -7056802.594 6  -5331204.889 9  22192493.147
  20233293.482   -14530312.226 7 -11254878.901 9  20233294.924
 94  2 17 19 58 59.9980000  0  7 18 14 19 27 28 22 29
  20378553.271   -18704833.246 7 -14432028.129 9  20378555.545
  21983723.639     2236396.525 6   1825930.725 9  21983727.342
  21554367.615   -12198232.389 6  -9392345.521 9  21554371.201
  23829203.342    -1496867.970 5  -1071626.897 9  23829207.900
  23755000.686    -1155260.054 5   -799568.367 9  23755006.522
  22208503.787    -6972647.716 6  -5265629.694 9  22208507.104
  20235352.631   -14519491.736 7 -11246447.360 9  20235354.166
 94  2 17 19 59 29.9980000  0  7 18 14 19 27 28 22 29
  20370185.607   -18748806.644 7 -14466293.105 9  20370187.939
  22002983.490     2337608.933 6   1904797.485 9  22002987.182
  21544915.318   -12247904.970 7  -9431051.390 9  21544918.752
  23814599.514    -1573612.964 5  -1131428.127 9  23814604.143
  23744074.506    -1212677.519 5   -844309.149 9  23744079.662
  22224594.303    -6888091.001 6  -5199741.385 9  22224597.795
  20237480.928   -14508307.340 7 -11237732.254 9  20237482.486
 94  2 17 19 59 59.9980000  0  7 18 14 19 27 28 22 29
  20361880.092   -18792451.640 7 -14500302.183 9  20361882.447
  22022296.834     2439102.064 6   1983883.002 9  22022300.373
  21535513.576   -12297309.893 7  -9469548.707 9  21535516.822
  23800024.943    -1650201.475 5  -1191107.413 9  23800028.998
  23733207.686    -1269784.114 5   -888807.687 9  23733212.736
  22240762.498    -6803129.012 6  -5133537.281 9  22240765.955
  20239676.256   -14496770.788 7 -11228742.741 9  20239677.732
 94  2 17 20  0 29.9980000  0  7 18 14 19 27 28 22 29
  20353637.107   -18835769.453 7 -14534056.304 9  20353639.381
  22041662.115     2540864.130 6   2063178.069 9  22041665.865
  21526162.920   -12346450.066 7  -9507839.711 9  21526166.248
  23785482.928    -1726626.272 5  -1250659.097 9  23785486.959
  23722396.146    -1326597.398 5   -933077.656 9  23722400.658
  22257008.740    -6717753.554 6  -5067011.000 9  22257012.303
  20241939.584   -14484876.217 7 -11219474.254 9  20241941.189
 94  2 17 20  0 59.9980000  0  7 18 14 19 27 28 22 29
  20345456.193   -18878760.412 7 -14567555.733 9  20345458.385
  22061078.928     2642902.267 6   2142688.260 9  22061082.783
  21516863.146   -12395318.266 7  -9545918.791 9  21516866.522
  23770970.381    -1802882.869 5  -1310079.762 9  23770975.818
  23711637.904    -1383128.915 5   -977128.086 9  23711642.393
  22273330.779    -6631982.199 6  -5000176.229 9  22273333.803
  20244274.037   -14472609.650 7 -11209915.901 9  20244275.455
 94  2 17 20  1 29.9980000  0  7 18 14 19 27 28 22 29
  20337337.818   -18921422.399 7 -14600798.819 9  20337340.057
  22080552.670     2745237.022 6   2222429.578 9  22080556.631
  21507614.795   -12443918.574 7  -9583789.133 9  21507617.854
  23756489.068    -1878975.421 5  -1369372.627 9  23756494.389
  23700936.646    -1439363.107 5  -1020946.837 9  23700942.553
  22289723.084    -6545839.725 6  -4933052.282 9  22289726.154
  20246681.350   -14459958.688 7 -11200058.019 9  20246682.838
 94  2 17 20  1 59.9980000  0  7 18 14 19 27 28 22 29
  20329282.342   -18963755.052 7 -14633785.274 9  20329284.768
  22100082.576     2847869.083 6   2302402.566 9  22100086.596
  21498418.326   -12492246.880 7  -9621447.517 9  21498421.490
  23742039.748    -1954914.449 5  -1428545.774 9  23742044.998
  23690297.342    -1495273.930 5  -1064513.604 9  23690302.369
  22306183.271    -6459341.632 6  -4865651.237 9  22306186.764
  20249164.615   -14446908.048 7 -11189888.704 9  20249166.033
 94  2 17 20  2 29.9980000  0  7 18 14 19 27 28 22 29
  20321287.803   -19005766.773 7 -14666521.649 9  20321290.111
  22119670.881     2950803.449 6   2382611.117 9  22119674.900
  21489274.209   -12540300.709 7  -9658892.024 9  21489277.209
  23727617.217    -2030703.610 5  -1487602.207 9  23727622.830
  23679720.256    -1550858.461 5  -1107826.140 9  23679724.979
  22322709.357    -6372494.596 6  -4797978.286 9  22322713.002
  20251725.678   -14433450.857 7 -11179402.588 9  20251727.037
 94  2 17 20  2 59.9980000  0  7 18 14 19 27 28 22 29
  20313354.131   -19047456.674 7 -14699007.255 9  20313356.357
  22139317.850     3054049.332 6   2463062.401 9  22139321.787
  21480179.256   -12588094.135 7  -9696133.621 9  21480182.514
  23713221.928    -2106353.437 5  -1546550.035 9  23713225.455
  23669206.498    -1606107.183 5  -1150876.984 9  23669211.619
  22339302.576    -6285296.287 6  -4730031.621 9  22339306.068
  20254362.022   -14419594.785 7 -11168605.650 9  20254363.287
 94  2 17 20  3 29.9980000  0  7 18 14 19 27 28 22 29
  20305484.803   -19088810.500 7 -14731230.990 9  20305486.982
  22159025.061     3157609.586 6   2543758.655 9  22159028.775
  21471129.725   -12635649.598 7  -9733189.791 9  21471132.912
  23698849.943    -2181873.337 5  -1605396.641 9  23698854.666
  23658759.217    -1661011.400 5  -1193659.404 9  23658764.057
  22355966.428    -6197730.218 6  -4661798.384 9  22355969.721
  20257072.850   -14405352.078 7 -11157507.439 9  20257074.268
 94  2 17 20  3 59.9980000  0  7 18 14 19 27 28 22 29
  20297679.061   -19129828.924 7 -14763193.377 9  20297681.158
  22178788.646     3261471.848 6   2624690.236 9  22178792.607
  21462120.529   -12682991.295 7  -9770079.393 9  21462123.541
  23684503.272    -2257266.214 5  -1664144.235 9  23684506.635
  23648370.990    -1715596.091 5  -1236192.827 9  23648375.455
  22372703.740    -6109774.704 6  -4593261.698 9  22372707.139
  20259856.100   -14390724.221 7 -11146109.114 9  20259857.576
 94  2 17 20  4 29.9980000  0  7 18 14 19 27 28 22 29
  20289939.006   -19170506.045 7 -14794889.812 9  20289940.986
  22198609.725     3365630.170 6   2705852.514 9  22198613.580
  21453151.584   -12730124.883 7  -9806806.823 9  21453154.736
  23670182.303    -2332523.682 5  -1722786.323 9  23670188.959
  23638041.482    -1769878.823 5  -1278490.986 9  23638046.018
  22389516.467    -6021422.564 6  -4524415.963 9  22389520.264
  20262712.365   -14375715.441 7 -11134413.965 9  20262713.830
 94  2 17 20  4 59.9980000  0  7 18 14 19 27 28 22 29
  20282265.928   -19210827.437 7 -14826309.051 9  20282268.037
  22218483.693     3470068.794 6   2787233.210 9  22218487.584
  21444223.404   -12777044.427 7  -9843367.468 9  21444226.650
  23655887.568    -2407637.728 5  -1781316.696 9  23655892.619
  23627771.693    -1823852.614 5  -1320548.400 9  23627776.018
  22406401.092    -5932695.121 6  -4455277.790 9  22406404.467
  20265640.967   -14360325.276 7 -11122421.638 9  20265642.537
 94  2 17 20  5 29.9980000  0  7 18 14 19 27 28 22 29
  20274661.256   -19250790.077 8 -14857448.754 9  20274663.365
  22238409.467     3574781.245 6   2868827.282 9  22238413.522
  21435339.967   -12823724.410 7  -9879741.444 9  21435343.002
  23641625.842    -2482588.228 5  -1839719.602 9  23641630.494
  23617560.014    -1877510.222 5  -1362359.450 9  23617564.760
  22423354.076    -5843605.544 6  -4385857.413 9  22423357.064
  20268644.693   -14344539.592 7 -11110121.107 9  20268646.287
 94  2 17 20  5 59.9980000  0  7 18 14 19 27 28 22 29
  20267122.459   -19290406.543 8 -14888318.708 9  20267124.627
  22258385.193     3679751.564 6   2950622.272 9  22258389.764
  21426508.443   -12870134.927 7  -9915905.442 9  21426511.350
  23627397.928    -2557359.739 5  -1897983.000 9  23627403.178
  23607411.584    -1930839.757 5  -1403914.840 9  23607416.072
  22440373.654    -5754169.320 6  -4316166.915 9  22440376.689
  20271728.451   -14328335.741 7 -11097494.729 9  20271730.033
 94  2 17 20  6 29.9980000  0  7 18 14 19 27 28 22 29
  20259648.209   -19329684.578 8 -14918924.948 9  20259650.307
  22278407.467     3784966.427 6   3032607.832 9  22278411.252
  21417731.264   -12916259.427 7  -9951846.569 9  21417734.252
  23613201.404    -2631955.896 5  -1956109.813 9  23613205.307
  23597331.732    -1983813.373 5  -1445192.906 9  23597336.256
  22457453.920    -5664410.401 6  -4246224.976 9  22457457.447
  20274891.068   -14311714.931 7 -11084543.453 9  20274892.768
 94  2 17 20  6 59.9980000  0  7 18 14 19 27 28 22 29
  20252237.826   -19368625.265 8 -14949268.324 9  20252239.865
  22298477.100     3890434.952 6   3114791.047 9  22298480.768
  21409009.889   -12962092.306 7  -9987560.460 9  21409012.900
  23599038.287    -2706384.444 5  -2014105.969 9  23599043.303
  23587320.482    -2036420.950 5  -1486185.743 9  23587324.936
  22474594.357    -5574337.316 6  -4176038.236 9  22474597.287
  20278135.318   -14294665.024 7 -11071257.812 9  20278137.053
 94  2 17 20  7 29.9980000  0  7 18 14 19 27 28 22 29
  20244889.436   -19407240.472 8 -14979358.076 9  20244891.533
  22318596.709     3996163.764 6   3197177.075 9  22318600.295
  21400338.951   -13007656.843 7 -10023065.261 9  21400341.998
  23584901.045    -2780674.969 5  -2071994.599 9  23584906.787
  23577379.045    -2088662.160 5  -1526893.099 9  23577383.697
  22491796.131    -5483943.477 6  -4105601.547 9  22491799.307
  20281460.912   -14277189.416 7 -11057640.458 9  20281462.623
 94  2 17 20  7 59.9980000  0  7 18 14 19 27 28 22 29
  20237602.928   -19445533.247 8 -15009196.589 9  20237605.096
  22338764.311     4102145.432 6   3279760.136 9  22338767.943
  21391715.545   -13052973.766 7 -10058377.116 9  21391718.756
  23570785.092    -2854853.782 5  -2129796.184 9  23570789.721
  23567508.186    -2140534.960 5  -1567313.375 9  23567512.498
  22509057.631    -5393233.074 6  -4034918.183 9  22509060.795
  20284865.068   -14259300.798 7 -11043701.277 9  20284866.604
 94  2 17 20  8 29.9980000  0  7 18 14 19 27 28 22 29
  20230380.639   -19483485.159 8 -15038769.489 9  20230382.865
  22358978.889     4208373.059 6   3362534.865 9  22358982.240
  21383135.834   -13098061.526 7 -10093510.407 9  21383138.822
  23556688.373    -2928938.451 5  -2187524.368 9  23556691.420
  23557704.514    -2192050.387 5  -1607455.177 9  23557708.346
  22526378.889    -5302211.448 6  -3963992.322 9  22526382.135
  20288343.842   -14241019.243 7 -11029455.914 9  20288345.459
 94  2 17 20  8 59.9980000  0  8 18 14 19 27 28 31 22 29
  20223225.615   -19521084.814 8 -15068067.911 9  20223227.842
  22379240.600     4314848.001 6   3445502.295 9  22379244.455
  21374598.818   -13142923.180 7 -10128467.520 9  21374602.123
  23542609.084    -3002926.462 5  -2245177.244 9  23542612.822
  23547969.615    -2243211.968 5  -1647321.252 9  23547973.295
  23781535.537      -30102.336 5
  22543759.850    -5210872.397 6  -3892819.116 9  22543763.061
  20291897.764   -14222344.307 7 -11014904.025 9  20291899.439
 94  2 17 20  9 29.9980000  0  8 18 14 19 27 28 31 22 29
  20216138.303   -19558329.681 8 -15097089.877 9  20216140.506
  22399546.670     4421557.226 6   3528652.268 9  22399551.088
  21366104.490   -13187558.719 7 -10163248.427 9  21366107.678
  23528549.889    -3076807.026 5  -2302746.387 9  23528554.670
  23538302.287    -2294014.185 5  -1686907.317 9  23538306.189
  23765920.240     -112159.839 5
  22561204.920    -5119199.073 6  -3821385.440 9  22561208.541
  20295526.701   -14203274.245 7 -11000044.243 9  20295528.365
 94  2 17 20  9 59.9980000  0  8 18 14 19 27 28 31 22 29
  20209119.607   -19595212.037 8 -15125829.371 9  20209121.705
  22419896.631     4528495.380 6   3611980.630 9  22419900.463
  21357659.490   -13231937.730 7 -10197829.448 9  21357662.689
  23514517.365    -3150545.024 5  -2360204.454 9  23514521.818
  23528702.998    -2344455.757 5  -1726212.372 9  23528707.111
  23750318.936     -194138.624 5    -46838.14819  23750324.643
  22578715.123    -5027183.277 6  -3749684.905 9  22578718.522
  20299234.217   -14183791.199 7 -10984862.658 9  20299235.811
 94  2 17 20 10 29.9980000  0  8 18 14 19 27 28 31 22 29
  20202171.725   -19631724.004 8 -15154280.250 9  20202173.717
  22440290.834     4635667.814 6   3695491.551 9  22440294.455
  21349263.373   -13276056.810 7 -10232207.936 9  21349266.643
  23500516.068    -3224121.260 5  -2417536.465 9  23500520.791
  23519173.264    -2394533.649 5  -1765234.038 9  23519177.693
  23734733.467     -276043.540 5   -110660.089 9  23734739.209
  22596290.568    -4934823.325 6  -3677716.191 9  22596293.873
  20303020.912   -14163890.853 7 -10969355.905 9  20303022.646
 94  2 17 20 10 59.9980000  0  8 18 14 19 27 28 31 22 29
  20195291.428   -19667880.224 8 -15182453.925 9  20195293.467
  22460730.303     4743080.765 6   3779189.895 9  22460733.783
  21340917.029   -13319918.805 7 -10266386.097 9  21340920.264
  23486548.451    -3297524.906 5  -2474734.025 9  23486553.385
  23509713.146    -2444247.409 5  -1803971.945 9  23509717.189
  23719164.732     -357859.187 5   -174412.435 9  23719170.299
  22613931.576    -4842118.604 6  -3605478.833 9  22613935.232
  20306888.475   -14143567.023 7 -10953519.163 9  20306890.256
 94  2 17 20 11 29.9980000  0  8 18 14 19 27 28 31 22 29
  20188479.115   -19703679.536 8 -15210349.487 9  20188481.272
  22481216.607     4850737.522 6   3863078.200 9  22481220.521
  21332621.701   -13363512.612 7 -10300355.283 9  21332624.654
  23472612.568    -3370754.828 5  -2531796.195 9  23472617.420
  23500321.639    -2493599.521 6  -1842428.061 9  23500325.154
  23703614.107     -439577.746 5   -238089.092 9  23703619.041
  22631637.147    -4749074.531 6  -3532977.043 9  22631640.744
  20310834.553   -14122830.758 7 -10937361.049 9  20310836.346
 94  2 17 20 11 59.9980000  0  8 18 14 19 27 28 31 22 29
  20181737.021   -19739109.618 8 -15237957.338 9  20181738.955
  22501748.545     4958630.310 6   3947150.439 9  22501752.635
  21324377.592   -13406835.644 7 -10334113.470 9  21324380.756
  23458710.584    -3443810.955 5  -2588722.939 9  23458714.311
  23490999.201    -2542588.224 6  -1880600.999 9  23491003.303
  23688085.514     -521177.372 5   -301673.044 9  23688091.479
  22649403.576    -4655711.573 6  -3460226.771 9  22649406.811
  20314855.186   -14101701.045 7 -10920896.350 9  20314856.920
 94  2 17 20 12 29.9980000  0  8 18 14 19 27 28 31 22 29
  20175067.232   -19774159.310 8 -15265268.777 9  20175069.342
  22522324.717     5066758.336 6   4031405.970 9  22522328.479
  21316182.303   -13449903.027 7 -10367672.449 9  21316185.127
  23444839.998    -3516701.484 5  -2645520.651 9  23444843.783
  23481747.115    -2591208.399 5  -1918486.775 9  23481751.193
  23672582.943     -602642.014 5   -365151.823 9  23672589.049
  22667229.506    -4562033.254 6  -3387230.763 9  22667233.045
  20318948.225   -14080193.129 7 -10904136.949 9  20318949.971
 94  2 17 20 12 59.9980000  0  8 18 14 19 27 28 31 22 29
  20168468.600   -19808835.262 8 -15292289.000 9  20168470.650
  22542942.334     5175107.128 6   4115833.521 9  22542946.201
  21308037.217   -13492704.593 7 -10401024.299 9  21308040.393
  23430999.521    -3589434.025 5  -2702195.259 9  23431003.646
  23472563.412    -2639465.774 5  -1956089.865 9  23472568.041
  23657108.475     -683958.548 5   -428515.190 9  23657115.451
  22685116.092    -4468043.868 6  -3313992.386 9  22685119.502
  20323113.951   -14058303.312 7 -10887079.971 9  20323115.697
 94  2 17 20 13 29.9980000  0  8 18 14 19 27 28 31 22 29
  20161943.217   -19843126.184 8 -15319009.194 9  20161945.385
  22563600.826     5283665.258 6   4200424.191 9  22563604.588
  21299942.787   -13535240.462 7 -10434169.101 9  21299945.928
  23417188.123    -3662014.544 5  -2758751.424 9  23417192.400
  23463451.951    -2687350.082 6  -1993402.240 9  23463456.404
  23641659.725     -765137.188 5   -491771.070 9  23641666.240
  22703059.553    -4373749.313 6  -3240516.196 9  22703062.916
  20327352.357   -14036029.634 7 -10869723.877 9  20327354.092
 94  2 17 20 13 59.9980000  0  8 18 14 19 27 28 31 22 29
  20155492.232   -19877025.858 8 -15345424.517 9  20155494.436
  22584297.131     5392422.838 6   4285170.264 9  22584300.822
  21291893.764   -13577537.518 7 -10467127.815 9  21291896.928
  23403403.678    -3734453.141 5  -2815196.983 9  23403408.084
  23454412.646    -2734851.266 6  -2030416.068 9  23454416.373
  23626237.529     -846186.899 5   -554926.513 9  23626244.268
  22721059.459    -4279159.399 6  -3166809.862 9  22721062.740
  20331667.178   -14013356.054 7 -10852056.178 9  20331668.900
 94  2 17 20 14 29.9990000  0  8 18 14 19 27 28 31 22 29
  20149113.323   -19910547.482 8 -15371545.257 9  20149115.538
  22605034.151     5501397.606 6   4370085.594 9  22605038.546
  21283889.425   -13619599.862 7 -10499903.635 9  21283892.530
  23389643.644    -3806757.339 5  -2871537.861 9  23389647.698
  23445446.284    -2781968.276 5  -2067130.542 9  23445450.280
  23610835.245     -927125.374 5   -617995.268 9  23610841.538
  22739116.464    -4184270.485 6  -3092870.542 9  22739120.050
  20336062.034   -13990259.865 7 -10834059.169 9  20336063.722
 94  2 17 20 14 59.9990000  0  8 18 14 19 27 28 31 22 29
  20142806.245   -19943691.666 8 -15397371.893 9  20142808.565
  22625812.644     5610590.784 6   4455171.097 9  22625817.097
  21275930.636   -13661423.442 7 -10532493.409 9  21275933.706
  23375911.628    -3878919.311 5  -2927767.891 9  23375915.425
  23436556.019    -2828684.562 5  -2103532.764 9  23436560.038
  23595454.112    -1007957.380 5   -680981.067 9  23595459.491
  22757228.597    -4089090.399 6  -3018704.328 9  22757231.995
  20340539.237   -13966732.516 7 -10815726.191 9  20340540.972
 94  2 17 20 15 29.9990000  0  8 18 14 19 27 28 31 22 29
  20136571.440   -19976456.559 8 -15422902.976 9  20136573.749
  22646634.050     5720010.582 6   4540433.194 9  22646638.187
  21268014.362   -13703026.212 7 -10564911.119 9  21268017.210
  23362206.401    -3950940.033 5  -2983887.854 9  23362210.597
  23427744.378    -2874988.572 5  -2139613.730 9  23427748.960
  23580089.878    -1088694.103 5   -743892.624 9  23580095.022
  22775395.464    -3993625.367 6  -2944316.080 9  22775398.921
  20345095.815   -13942788.742 7 -10797068.728 9  20345097.386
 94  2 17 20 15 59.9990000  0  8 18 14 19 27 28 31 22 29
  20130405.472   -20008858.187 8 -15448150.993 9  20130407.757
  22667501.198     5829662.335 6   4625876.025 9  22667505.710
  21260141.011   -13744399.883 7 -10597150.314 9  21260143.929
  23348528.089    -4022821.380 5  -3039899.223 9  23348531.979
  23419012.386    -2920880.268 5  -2175373.403 9  23419017.401
  23564745.753    -1169328.841 5   -806724.743 9  23564750.253
  22793615.886    -3897874.856 6  -2869705.384 9  22793619.601
  20349729.011   -13918438.775 7 -10778094.751 9  20349730.569
 94  2 17 20 16 29.9990000  0  8 18 14 19 27 28 31 22 29
  20124307.722   -20040902.101 7 -15473120.269 9  20124309.901
  22688413.448     5939554.250 6   4711505.992 9  22688417.210
  21252316.550   -13785518.528 7 -10629190.783 9  21252319.597
  23334879.714    -4094541.422 5  -3095784.908 9  23334884.354
  23410357.729    -2966360.965 6  -2210812.821 9  23410361.409
  23549422.214    -1249843.983 5   -869463.631 9  23549428.026
  22811893.659    -3801826.194 6  -2794862.373 9  22811897.245
  20354439.597   -13893685.181 7 -10758806.258 9  20354441.366
 94  2 17 20 16 59.9990000  0  8 18 14 19 27 28 31 22 29
  20118280.456   -20072575.680 7 -15497800.970 9  20118282.624
  22709366.276     6049664.124 6   4797305.804 9  22709370.589
  21244541.276   -13826377.417 7 -10661028.853 9  21244544.077
  23321262.503    -4166099.880 5  -3151544.676 9  23321266.628
  23401783.245    -3011420.087 5  -2245923.735 9  23401787.710
  23534129.487    -1330215.929 5   -932090.953 9  23534134.995
  22830228.269    -3705474.989 6  -2719783.598 9  22830232.206
  20359225.144   -13868537.130 7 -10739210.404 9  20359226.749
 94  2 17 20 17 29.9990000  0  8 18 14 19 27 28 31 22 29
  20112324.714   -20103872.836 7 -15522188.351 9  20112326.812
  22730360.136     6159989.445 6   4883273.496 9  22730364.226
  21236818.167   -13866962.745 7 -10692653.763 9  21236820.933
  23307676.823    -4237498.733 5  -3207180.089 9  23307679.788
  23393286.729    -3056067.165 6  -2280713.576 9  23393290.948
  23518865.800    -1410426.371 5   -994592.416 9  23518870.593
  22848620.378    -3608822.678 6  -2644470.209 9  22848624.526
  20364089.909   -13842974.852 7 -10719291.771 9  20364091.444
 94  2 17 20 17 59.9990000  0  8 18 14 19 27 28 31 22 29
  20106440.706   -20134793.144 7 -15546282.089 9  20106442.722
  22751393.878     6270523.570 6   4969403.899 9  22751398.437
  21229147.940   -13907269.585 7 -10724061.663 9  21229150.929
  23294118.808    -4308744.453 5  -3262696.166 9  23294122.792
  23384864.073    -3100330.007 6  -2315204.018 9  23384868.140
  23503633.722    -1490472.444 5  -1056965.780 9  23503639.616
  22867069.355    -3511872.939 6  -2568925.050 9  22867073.550
  20369037.315   -13816974.548 7 -10699031.821 9  20369038.909
 94  2 17 20 18 29.9990000  0  8 18 14 19 27 28 31 22 29
  20100631.909   -20165318.275 7 -15570067.896 9  20100634.124
  22772466.722     6381257.116 6   5055689.680 9  22772471.456
  21221529.237   -13947304.887 7 -10755257.983 9  21221532.132
  23280592.409    -4379826.054 5  -3318084.378 9  23280596.265
  23376516.073    -3144199.911 5  -2349388.290 9  23376520.515
  23488436.276    -1570336.345 5  -1119197.216 9  23488441.339
  22885573.526    -3414633.535 6  -2493154.195 9  22885577.581
  20374072.370   -13790515.157 7 -10678414.135 9  20374073.905
 94  2 17 20 18 59.9990000  0  8 18 14 19 27 28 31 22 29
  20094896.722   -20195457.835 7 -15593553.262 9  20094898.937
  22793573.995     6492176.699 6   5142120.432 9  22793578.237
  21213958.300   -13987091.314 7 -10786260.372 9  21213960.995
  23267093.019    -4450764.728 5  -3373361.206 9  23267096.886
  23368241.120    -3187682.980 5  -2383271.138 9  23368245.644
  23473270.956    -1650027.886 5  -1181294.314 9  23473275.339
  22904128.550    -3317125.060 6  -2417173.669 9  22904132.464
  20379193.612   -13763603.590 7 -10657444.112 9  20379195.124
 94  2 17 20 19 29.9990000  0  8 18 14 19 27 28 31 22 29
  20089234.128   -20225214.997 7 -15616740.654 9  20089236.272
  22814720.128     6603297.919 6   5228708.293 9  22814724.440
  21206432.511   -14026638.914 7 -10817076.665 9  21206435.476
  23253622.370    -4521555.556 5  -3428522.848 9  23253626.765
  23360039.370    -3230784.405 6  -2416856.606 9  23360043.378
  23458136.940    -1729559.822 5  -1243267.074 9  23458141.347
  22922733.472    -3219358.060 6  -2340991.688 9  22922737.878
  20384400.862   -13736238.489 7 -10636120.682 9  20384402.515
 94  2 17 20 19 59.9990000  0  8 18 14 19 27 28 31 22 29
  20083645.862   -20254580.781 7 -15639623.071 9  20083647.913
  22835899.948     6714607.249 5   5315442.726 9  22835904.296
  21198950.894   -14065952.620 7 -10847710.691 9  21198953.835
  23240181.315    -4592184.122 5  -3483558.039 9  23240185.241
  23351913.386    -3273486.074 6  -2450130.584 9  23351917.452
  23443033.065    -1808928.225 5  -1305112.402 9  23443038.151
  22941387.964    -3121328.323 6  -2264604.976 9  22941391.937
  20389689.058   -13708449.223 7 -10614466.734 9  20389690.827
 94  2 17 20 20 29.9990000  0  8 18 14 19 27 28 31 22 29
  20078132.206   -20283554.903 7 -15662200.294 9  20078134.374
  22857114.620     6826089.560 5   5402311.958 9  22857118.675
  21191512.526   -14105042.488 7 -10878170.302 9  21191515.585
  23226771.394    -4662655.511 5  -3538470.750 9  23226775.026
  23343866.097    -3315775.026 6  -2483082.968 9  23343870.187
  23427962.144    -1888124.510 5  -1366823.628 9  23427966.714
  22960092.612    -3023034.512 6  -2188012.496 9  22960096.808
  20395053.198   -13680260.241 7 -10592501.317 9  20395054.991
 94  2 17 20 20 59.9990000  0  8 18 14 19 27 28 31 22 29
  20072695.128   -20312127.030 7 -15684464.276 9  20072697.366
  22878363.034     6937746.860 5   5489317.532 9  22878367.897
  21184116.300   -14143911.973 7 -10908458.178 9  21184119.522
  23213391.409    -4732968.841 5  -3593260.271 9  23213395.370
  23335893.519    -3357668.402 5  -2515727.132 9  23335898.101
  23412922.276    -1967159.962 5  -1428409.552 9  23412926.976
  22978850.714    -2924462.913 6  -2111203.534 9  22978854.558
  20400491.417   -13651682.223 7 -10570232.756 9  20400493.233
 94  2 17 20 21 29.9990000  0  8 18 14 19 27 28 31 22 29
  20067339.745   -20340270.386 7 -15706394.146 9  20067341.913
  22899643.440     7049575.050 6   5576456.266 9  22899648.104
  21176764.315   -14182545.262 7 -10938562.005 9  21176767.444
  23200043.448    -4803110.791 5  -3647916.269 9  23200048.405
  23327999.933    -3399152.634 6  -2548052.486 9  23328004.081
  23397916.440    -2046011.096 5  -1489851.855 9  23397921.245
  22997663.519    -2825600.657 6  -2034168.086 9  22997667.585
  20406004.722   -13622709.016 7 -10547656.248 9  20406006.538
 94  2 17 20 21 59.9990000  0  8 18 14 19 27 28 31 22 29
  20062066.550   -20367981.285 7 -15727987.039 9  20062068.577
  22920954.190     7161566.941 5   5663722.566 9  22920959.265
  21169460.253   -14220928.696 7 -10968471.135 9  21169463.335
  23186725.065    -4873091.140 5  -3702446.355 9  23186729.319
  23320185.839    -3440216.025 6  -2580049.926 9  23320189.460
  23382952.511    -2124653.268 5  -1551131.356 9  23382957.093
  23016533.831    -2726436.734 6  -1956897.585 9  23016537.628
  20411594.300   -13593336.743 7 -10524768.784 9  20411596.210
 94  2 17 20 22 29.9990000  0  8 18 14 19 27 28 31 22 29
  20056875.605   -20395259.913 7 -15749243.097 9  20056877.491
  22942300.659     7273740.840 5   5751130.687 9  22942305.733
  21162204.378   -14259057.482 7 -10998181.832 9  21162207.565
  23173439.292    -4942915.777 5  -3756855.090 9  23173444.530
  23312455.144    -3480840.156 6  -2611705.083 9  23312459.608
  23368026.190    -2203093.442 5  -1612253.461 9  23368030.210
  23035463.292    -2626963.034 6  -1879385.700 9  23035467.604
  20417265.112   -13563535.781 7 -10501547.281 9  20417267.058
 94  2 17 20 22 59.9990000  0  8 18 14 19 27 28 31 22 29
  20051763.511   -20422123.695 7 -15770175.898 9  20051765.491
  22963680.698     7386092.837 5   5838677.589 9  22963685.644
  21154997.058   -14296931.417 7 -11027693.946 9  21155000.233
  23160178.425    -5012597.746 5  -3811152.681 9  23160182.339
  23304810.487    -3521010.501 6  -2643006.647 9  23304814.624
  23353130.800    -2281363.174 5  -1673242.778 9  23353135.194
  23054446.237    -2527205.239 6  -1801652.451 9  23054450.854
  20423016.003   -13533314.904 7 -10477998.573 9  20423017.690
 94  2 17 20 23 29.9990000  0  8 18 14 19 27 28 31 22 29
  20046728.019   -20448586.500 8 -15790796.254 9  20046729.999
  22985095.948     7498627.713 6   5926366.996 9  22985100.214
  21147840.972   -14334538.852 7 -11056998.391 9  21147844.171
  23146944.847    -5082149.978 6  -3865349.142 9  23146947.952
  23297259.409    -3560691.368 6  -2673926.811 9  23297263.769
  23338269.394    -2359459.142 5  -1734096.713 9  23338274.257
  23073481.042    -2427176.551 5  -1723708.114 9  23073486.034
  20428847.362   -13502670.582 7 -10454119.905 9  20428849.144
 94  2 17 20 23 59.9990000  0  8 18 14 19 27 28 31 22 29
  20041764.128   -20474671.410 8 -15811122.145 9  20041766.167
  23006544.644     7611345.662 5   6014199.056 9  23006548.862
  21140732.229   -14371894.653 7 -11086106.762 9  21140735.183
  23133730.862    -5151579.793 5  -3919450.244 9  23133734.999
  23289800.370    -3599893.942 6  -2704474.259 9  23289804.261
  23323435.222    -2437412.408 5  -1794839.462 9  23323439.534
  23092563.690    -2326896.159 5  -1645567.619 9  23092568.038
  20434758.894   -13471606.307 7 -10429913.999 9  20434760.710
 94  2 17 20 24 29.9990000  0  8 18 14 19 27 28 31 22 29
  20036873.683   -20500371.766 8 -15831148.387 9  20036875.733
  23028027.636     7724236.179 5   6102165.559 9  23028031.456
  21133669.058   -14409011.275 7 -11115028.769 9  21133672.116
  23120544.206    -5220878.154 5  -3973448.904 9  23120548.284
  23282427.862    -3638631.895 6  -2734659.664 9  23282432.304
  23308626.073    -2515235.171 5  -1855480.529 9  23308631.417
  23111691.347    -2226379.356 5  -1567242.929 9  23111696.597
  20440750.284   -13440118.788 7 -10405378.297 9  20440752.136
 94  2 17 20 24 59.9990000  0  8 18 14 19 27 28 31 22 29
  20032058.901   -20525672.929 8 -15850863.575 9  20032060.929
  23049544.542     7837305.451 5   6190271.378 9  23049549.452
  21126652.378   -14445882.842 7 -11143759.820 9  21126655.319
  23107383.995    -5290038.338 5  -4027339.930 9  23107387.921
  23275141.839    -3676922.277 6  -2764496.313 9  23275145.987
  23293847.862    -2592894.132 5  -1915993.996 9  23293852.983
  23130862.464    -2125635.401 5  -1488741.229 9  23130867.761
  20446824.112   -13408202.139 7 -10380508.205 9  20446825.999
 94  2 17 20 25 29.9990000  0  8 18 14 19 27 28 31 22 29
  20027323.151   -20550558.702 8 -15870255.084 9  20027325.272
  23071093.909     7950552.396 5   6278515.621 9  23071097.800
  21119682.854   -14482510.755 7 -11172301.014 9  21119686.065
  23094251.597    -5359046.988 5  -4081112.854 9  23094255.440
  23267937.401    -3714781.303 6  -2793996.852 9  23267941.831
  23279107.222    -2670362.145 5  -1976358.640 9  23279112.108
  23150078.917    -2024653.583 5  -1410054.190 9  23150083.792
  20452982.722   -13375837.625 7 -10355289.123 9  20452984.714
 94  2 17 20 25 59.9990000  0  8 18 14 19 27 28 31 22 29
  20022668.433   -20575020.865 8 -15889316.515 9  20022670.577
  23092674.089     8063955.513 5   6366881.562 9  23092677.909
  21112759.089   -14518894.368 7 -11200651.855 9  21112762.159
  23081150.120    -5427896.918 5  -4134762.122 9  23081154.374
  23260810.886    -3752231.373 6  -2823178.713 9  23260815.233
  23264404.065    -2747623.596 5  -2036562.336 9  23264408.964
  23169339.901    -1923438.300 5  -1331185.234 9  23169344.800
  20459229.229   -13343012.686 7 -10329711.268 9  20459231.163
 94  2 17 20 26 29.9990000  0  8 18 14 19 27 28 31 22 29
  20018095.628   -20599050.359 8 -15908040.801 9  20018097.749
  23114279.644     8177494.888 5   6455353.671 9  23114284.214
  21105883.120   -14555028.927 7 -11228808.631 9  21105885.991
  23068077.769    -5496589.308 5  -4188288.621 9  23068081.542
  23253762.581    -3789269.415 6  -2852039.515 9  23253766.378
  23249745.175    -2824661.543 5  -2096591.897 9  23249749.124
  23188644.206    -1821991.553 5  -1252135.892 9  23188649.046
  20465563.073   -13309728.271 7 -10303775.374 9  20465564.948
 94  2 17 20 26 59.9990000  0  8 18 14 19 27 28 31 22 29
  20013602.511   -20622661.971 8 -15926439.468 9  20013604.690
  23135909.136     8291160.328 5   6543924.027 9  23135914.433
  21099055.722   -14590905.703 7 -11256764.547 9  21099058.663
  23055038.058    -5565119.256 5  -4241688.544 9  23055041.433
  23246795.987    -3825881.126 6  -2880568.103 9  23246799.831
  23235128.261    -2901470.511 5  -2156443.010 9  23235132.187
  23207991.112    -1720322.702 5  -1172913.477 9  23207995.589
  20471980.667   -13276003.765 7 -10277496.552 9  20471982.425
 94  2 17 20 27 29.9990000  0  8 18 14 19 27 28 31 22 29
  20009187.378   -20645862.764 8 -15944518.010 9  20009189.358
  23157557.159     8404918.397 5   6632566.554 9  23157561.987
  21092278.730   -14626517.281 7 -11284513.816 9  21092281.776
  23042030.128    -5633477.285 5  -4294954.491 9  23042034.370
  23239913.940    -3862049.121 6  -2908750.953 9  23239917.960
  23220553.159    -2978059.402 5  -2216122.627 9  23220558.116
  23227381.433    -1618430.653 6  -1093517.146 9  23227385.312
  20478480.425   -13241848.194 7 -10250881.838 9  20478482.335
 94  2 17 20 27 59.9990000  0  8 18 14 19 27 28 31 22 29
  20004848.972   -20668661.217 8 -15962283.040 9  20004851.093
  23179220.120     8518758.879 5   6721273.300 9  23179225.276
  21085552.089   -14661866.587 7 -11312058.719 9  21085555.007
  23029053.534    -5701663.713 5  -4348086.721 9  23029058.093
  23233116.245    -3897767.814 6  -2936583.690 9  23233120.206
  23206022.823    -3054419.072 5  -2275623.638 9  23206027.933
  23246814.776    -1516306.445 6  -1013939.902 9  23246818.960
  20485058.378   -13207279.182 7 -10223944.958 9  20485060.394
 94  2 17 20 28 29.9990000  0  8 18 14 19 27 28 31 22 29
  20000590.105   -20691041.969 8 -15979722.589 9  20000592.226
  23200904.589     8632709.897 5   6810066.148 9  23200909.956
  21078875.495   -14696954.193 7 -11339399.700 9  21078878.460
  23016112.628    -5769669.789 5  -4401078.418 9  23016116.671
  23226408.909    -3933013.869 6  -2964048.171 9  23226414.323
  23191537.112    -3130544.726 5  -2334942.299 9  23191541.706
  23266297.354    -1413927.784 6   -934164.387 9  23266301.960
  20491712.331   -13172313.595 7 -10196699.056 9  20491714.511
 94  2 17 20 28 59.9990000  0  8 18 14 19 27 28 31 22 29
  19996410.159   -20713007.546 8 -15996838.625 9  19996412.315
  23222612.995     8746782.672 5   6898953.875 9  23222619.312
  21072247.644   -14731784.602 7 -11366540.279 9  21072250.468
  23003203.011    -5837509.169 5  -4453940.198 9  23003206.866
  23219794.190    -3967774.721 6  -2991134.519 9  23219798.069
  23177096.308    -3206432.457 5  -2394075.565 9  23177100.046
  23285827.933    -1311289.040 5   -854186.228 9  23285833.276
  20498441.769   -13136949.818 7 -10169142.885 9  20498443.913
 94  2 17 20 29 29.9990000  0  8 18 14 19 27 28 31 22 29
  19992310.745   -20734551.267 8 -16013625.941 9  19992312.843
  23244345.144     8860983.104 5   6987941.091 9  23244350.569
  21065663.854   -14766379.877 7 -11393497.630 9  21065666.702
  22990321.847    -5905206.805 6  -4506691.525 9  22990325.386
  23213270.409    -4002061.801 6  -3017851.700 9  23213274.405
  23162699.620    -3282084.627 6  -2453025.246 9  23162703.815
  23305410.558    -1208383.844 5   -774000.436 9  23305415.257
  20505250.433   -13101170.593 7 -10141262.975 9  20505252.495
 94  2 17 20 29 59.9990000  0  8 18 14 19 27 28 31 22 29
  19988293.378   -20755662.867 8 -16030076.536 9  19988295.663
  23266106.917     8975344.959 5   7077054.062 9  23266112.729
  21059121.979   -14800759.465 7 -11420286.915 9  21059124.698
  22977463.667    -5972774.487 6  -4559341.587 9  22977468.120
  23206833.409    -4035886.357 6  -3044208.467 9  23206837.171
  23148348.581    -3357501.994 6  -2511791.975 9  23148352.319
  23325040.276    -1105229.122 5   -693620.195 9  23325044.401
  20512138.003   -13064976.406 7 -10113059.720 9  20512139.937
 94  2 17 20 30 29.9990000  0  8 18 14 19 27 28 31 22 29
  19984357.917   -20776343.160 8 -16046191.048 9  19984360.296
  23287901.112     9089878.542 5   7166300.876 9  23287905.929
  21052620.511   -14834924.913 7 -11446909.337 9  21052623.171
  22964628.862    -6040221.281 5  -4611897.444 9  22964633.409
  23200484.464    -4069249.068 6  -3070205.349 9  23200487.733
  23134037.245    -3432705.870 6  -2570392.344 9  23134041.511
  23344710.276    -1001862.232 5   -613074.655 9  23344715.831
  20519107.831   -13028350.667 7 -10084520.190 9  20519109.624
 94  2 17 20 30 59.9990000  0  8 18 14 19 27 28 31 22 29
  19980501.034   -20796609.059 8 -16061982.643 9  19980503.437
  23309726.237     9204564.131 5   7255666.118 9  23309731.604
  21046159.058   -14868878.956 7 -11473367.031 9  21046161.882
  22951815.198    -6107555.260 5  -4664365.398 9  22951819.112
  23194221.573    -4102161.433 6  -3095851.316 9  23194225.593
  23119765.651    -3507703.476 6  -2628831.966 9  23119770.222
  23364413.440     -898322.405 5   -532394.379 9  23364418.456
  20526162.058   -12991279.802 7 -10055633.808 9  20526164.015
 94  2 17 20 31 29.9990000  0  8 18 14 19 27 28 31 22 29
  19976727.253   -20816441.625 8 -16077436.582 9  19976729.550
  23331580.909     9319412.498 5   7345158.228 9  23331587.226
  21039739.878   -14902612.425 7 -11499652.843 9  21039742.690
  22939027.128    -6174749.561 5  -4716724.495 9  22939030.960
  23188044.956    -4134619.535 6  -3121143.296 9  23188048.612
  23105534.745    -3582486.041 6  -2687103.998 9  23105539.339
  23384148.019     -794616.224 5   -451584.476 9  23384152.472
  20533302.745   -12953754.827 7 -10026393.574 9  20533304.655
 94  2 17 20 31 59.9990000  0  8 18 14 19 27 28 31 22 29
  19973036.401   -20835836.876 8 -16092549.752 9  19973038.698
  23353465.019     9434417.231 5   7434772.134 9  23353471.136
  21033365.628   -14936109.363 7 -11525754.346 9  21033368.382
  22926270.019    -6241793.490 5  -4768966.429 9  22926273.769
  23181957.831    -4166608.908 6  -3146070.046 9  23181961.405
  23091345.417    -3657051.412 6  -2745206.760 9  23091349.917
  23403913.347     -690750.105 5   -370649.924 9  23403918.690
  20540528.331   -12915784.968 7  -9996806.679 9  20540530.276
 94  2 17 20 32 29.9990000  0  8 18 14 19 27 28 31 22 29
  19969427.980   -20854799.600 7 -16107325.888 9  19969430.487
  23375373.956     9549543.635 5   7524480.874 9  23375378.597
  21027040.425   -14969348.387 7 -11551654.869 9  21027043.308
  22913539.823    -6308689.088 5  -4821092.789 9  22913543.597
  23175963.026    -4198108.331 6  -3170615.003 9  23175966.565
  23077198.675    -3731394.682 6  -2803136.411 9  23077202.964
  23423711.448     -586708.867 5   -289578.915 9  23423716.581
  20547838.089   -12877371.664 7  -9966874.240 9  20547839.964
 94  2 17 20 32 59.9990000  0  8 18 14 19 27 28 31 22 29
  19965904.605   -20873315.217 8 -16121753.626 9  19965907.089
  23397301.354     9664772.466 5   7614269.443 9  23397307.565
  21020763.503   -15002334.488 7 -11577358.313 9  21020766.433
  22900839.714    -6375430.345 6  -4873098.887 9  22900843.722
  23170061.440    -4229121.572 6  -3194781.102 9  23170064.804
  23063096.651    -3805499.159 6  -2860879.948 9  23063100.331
  23443547.214     -482472.984 5   -208356.210 9  23443551.901
  20555227.597   -12838539.779 7  -9936615.635 9  20555229.343
 94  2 17 20 33 29.9990000  0  8 18 14 19 27 28 31 22 29
  19962470.378   -20891362.232 8 -16135816.222 9  19962472.663
  23419249.581     9780108.207 5   7704141.289 9  23419254.046
  21014534.815   -15035066.444 7 -11602863.712 9  21014537.804
  22888171.378    -6442005.368 6  -4924975.467 9  22888175.784
  23164254.144    -4259642.025 6  -3218563.234 9  23164257.647
  23049042.331    -3879353.376 6  -2918428.455 9  23049046.608
  23463426.831     -378007.737 6   -126954.795 9  23463431.249
  20562696.042   -12799292.742 7  -9906033.536 9  20562697.952
 94  2 17 20 33 59.9990000  0  8 18 14 19 27 28 31 22 29
  19959122.198   -20908957.992 8 -16149527.182 9  19959124.331
  23441214.190     9895534.104 5   7794083.411 9  23441218.808
  21008354.206   -15067546.693 7 -11628172.972 9  21008357.241
  22875532.729    -6508421.320 6  -4976728.122 9  22875536.550
  23158537.948    -4289679.811 6  -3241969.241 9  23158541.429
  23035034.792    -3952962.164 6  -2975785.712 9  23035039.292
  23483351.581     -273300.195 5    -45364.598 9  23483356.772
  20570242.800   -12759634.594 7  -9875131.093 9  20570244.745
 94  2 17 20 34 29.9990000  0  8 18 14 19 27 28 31 22 29
  19955857.448   -20926114.425 8 -16162895.814 9  19955859.593
  23463194.370    10011045.333 5   7884092.000 9  23463200.323
  21002217.526   -15099793.753 7 -11653300.519 9  21002220.526
  22862923.479    -6574680.674 6  -5028358.737 9  22862927.440
  23152910.198    -4319251.335 6  -3265011.916 9  23152913.854
  23021073.347    -4026330.889 6  -3032955.897 9  23021077.354
  23503319.886     -168365.546 5     36402.582 9  23503324.116
  20577866.120   -12719573.568 7  -9843914.721 9  20577868.101
 94  2 17 20 34 59.9990000  0  8 18 14 19 27 28 31 22 29
  19952676.925   -20942827.952 8 -16175919.323 9  19952679.093
  23485196.847    10126662.021 5   7974182.759 9  23485201.769
  20996121.284   -15131828.495 7 -11678262.623 9  20996123.991
  22850346.690    -6640772.829 6  -5079859.077 9  22850349.890
  23147370.808    -4348363.185 6  -3287696.400 9  23147373.948
  23007158.378    -4099454.905 6  -3089935.426 9  23007162.878
  23523331.136      -63205.550 5    118345.394 9  23523335.331
  20585568.753   -12679095.546 7  -9812373.416 9  20585570.605
 94  2 17 20 35 29.9990000  0  8 18 14 19 27 28 31 22 29
  19949577.659   -20959113.983 8 -16188609.718 9  19949579.886
  23507218.651    10242389.281 5   8064359.691 9  23507223.456
  20990066.495   -15163645.244 7 -11703054.855 9  20990069.507
  22837800.261    -6706703.744 6  -5131233.782 9  22837803.659
  23141921.933    -4376995.957 6  -3310007.583 9  23141925.519
  22993289.175    -4172334.356 6  -3146724.387 9  22993293.288
  23543383.901       42170.119 5    200456.267 9  23543388.132
  20593356.081   -12638174.302 7  -9780486.748 9  20593357.815
 94  2 17 20 35 59.9990000  0  8 18 14 19 27 28 31 22 29
  19946556.136   -20974991.575 8 -16200981.844 9  19946558.397
  23529259.659    10358215.230 5   8154613.527 9  23529265.015
  20984053.956   -15195242.349 7 -11727675.940 9  20984056.862
  22825283.972    -6772474.797 6  -5182483.924 9  22825288.483
  23136566.534    -4405137.839 6  -3331936.262 9  23136569.968
  22979468.417    -4244961.636 6  -3203316.883 9  22979472.589
  23563472.206      147735.967 5    282715.337 9  23563476.882
  20601228.495   -12596804.081 7  -9748250.226 9  20601230.218
 94  2 17 20 36 29.9990000  0  8 18 14 19 27 28 31 22 29
  19943616.362   -20990440.458 8 -16213019.914 9  19943618.542
  23551316.573    10474126.358 5   8244933.711 9  23551321.976
  20978084.104   -15226614.731 7 -11752121.910 9  20978086.999
  22812799.011    -6838089.593 6  -5233612.300 9  22812803.030
  23131307.011    -4432775.848 6  -3353472.326 9  23131310.808
  22965700.644    -4317311.326 6  -3259693.090 9  22965704.605
  23583591.597      253463.749 5    365100.557 9  23583596.507
  20609186.729   -12554982.938 7  -9715662.340 9  20609188.604
 94  2 17 20 36 59.9990000  0  8 18 14 19 27 28 31 22 29
  19940759.722   -21005452.541 8 -16224717.622 9  19940761.855
  23573388.144    10590110.413 5   8335310.733 9  23573393.991
  20972159.003   -15257748.786 7 -11776382.174 9  20972161.862
  22800341.558    -6903554.686 6  -5284624.047 9  22800345.331
  23126145.589    -4459900.746 6  -3374608.566 9  23126148.776
  22951990.456    -4389359.863 6  -3315834.648 9  22951993.597
  23603743.331      359361.431 5    447618.195 9  23603747.831
  20617232.878   -12512700.927 7  -9682715.338 9  20617234.765
 94  2 17 20 37 29.9990000  0  8 18 14 19 27 28 31 22 29
  19937988.284   -21020017.457 8 -16236066.892 9  19937990.417
  23595469.558    10706148.289 5   8425729.693 9  23595474.901
  20966286.581   -15288610.242 7 -11800430.027 9  20966289.581
  22787912.354    -6968871.652 6  -5335520.369 9  22787915.987
  23121081.667    -4486511.060 6  -3395343.831 9  23121085.124
  22938340.159    -4461091.407 6  -3371729.228 9  22938343.827
  23623927.722      465430.475 5    530269.376 9  23623932.187
  20625364.417   -12469968.094 7  -9649417.046 9  20625366.374
 94  2 17 20 37 59.9990000  0  8 18 14 19 27 28 31 22 29
  19935304.612   -21034120.636 8 -16247056.363 9  19935306.733
  23617558.292    10822226.616 5   8516180.189 9  23617564.339
  20960466.651   -15319194.123 7 -11824261.586 9  20960469.769
  22775508.565    -7034048.725 6  -5386307.674 9  22775511.999
  23116112.104    -4512624.593 6  -3415692.005 9  23116115.655
  22924750.222    -4532505.406 6  -3427376.402 9  22924754.159
  23644144.128      571669.904 5    613053.302 9  23644148.569
  20633577.542   -12426808.661 7  -9615786.349 9  20633579.546
 94  2 17 20 38 29.9990000  0  8 18 14 19 27 28 31 22 29
  19932709.862   -21047754.482 8 -16257680.121 9  19932711.913
  23639657.034    10938349.623 5   8606665.485 9  23639662.624
  20954699.011   -15349504.019 7 -11847879.650 9  20954702.104
  22763129.323    -7099102.412 6  -5436998.826 9  22763133.167
  23111233.925    -4538259.824 6  -3435667.492 9  23111237.358
  22911217.050    -4603624.541 6  -3482793.823 9  22911220.507
  23664395.144      678087.937 5    695976.417 9  23664400.077
  20641871.081   -12383226.648 7  -9581826.360 9  20641873.015
 94  2 17 20 38 59.9990000  0  8 18 14 19 27 28 31 22 29
  19930200.651   -21060939.139 8 -16267953.865 9  19930202.679
  23661763.831    11054531.032 5   8697196.285 9  23661768.917
  20948980.698   -15379554.088 7 -11871295.258 9  20948983.780
  22750773.987    -7164031.829 6  -5487593.144 9  22750777.620
  23106444.503    -4563428.854 6  -3455279.712 9  23106447.784
  22897732.979    -4674483.963 6  -3538008.898 9  22897736.858
  23684682.792      784700.335 5    779050.975 9  23684688.171
  20650244.120   -12339225.930 7  -9547540.114 9  20650245.913
 94  2 17 20 39 29.9990000  0  8 18 14 19 27 28 31 22 29
  19927779.878   -21073661.435 8 -16277867.325 9  19927781.870
  23683889.995    11170797.677 5   8787793.521 9  23683895.222
  20943311.456   -15409344.537 7 -11894508.560 9  20943314.444
  22738446.339    -7228811.914 6  -5538071.083 9  22738449.784
  23101745.433    -4588124.470 6  -3474523.044 9  23101748.386
  22884294.550    -4745101.697 6  -3593035.673 9  22884298.253
  23705007.886      891509.221 5    862278.633 9  23705012.397
  20658696.065   -12294810.748 7  -9512930.911 9  20658697.870
 94  2 17 20 39 59.9990000  0  8 18 14 19 27 28 31 22 29
  19925447.237   -21085919.704 8 -16287419.208 9  19925449.218
  23706033.276    11287169.551 4   8878472.728 9  23706037.835
  20937685.229   -15438909.094 7 -11917545.844 9  20937688.101
  22726150.144    -7293427.938 6  -5588421.178 9  22726153.776
  23097136.878    -4612341.567 6  -3493393.503 9  23097139.737
  22870901.339    -4815484.605 6  -3647879.491 9  22870905.183
  23725368.784      998503.920 5    945651.086 9  23725373.144
  20667229.604   -12249965.697 7  -9477986.740 9  20667231.444
 94  2 17 20 40 29.9990000  0  8 18 14 19 27 28 31 22 29
  19923202.347   -21097718.807 8 -16296613.303 9  19923204.257
  23728201.972    11403655.087 5   8969240.506 9  23728205.979
  20932100.573   -15468258.206 7 -11940415.250 9  20932103.550
  22713887.800    -7357869.961 6  -5638635.687 9  22713891.620
  23092621.144    -4636074.215 6  -3511886.484 9  23092624.636
  22857554.651    -4885622.216 6  -3702532.176 9  22857558.179
  23745763.519     1105681.217 5   1029165.812 9  23745769.132
  20675848.097   -12204675.925 7  -9442696.040 9  20675850.159
 94  2 17 20 40 59.9990000  0  8 18 14 19 27 28 31 22 29
  19921046.339   -21109049.454 8 -16305442.366 9  19921048.108
  23750391.511    11520262.370 5   9060103.169 9  23750396.585
  20926559.870   -15497374.629 7 -11963103.349 9  20926562.776
  22701659.448    -7422124.492 6  -5688704.099 9  22701663.644
  23088201.651    -4659296.219 6  -3529981.576 9  23088205.097
  22844262.628    -4955470.100 6  -3756959.119 9  22844266.530
  23766193.784     1213041.083 5   1112822.818 9  23766198.823
  20684550.190   -12158944.665 7  -9407061.320 9  20684552.124
 94  2 17 20 41 29.9990000  0  8 18 14 19 27 28 31 22 29
  19918980.534   -21119905.586 8 -16313901.681 9  19918982.093
  23772601.722    11636971.751 5   9151045.359 9  23772606.749
  20921064.065   -15526256.698 7 -11985608.834 9  20921066.878
  22689464.737    -7486211.572 6  -5738642.034 9  22689469.202
  23083881.956    -4682001.098 6  -3547673.714 9  23083885.401
  22831031.776    -5025001.281 6  -3811139.296 9  22831035.362
  23786654.065     1320562.243 5   1196605.478 9  23786658.882
  20693336.800   -12112772.698 7  -9371083.194 9  20693338.733
 94  2 17 20 41 59.9990000  0  8 18 14 19 27 28 31 22 29
  19917001.261   -21130305.189 8 -16322005.265 9  19917002.925
  23794821.909    11753750.342 5   9242041.513 8  23794828.003
  20915612.644   -15554903.158 7 -12007930.732 9  20915615.655
  22677293.675    -7550171.230 6  -5788480.669 9  22677297.308
  23079659.229    -4704186.718 6  -3564961.220 9  23079662.347
  22817863.589    -5094197.805 6  -3865058.722 9  22817867.233
  23807143.104     1428231.716 5   1280503.706 9  23807148.437
  20702209.503   -12066146.379 7  -9334751.027 9  20702211.472
 94  2 17 20 42 29.9990000  0  8 18 14 19 27 28 31 22 29
  19915109.456   -21140247.459 8 -16329752.486 9  19915111.015
  23817058.612    11870594.987 5   9333089.081 9  23817064.226
  20910212.354   -15583282.300 7 -12030044.328 9  20910215.284
  22665146.253    -7614008.054 6  -5838223.581 9  22665149.757
  23075540.276    -4725833.996 6  -3581829.241 9  23075542.937
  22804762.909    -5163041.476 6  -3918703.206 9  22804766.788
  23827663.550     1536068.634 5   1364532.395 9  23827668.601
  20711168.769   -12019065.221 7  -9298064.441 9  20711170.608
 94  2 17 20 42 59.9990000  0  8 18 14 19 27 28 31 22 29
  19913303.839   -21149735.566 8 -16337145.816 9  19913305.444
  23839300.190    11987483.506 4   9424170.886 9  23839307.683
  20904860.722   -15611404.517 7 -12051957.727 9  20904863.663
  22653021.394    -7677721.780 6  -5887870.570 9  22653024.944
  23071522.323    -4746948.173 6  -3598281.847 9  23071525.534
  22791727.714    -5231542.384 6  -3972080.615 9  22791732.202
  23848212.847     1644057.457 5   1448679.461 9  23848217.112
  20720212.995   -11971537.939 7  -9261030.225 9  20720214.847
 94  2 17 20 43 29.9990000  0  8 18 14 19 27 28 31 22 29
  19911586.300   -21158761.235 8 -16344178.808 9  19911587.741
  23861549.995    12104399.090 5   9515273.760 8  23861556.171
  20899553.511   -15639293.118 7 -12073689.095 9  20899556.663
  22640922.378    -7741299.657 6  -5937411.703 9  22640925.905
  23067605.558    -4767532.020 6  -3614321.227 9  23067609.108
  22778754.386    -5299717.999 6  -4025204.532 9  22778758.675
  23868790.894     1752193.611 5   1532941.347 9  23868796.003
  20729344.659   -11923547.747 7  -9223635.302 9  20729346.651
 94  2 17 20 43 59.9990000  0  8 18 14 19 27 28 31 22 29
  19909955.792   -21167330.406 8 -16350856.083 9  19909957.444
  23883802.565    12221341.477 5   9606397.499 9  23883808.284
  20894289.370   -15666957.136 7 -12095245.462 9  20894292.335
  22628855.425    -7804715.599 6  -5986826.656 9  22628858.730
  23063788.815    -4787586.051 6  -3629947.765 9  23063792.706
  22765841.331    -5367576.699 6  -4078081.485 9  22765845.233
  23889396.690     1860480.652 5   1617320.785 9  23889401.565
  20738562.386   -11875109.150 7  -9185890.972 9  20738564.308
 94  2 17 20 44 29.9990000  0  7 18 19 27 28 31 22 29
  19908415.050   -21175426.702 8 -16357164.883 9  19908416.515
  20889064.722   -15694412.927 7 -12116639.580 9  20889067.499
  22616823.136    -7867941.536 6  -6036093.559 9  22616826.991
  23060071.503    -4807123.141 6  -3645171.492 9  23060074.526
  22752989.854    -5435115.381 6  -4130709.067 9  22752993.522
  23910031.214     1968911.121 5   1701812.028 9  23910036.839
  20747861.183   -11826245.443 7  -9147815.389 9  20747863.304
 94  2 17 20 44 59.9990000  0  7 18 19 27 28 31 22 29
  19906967.159   -21183035.961 8 -16363094.173 9  19906968.624
  20883878.214   -15721666.655 7 -12137876.239 9  20883881.038
  22604828.784    -7930972.152 6  -6085208.262 9  22604832.300
  23056453.839    -4826133.791 6  -3659984.988 9  23056456.886
  22740198.308    -5502332.096 6  -4183085.756 9  22740202.104
  23930688.042     2077464.347 5   1786398.920 9  23930693.069
  20757241.698   -11776951.694 7  -9109404.710 9  20757243.808
 94  2 17 20 45 29.9990000  0  7 18 19 27 28 31 22 29
  19905610.909   -21190161.596 8 -16368646.625 9  19905612.257
  20878732.761   -15748706.304 7 -12158946.086 9  20878735.714
  22592868.737    -7993823.228 6  -6134183.049 9  22592872.276
  23052938.800    -4844608.020 6  -3674380.500 9  23052941.882
  22727468.315    -5569226.459 6  -4235211.220 9  22727472.312
  23951370.276     2186150.518 5   1871089.385 9  23951374.976
  20766704.347   -11727224.054 7  -9070655.929 9  20766706.327
 94  2 17 20 45 59.9990000  0  7 18 19 27 28 31 22 29
  19904346.745   -21196805.238 8 -16373823.485 9  19904348.175
  20873632.605   -15775508.857 7 -12179831.187 9  20873635.440
  22580940.589    -8056504.838 6  -6183025.790 9  22580944.163
  23049523.425    -4862551.483 6  -3688362.416 9  23049526.437
  22714802.690    -5635790.527 6  -4287079.308 9  22714807.108
  23972079.800     2294975.545 5   1955888.087 9  23972084.745
  20776247.284   -11677075.703 7  -9031579.325 9  20776249.007
 94  2 17 20 46 29.9990000  0  7 18 19 27 28 31 22 29
  19903174.815   -21202964.069 8 -16378622.571 9  19903176.503
  20868579.136   -15802063.635 7 -12200523.214 9  20868582.218
  22569042.034    -8119038.078 6  -6231752.910 9  22569045.632
  23046209.933    -4879964.320 6  -3701930.866 9  23046213.331
  22702198.979    -5702024.517 6  -4338690.161 9  22702202.765
  23992814.558     2403940.521 5   2040795.835 9  23992819.175
  20785872.104   -11626498.599 7  -8992168.617 9  20785873.979
 94  2 17 20 46 59.9990000  0  7 18 19 27 28 31 22 29
  19902090.183   -21208664.666 8 -16383064.590 9  19902091.812
  20863573.503   -15828370.759 7 -12221022.271 9  20863576.397
  22557165.761    -8181442.399 6  -6280379.594 9  22557169.417
  23042996.511    -4896851.917 6  -3715090.025 9  23042999.769
  22689654.417    -5767945.753 6  -4390057.306 9  22689658.167
  24013579.628     2513060.152 5   2125824.075 9  24013584.421
  20795578.034   -11575493.214 7  -8952424.196 9  20795579.956
 94  2 17 20 47 29.9990000  0  7 18 19 27 28 31 22 29
  19901093.308   -21213903.060 8 -16387146.451 9  19901094.831
  20858615.417   -15854423.082 7 -12241322.769 9  20858618.206
  22545317.120    -8243708.945 6  -6328898.918 9  22545321.034
  23039881.542    -4913223.764 6  -3727847.319 9  23039884.683
  22677171.628    -5833541.854 6  -4441171.079 9  22677175.202
  24034379.472     2622363.449 5   2210995.443 9  24034384.851
  20805365.362   -11524060.399 7  -8912346.712 9  20805367.296
 94  2 17 20 47 59.9990000  0  7 18 19 27 28 31 22 29
  19900186.112   -21218670.022 8 -16390860.963 9  19900187.577
  20853704.901   -15880229.738 7 -12261431.841 9  20853707.726
  22533495.964    -8305827.887 6  -6377303.242 9  22533499.854
  23036863.183    -4929081.551 6  -3740204.047 9  23036866.745
  22664753.065    -5898800.721 6  -4492022.063 9  22664756.440
  24055213.464     2731845.212 5   2296305.883 9  24055218.210
  20815233.347   -11472205.292 7  -8871940.168 9  20815235.058
 94  2 17 20 48 29.9990000  0  7 18 19 27 28 31 22 29
  19899370.050   -21222957.958 8 -16394202.195 9  19899371.550
  20848839.065   -15905800.552 7 -12281357.139 9  20848841.714
  22521704.972    -8367793.406 6  -6425588.007 9  22521708.722
  23033946.417    -4944407.500 6  -3752146.354 9  23033950.167
  22652401.237    -5963710.231 6  -4542600.827 9  22652404.601
  24076078.362     2841494.570 5   2381746.893 9  24076083.003
  20825185.581   -11419906.227 7  -8831187.671 9  20825187.315
 94  2 17 20 48 59.9990000  0  7 18 19 27 28 31 22 29
  19898648.003   -21226752.371 8 -16397158.871 9  19898649.655
  20844018.995   -15931130.181 7 -12301094.500 9  20844021.573
  22509945.690    -8429585.618 6  -6473737.735 9  22509949.159
  23031134.550    -4959187.770 6  -3763663.456 9  23031138.030
  22640117.683    -6028259.897 6  -4592899.182 9  22640121.468
  24096974.800     2951304.051 5   2467312.647 9  24096980.237
  20835224.636   -11367150.619 7  -8790079.438 9  20835226.323
 94  2 17 20 49 29.9990000  0  6 18 19 27 28 31 29
  19898023.253   -21230035.458 8 -16399717.107 9  19898024.812
  20839245.378   -15956214.609 7 -12320640.793 9  20839248.190
  22498218.878    -8491208.434 6  -6521755.470 9  22498222.394
  23028428.456    -4973409.349 6  -3774745.207 9  23028431.585
  22627903.870    -6092445.140 6  -4642913.584 9  22627907.397
  20845352.175   -11313929.112 7  -8748608.163 9  20845353.851
 94  2 17 20 49 59.9990000  0  6 18 19 27 28 31 29
  19897495.769   -21232807.092 8 -16401876.805 9  19897497.198
  20834518.901   -15981052.241 7 -12339994.781 9  20834521.726
  22486525.761    -8552659.871 6  -6569639.656 9  22486528.948
  23025831.112    -4987056.249 6  -3785379.153 9  23025834.335
  22615758.519    -6156267.917 6  -4692645.537 9  22615761.612
  20855570.862   -11260231.163 7  -8706765.633 9  20855572.374
 94  2 17 20 50 29.9990000  0  6 18 19 27 28 31 29
  19897064.745   -21235071.856 8 -16403641.539 9  19897066.280
  20829840.300   -16005639.104 7 -12359153.360 9  20829842.995
  22474863.808    -8613941.781 6  -6617391.755 9  22474867.241
  23023343.128    -5000131.320 6  -3795567.530 9  23023346.749
  22603681.323    -6219732.193 6  -4742098.144 9  22603684.733
  20865878.245   -11206064.774 7  -8664558.092 9  20865880.026
 94  2 17 20 50 59.9990000  0  6 18 19 27 28 31 29
  19896729.815   -21236831.940 8 -16405013.023 9  19896731.503
  20825210.956   -16029966.710 7 -12378109.918 9  20825213.651
  22463233.081    -8675061.610 6  -6665017.559 9  22463236.421
  23020961.737    -5012642.280 6  -3805316.324 9  23020965.804
  22591674.362    -6282831.614 6  -4791266.468 9  22591677.362
  20876270.636   -11151453.756 7  -8622004.086 9  20876272.511
 94  2 17 20 51 29.9990000  0  6 18 19 27 28 31 29
  19896488.651   -21238099.331 8 -16406000.585 9  19896490.562
  20820627.417   -16054053.665 7 -12396878.957 9  20820630.241
  22451629.683    -8736037.932 6  -6712531.546 9  22451633.081
  23018687.159    -5024596.836 6  -3814631.555 9  23018690.792
  22579738.808    -6345554.235 6  -4840141.182 9  22579741.808
  20886743.464   -11096416.440 7  -8579117.895 9  20886745.468
 94  2 17 20 51 59.9990000  0  6 18 19 27 28 31 29
  19896340.394   -21238879.022 8 -16406608.123 9  19896342.034
  20816087.472   -16077910.026 7 -12415468.314 9  20816090.296
  22440054.175    -8796865.721 6  -6759929.799 9  22440057.327
  23016516.714    -5036005.969 6  -3823521.760 9  23016519.901
  22567877.058    -6407885.256 6  -4888710.768 9  22567880.562
  20897294.558   -11040969.956 7  -8535912.872 9  20897296.620
 94  2 17 20 52 29.9990000  0  6 18 19 27 28 31 29
  19896285.909   -21239164.672 8 -16406830.693 9  19896287.538
  20811592.292   -16101530.697 7 -12433874.010 9  20811595.046
  22428506.229    -8857553.613 6  -6807219.041 9  22428509.417
  23014448.198    -5046875.092 6  -3831991.169 9  23014451.550
  22556094.011    -6469807.314 6  -4936961.699 9  22556097.444
  20907923.394   -10985115.034 7  -8492389.586 9  20907925.421
 94  2 17 20 52 59.9990000  0  6 18 19 27 28 31 29
  19896324.253   -21238962.372 8 -16406673.045 9  19896325.929
  20807141.253   -16124921.759 7 -12452100.793 9  20807143.948
  22416984.620    -8918099.878 6  -6854397.914 9  22416988.065
  23012482.261    -5057200.947 6  -3840037.244 9  23012485.976
  22544389.237    -6531315.472 6  -4984890.126 9  22544393.093
  20918634.198   -10928829.972 7  -8448531.125 9  20918636.272
 94  2 17 20 53 29.9990000  0  6 18 19 27 28 31 29
  19896456.433   -21238268.280 8 -16406132.182 9  19896458.085
  20802732.300   -16148091.138 7 -12470154.831 9  20802735.054
  22405493.589    -8978484.297 6  -6901450.674 9  22405496.788
  23010621.292    -5066980.107 6  -3847657.325 9  23010625.698
  22532762.159    -6592413.717 6  -5032499.151 9  22532765.616
  20929430.815   -10872092.554 7  -8404320.176 9  20929432.960
 94  2 17 20 53 59.9990000  0  6 18 19 27 28 31 29
  19896683.519   -21237073.623 8 -16405201.268 9  19896685.206
  20798368.589   -16171023.306 7 -12488024.024 9  20798371.390
  22394036.081    -9038695.096 6  -6948368.133 9  22394039.620
  23008863.253    -5076219.247 6  -3854856.585 9  23008867.460
  22521211.261    -6653115.523 6  -5079799.271 9  22521214.847
  20940316.456   -10814888.684 7  -8359745.757 9  20940318.659
 94  2 17 20 54 29.9990000  0  6 18 19 27 28 31 29
  19897005.823   -21235380.578 8 -16403882.003 9  19897007.417
  20794050.300   -16193714.449 7 -12505705.411 9  20794053.136
  22382611.214    -9098733.391 6  -6995151.168 9  22382614.647
  23007209.370    -5084911.819 6  -3861629.949 9  23007213.366
  22509730.800    -6713447.231 6  -5126811.009 9  22509734.140
  20951290.565   -10757219.218 7  -8314808.530 9  20951292.780
 94  2 17 20 54 59.9990000  0  6 18 19 27 28 31 29
  19897423.565   -21233186.010 8 -16402171.943 9  19897425.065
  20789777.417   -16216169.673 7 -12523202.969 9  20789780.124
  22371221.589    -9158584.752 6  -7041788.550 9  22371224.753
  23005660.151    -5093053.238 6  -3867973.838 9  23005663.573
  22498318.081    -6773420.984 6  -5173543.833 9  22498321.937
  20962351.120   -10699095.630 7  -8269517.446 9  20962353.276
 94  2 17 20 55 29.9990000  0  6 18 19 27 28 31 29
  19897938.440   -21230479.225 8 -16400062.755 9  19897940.116
  20785551.472   -16238377.455 7 -12540507.714 9  20785554.366
  22359866.550    -9218252.694 6  -7088283.016 9  22359870.206
  23004215.323    -5100644.466 6  -3873889.003 9  23004218.933
  22486972.175    -6833046.068 6  -5220004.958 9  22486975.948
  20973494.128   -10640537.810 7  -8223888.000 9  20973496.319
 94  2 17 20 55 59.9990000  0  6 18 19 27 28 31 29
  19898550.394   -21227263.624 8 -16397557.090 9  19898552.093
  20781373.823   -16260330.008 7 -12557613.574 9  20781376.542
  22348544.737    -9277751.370 6  -7134645.578 9  22348548.581
  23002875.136    -5107686.748 6  -3879376.423 9  23002878.792
  22475689.800    -6892330.407 6  -5266200.559 9  22475693.737
  20984716.347   -10581565.161 7  -8177935.299 9  20984718.503
 94  2 17 20 56 29.9990000  0  6 18 19 27 28 31 29
  19899257.651   -21223548.222 8 -16394661.976 9  19899259.315
  20777242.597   -16282038.570 7 -12574529.310 9  20777245.456
  22337252.253    -9337095.433 6  -7180887.673 9  22337255.909
  23001640.308    -5114176.655 6  -3884433.432 9  23001644.151
  22464475.159    -6951266.357 6  -5312124.683 9  22464479.272
  20996016.355   -10522182.799 7  -8131663.350 9  20996018.745
 94  2 17 20 56 59.9990000  0  6 18 19 27 28 31 29
  19900057.815   -21219342.849 8 -16391385.067 9  19900059.421
  20773158.534   -16303503.199 7 -12591254.977 9  20773161.229
  22325987.401    -9396291.081 6  -7227014.102 9  22325991.257
  23000508.901    -5120118.898 6  -3889063.705 9  23000512.886
  22453332.964    -7009818.208 6  -5357749.487 9  22453337.253
  21007398.698   -10462369.012 7  -8085055.225 9  21007400.983
 94  2 17 20 57 29.9990000  0  6 18 19 27 28 31 29
  19900950.058   -21214653.989 8 -16387731.416 9  19900951.698
  20769120.144   -16324723.488 7 -12607790.242 9  20769122.769
  22314749.183    -9455345.493 6  -7273030.481 9  22314752.312
  22999484.831    -5125505.297 6  -3893260.857 9  22999488.335
  22442267.456    -7067969.775 6  -5403062.361 9  22442271.042
  21018865.800   -10402110.105 7  -8038100.238 9  21018867.897
 94  2 17 20 57 59.9990000  0  6 18 19 27 28 31 29
  19901933.847   -21209484.044 8 -16383702.893 9  19901935.382
  20765126.167   -16345712.946 7 -12624145.638 9  20765128.956
  22303538.315    -9514263.038 6  -7318940.214 9  22303541.784
  22998566.026    -5130330.331 6  -3897020.580 9  22998569.272
  22431281.198    -7125700.252 6  -5448047.103 9  22431284.937
  21030417.933   -10341402.668 7  -7990795.765 9  21030420.112
 94  2 17 20 58 29.9990000  0  6 18 19 27 28 31 29
  19903007.511   -21203842.032 8 -16379306.534 9  19903009.034
  20761173.386   -16366485.157 7 -12640331.764 9  20761176.093
  22292352.276    -9573044.304 6  -7364743.763 9  22292355.171
  22997755.925    -5134588.180 6  -3900338.350 9  22997759.499
  22420378.042    -7182995.171 6  -5492692.444 9  22420382.062
  21042055.972   -10280245.949 7  -7943141.196 9  21042057.917
 94  2 17 20 58 59.9990000  0  6 18 19 27 28 31 29
  19904173.761   -21197713.334 8 -16374530.933 9  19904175.413
  20757262.081   -16387037.552 7 -12656346.592 9  20757264.835
  22281196.136    -9631669.627 6  -7410425.793 9  22281199.511
  22997056.050    -5138264.914 6  -3903203.301 9  22997059.472
  22409557.698    -7239855.796 6  -5536999.368 9  22409562.011
  21053775.886   -10218655.719 7  -7895148.829 9  21053777.831
 94  2 17 20 59 29.9990000  0  6 18 19 27 28 31 29
  19905436.503   -21191078.205 8 -16369360.711 9  19905438.132
  20753392.956   -16407370.754 7 -12672190.634 9  20753395.499
  22270070.323    -9690133.803 6  -7455982.275 9  22270073.394
  22996469.159    -5141353.644 6  -3905610.070 9  22996472.124
  22398817.847    -7296296.692 6  -5580979.218 9  22398821.784
  21065573.987   -10156655.537 7  -7846837.024 9  21065576.214
 94  2 17 20 59 59.9990000  0  6 18 19 27 28 31 29
  19906795.683   -21183935.014 8 -16363794.595 9  19906797.335
  20749564.526   -16427490.318 7 -12687868.207 9  20749567.163
  22258975.847    -9748439.593 6  -7501415.333 9  22258979.093
  22995990.479    -5143867.961 6  -3907569.251 9  22995994.101
  22388155.784    -7352328.134 6  -5624639.993 9  22388159.370
  21077446.761   -10094265.295 7  -7798221.275 9  21077448.940
 94  2 17 21  0 29.9990000  0  6 18 19 27 28 31 29
  19908254.831   -21176267.519 8 -16357819.934 9  19908256.460
  20745778.862   -16447383.709 7 -12703369.535 9  20745781.312
  22247914.831    -9806566.153 6  -7546708.731 9  22247917.878
  22995621.651    -5145804.600 6  -3909078.296 9  22995624.979
  22377570.980    -7407948.674 6  -5667980.579 9  22377574.601
  21089395.261   -10031476.879 7  -7749295.259 9  21089397.089
 94  2 17 21  0 59.9990000  0  6 18 19 27 28 31 29
  19909815.948   -21168063.945 8 -16351427.540 9  19909817.636
  20742036.620   -16467049.026 7 -12718693.147 9  20742039.151
  22236885.604    -9864523.193 6  -7591870.046 9  22236888.593
  22995360.808    -5147175.260 6  -3910146.294 9  22995364.534
  22367063.120    -7463167.083 6  -5711007.825 9  22367067.140
  21101420.269    -9968283.866 7  -7700053.973 9  21101422.296
 94  2 17 21  1 29.9990000  0  6 18 19 27 28 31 29
  19911477.206   -21159332.265 8 -16344623.636 9  19911478.765
  20738337.144   -16486488.718 7 -12733840.946 9  20738339.663
  22225886.854    -9922322.076 6  -7636908.102 9  22225890.241
  22995204.456    -5147994.482 6  -3910784.583 9  22995208.534
  22356633.800    -7517974.888 6  -5753715.115 9  22356637.702
  21113525.253    -9904672.258 7  -7650486.514 9  21113527.222
 94  2 17 21  1 59.9990000  0  6 18 19 27 28 31 29
  19913236.214   -21150090.687 8 -16337422.409 9  19913237.878
  20734678.581   -16505714.288 7 -12748821.902 9  20734681.288
  22214917.370    -9979965.692 6  -7681825.183 9  22214920.265
  22995150.581    -5148277.454 6  -3911005.022 9  22995153.827
  22346282.323    -7572372.640 6  -5796102.898 9  22346285.851
  21125711.112    -9840635.553 7  -7600587.807 9  21125713.104
 94  2 17 21  2 29.9990000  0  6 18 19 27 28 31 29
  19915093.058   -21140331.604 8 -16329817.927 9  19915095.003
  20731061.261   -16524724.221 7 -12763634.828 9  20731064.108
  22203976.284   -10037464.622 6  -7726629.523 9  22203979.401
  22995200.534    -5148016.348 6  -3910801.488 9  22995204.120
  22336011.245    -7626345.646 6  -5838159.721 9  22336014.597
  21137981.729    -9776154.193 7  -7550342.622 9  21137983.804
 94  2 17 21  2 59.9990000  0  6 18 19 27 28 31 29
  19917047.308   -21130062.321 8 -16321815.883 9  19917049.194
  20727486.503   -16543510.518 7 -12778273.483 9  20727489.151
  22193061.261   -10094822.116 6  -7771323.650 9  22193064.659
  22995355.565    -5147195.966 6  -3910162.144 9  22995358.741
  22325824.979    -7679875.362 6  -5879871.122 9  22325827.933
  21150337.667    -9711223.202 7  -7499747.071 9  21150339.565
 94  2 17 21  3 29.9990000  0  6 18 19 27 28 31 29
  19919097.253   -21119289.959 8 -16313421.832 9  19919098.894
  20723953.519   -16562073.898 7 -12792738.440 9  20723956.179
  22182173.612   -10152033.772 6  -7815904.143 9  22182176.858
  22995618.558    -5145818.684 6  -3909088.866 9  22995622.343
  22315724.706    -7732951.681 6  -5921229.250 9  22315728.022
  21162776.995    -9645854.621 7  -7448810.538 9  21162778.929
 94  2 17 21  3 59.9990000  0  6 18 19 27 28 31 29
  19921245.394   -21108001.369 8 -16304625.523 9  19921247.011
  20720465.831   -16580403.631 7 -12807021.341 9  20720468.562
  22171313.269   -10209107.165 6  -7860376.887 9  22171316.327
  22995987.597    -5143878.199 6  -3907576.736 9  22995991.112
  22305711.042    -7785575.856 6  -5962235.075 9  22305714.663
  21175298.651    -9580050.926 7  -7397534.958 9  21175300.491
 94  2 17 21  4 29.9990000  0  6 18 19 27 28 31 29
  19923491.831   -21096196.097 8 -16295426.602 9  19923493.729
  20717022.464   -16598500.037 7 -12821122.418 9  20717025.054
  22160477.495   -10266050.690 6  -7904748.434 9  22160480.612
  22996466.222    -5141362.790 6  -3905616.616 9  22996469.784
  22295782.940    -7837748.116 6  -6002888.774 9  22295786.245
  21187902.644    -9513815.853 7  -7345923.237 9  21187904.765
 94  2 17 21  4 59.9990000  0  6 18 19 27 28 31 29
  19925836.315   -21083875.316 8 -16285825.986 9  19925838.073
  20713624.245   -16616356.143 7 -12835036.251 9  20713626.964
  22149668.667   -10322848.529 6  -7949006.451 9  22149671.808
  22997055.073    -5138268.419 6  -3903205.359 9  22997058.249
  22285940.862    -7889469.850 6  -6043191.422 9  22285944.003
  21200588.597    -9447152.574 7  -7293977.850 9  21200590.917
 94  2 17 21  5 29.9990000  0  6 18 19 27 28 31 29
  19928279.058   -21071038.521 8 -16275823.277 9  19928280.780
  20710271.839   -16633973.575 7 -12848764.105 9  20710274.558
  22138888.698   -10379501.201 6  -7993151.348 9  22138892.237
  22997753.690    -5134599.750 6  -3900346.602 9  22997756.644
  22276181.190    -7940752.965 6  -6083152.299 9  22276184.683
  21213355.745    -9380059.166 7  -7241697.297 9  21213358.077
 94  2 17 21  5 59.9990000  0  6 18 19 27 28 31 29
  19930817.472   -21057700.202 8 -16265429.772 9  19930819.323
  20706963.042   -16651360.593 7 -12862312.418 9  20706965.913
  22128134.151   -10436014.412 6  -8037187.585 9  22128137.456
  22998562.050    -5130349.851 6  -3897034.964 9  22998565.214
  22266504.917    -7991603.780 6  -6122776.340 9  22266508.104
  21226203.558    -9312543.016 7  -7189087.333 9  21226206.112
 94  2 17 21  6 29.9990000  0  6 18 19 27 28 31 29
  19933447.581   -21043877.320 8 -16254658.684 9  19933449.315
  20703696.190   -16668527.385 7 -12875689.121 9  20703698.897
  22117410.308   -10492367.262 6  -8081098.851 9  22117413.308
  22999482.276    -5125513.425 6  -3893266.292 9  22999485.405
  22256912.331    -8042013.813 6  -6162056.914 9  22256915.354
  21239131.245    -9244609.493 7  -7136152.148 9  21239133.612
 94  2 17 21  6 59.9990000  0  6 18 19 27 28 31 29
  19936171.659   -21029561.171 8 -16243503.230 9  19936173.581
  20700473.980   -16685461.019 7 -12888884.146 9  20700476.733
  22106719.964   -10548545.377 6  -8124873.963 9  22106723.315
  23000516.237    -5120079.510 6  -3889032.079 9  23000519.249
  22247404.651    -8091978.102 7  -6200990.150 9  22247408.003
  21252137.925    -9176259.653 7  -7082892.551 9  21252140.562
 94  2 17 21  7 29.9990000  0  6 18 19 27 28 31 29
  19938989.878   -21014751.877 8 -16231963.506 9  19938991.601
  20697295.628   -16702162.324 7 -12901898.137 9  20697298.265
  22096062.401   -10604552.245 6  -8168515.635 9  22096065.390
  23001663.331    -5114053.572 6  -3884336.535 9  23001666.589
  22237982.347    -8141491.966 6  -6239572.413 9  22237985.757
  21265222.550    -9107497.688 7  -7029311.816 9  21265224.894
 94  2 17 21  7 59.9990000  0  6 18 19 27 28 31 29
  19941905.995   -20999428.625 8 -16220023.299 9  19941907.870
  20694161.995   -16718630.002 7 -12914730.082 9  20694164.679
  22085439.112   -10660377.443 6  -8212015.736 9  22085442.042
  23002924.237    -5107427.602 6  -3879173.437 9  23002927.495
  22228650.808    -8190526.965 6  -6277781.536 9  22228654.394
  21278388.690    -9038309.951 7  -6975399.309 9  21278390.987
 94  2 17 21  8 29.9990000  0  6 18 19 27 28 31 29
  19944922.831   -20983574.455 8 -16207669.385 9  19944924.659
  20691073.558   -16734861.292 7 -12927377.824 9  20691076.019
  22074849.894   -10716021.549 6  -8255374.727 9  22074853.058
  23004296.589    -5100214.391 6  -3873552.743 9  23004298.991
  22219411.183    -8239082.766 6  -6315617.230 9  22219414.417
  21291636.886    -8968689.696 7  -6921149.772 9  21291639.323
 94  2 17 21  8 59.9990000  0  6 18 19 27 28 31 29
  19948043.206   -20967176.928 8 -16194892.081 9  19948044.917
  20688031.339   -16750849.258 7 -12939835.964 9  20688033.940
  22064292.284   -10771504.662 6  -8298608.279 9  22064295.343
  23005779.105    -5092424.093 6  -3867482.361 9  23005781.905
  22210261.604    -8287164.189 6  -6353083.276 9  22210264.569
  21304967.542    -8898635.723 7  -6866562.284 9  21304970.097
 94  2 17 21  9 29.9990000  0  6 18 19 27 28 31 29
  19951265.409   -20950244.749 8 -16181698.155 9  19951267.214
  20685032.706   -16766604.392 7 -12952112.675 9  20685035.448
  22053763.151   -10826836.159 6  -8341723.697 9  22053766.151
  23007366.042    -5084083.370 6  -3860983.084 9  23007368.890
  22201203.128    -8334767.438 6  -6390176.691 9  22201206.011
  21318380.073    -8828151.529 7  -6811639.551 9  21318382.429
 94  2 17 21  9 59.9990000  0  6 18 19 27 28 31 29
  19954588.862   -20932780.291 8 -16168089.475 9  19954590.983
  20682078.683   -16782128.512 7 -12964209.383 9  20682081.565
  22043263.667   -10882011.339 6  -8384717.301 9  22043266.890
  23009059.339    -5075185.796 6  -3854049.904 9  23009062.784
  22192232.300    -8381908.720 6  -6426910.114 9  22192235.980
  21331874.058    -8757242.012 7  -6756385.397 9  21331876.577
 94  2 17 21 10 29.9990000  0  6 18 19 27 28 31 29
  19958010.479   -20914798.472 8 -16154077.656 9  19958012.437
  20679167.276   -16797428.140 7 -12976131.158 9  20679169.925
  22032792.886   -10937036.600 6  -8427594.092 9  22032796.050
  23010856.214    -5065741.954 6  -3846691.057 9  23010859.729
  22183344.042    -8428615.825 6  -6463305.196 9  22183347.312
  21345445.167    -8685926.525 7  -6700814.905 9  21345447.757
 94  2 17 21 10 59.9990000  0  6 18 19 27 28 31 29
  19961529.925   -20896303.696 8 -16139666.127 9  19961531.694
  20676296.675   -16812511.881 7 -12987884.702 9  20676299.300
  22022350.206   -10991909.097 6  -8470351.840 9  22022353.405
  23012758.808    -5055743.763 6  -3838900.228 9  23012762.288
  22174539.901    -8474882.027 6  -6499356.680 9  22174543.405
  21359093.831    -8614200.773 7  -6644924.719 9  21359096.269
 94  2 17 21 11 29.9990000  0  6 18 19 27 28 31 29
  19965146.190   -20877299.919 8 -16124857.984 9  19965147.784
  20673465.183   -16827392.010 7 -12999479.592 9  20673467.632
  22011939.722   -11046619.035 6  -8512982.913 9  22011942.792
  23014769.339    -5045180.787 6  -3830669.325 9  23014772.233
  22165820.206    -8520704.207 6  -6535062.160 9  22165823.300
  21372820.651    -8542067.703 7  -6588717.154 9  21372822.925
 94  2 17 21 11 59.9990000  0  6 18 19 27 28 31 29
  19968864.831   -20857758.659 8 -16109631.014 9  19968866.448
  20670674.034   -16842059.761 7 -13010908.995 9  20670676.601
  22001561.659   -11101155.484 6  -8555478.807 9  22001564.624
  23016892.448    -5034024.364 6  -3821975.972 9  23016895.167
  22157188.972    -8566062.134 6  -6570405.862 9  22157192.065
  21386627.979    -8469509.679 7  -6532178.447 9  21386630.030
 94  2 17 21 12 29.9990000  0  6 18 19 27 28 31 29
  19972686.065   -20837677.638 8 -16093983.452 9  19972687.858
  20667922.034   -16856521.574 7 -13022177.924 9  20667924.694
  21991216.081   -11155522.812 6  -8597842.916 9  21991219.151
  23019128.823    -5022274.254 6  -3812820.004 9  23019131.390
  22148652.659    -8610919.060 6  -6605359.161 9  22148655.847
  21400516.550    -8396524.844 7  -6475307.154 9  21400518.940
 94  2 17 21 12 59.9990000  0  6 18 19 27 28 31 29
  19976608.097   -20817068.274 8 -16077924.199 9  19976610.065
  20665210.573   -16870770.113 7 -13033280.672 9  20665213.233
  21980900.940   -11209730.107 6  -8640082.329 9  21980904.175
  23021478.440    -5009924.728 6  -3803196.941 9  23021481.288
  22140214.862    -8655259.674 6  -6639910.142 9  22140218.261
  21414483.995    -8323124.382 7  -6418112.003 9  21414486.362
 94  2 17 21 13 29.9990000  0  6 18 19 27 28 31 29
  19980630.034   -20795933.213 8 -16061455.320 9  19980631.710
  20662542.831   -16884789.411 7 -13044204.780 9  20662545.397
  21970613.808   -11263786.652 6  -8682204.278 9  21970617.136
  23023943.589    -4996971.873 6  -3793103.765 9  23023946.366
  22131878.198    -8699070.221 6  -6674048.086 9  22131881.468
  21428529.972    -8249314.026 7  -6360597.452 9  21428531.999
 94  2 17 21 13 59.9990000  0  6 18 19 27 28 31 29
  19984750.706   -20774278.016 8 -16044581.133 9  19984752.476
  20659921.753   -16898563.302 7 -13054937.660 9  20659924.343
  21960354.034   -11317701.710 6  -8724215.965 9  21960357.351
  23026522.620    -4983416.569 6  -3782541.152 9  23026525.972
  22123642.644    -8742345.964 6  -6707769.298 9  22123645.726
  21442653.315    -8175095.394 7  -6302764.770 9  21442655.261
 94  2 17 21 14 29.9990000  0  6 18 19 27 28 31 29
  19988967.776   -20752116.942 8 -16027312.758 9  19988969.511
  20657348.886   -16912083.622 7 -13065472.956 9  20657351.569
  21950121.729   -11371471.519 6  -8766114.469 9  21950124.894
  23029214.784    -4969266.544 6  -3771515.104 9  23029218.065
  22115505.729    -8785104.583 6  -6741087.558 9  22115508.964
  21456851.315    -8100484.576 7  -6244626.484 9  21456853.331
 94  2 17 21 14 59.9990000  0  6 18 19 27 28 31 29
  19993281.675   -20729447.621 8 -16009648.348 9  19993283.597
  20654826.433   -16925338.914 7 -13075801.739 9  20654829.116
  21939916.690   -11425098.226 6  -8807901.463 9  21939919.831
  23032019.120    -4954534.042 6  -3760035.173 9  23032022.331
  22107462.214    -8827372.270 6  -6774023.286 9  22107465.847
  21471123.183    -8025485.733 7  -6186185.848 9  21471125.304
 94  2 17 21 15 29.9990000  0  6 18 19 27 28 31 29
  19997694.565   -20706256.914 8 -15991577.667 9  19997696.358
  20652352.331   -16938340.362 7 -13085932.714 9  20652354.909
  21929740.237   -11478579.253 6  -8849574.942 9  21929743.331
  23034931.042    -4939228.831 6  -3748108.978 9  23034933.409
  22099509.081    -8869166.748 6  -6806590.292 9  22099512.351
  21485470.854    -7950087.879 7  -6127434.291 9  21485472.788
 94  2 17 21 15 59.9990000  0  6 18 19 27 28 31 29
  20002211.925   -20682519.225 8 -15973080.766 9  20002213.812
  20649925.870   -16951091.307 7 -13095868.492 9  20649928.483
  21919596.636   -11531881.518 6  -8891109.127 9  21919599.894
  23037953.417    -4923344.267 6  -3735731.330 9  23037955.819
  22091646.956    -8910481.492 6  -6838783.483 9  22091650.261
  21499897.675    -7874275.607 7  -6068359.809 9  21499899.479
 94  2 17 21 16 29.9990000  0  6 18 19 27 28 31 29
  20006833.886   -20658230.071 8 -15954154.154 9  20006835.655
  20647542.198   -16963617.647 7 -13105629.265 9  20647544.940
  21909487.042   -11585008.417 6  -8932506.665 9  21909490.077
  23041084.628    -4906889.654 6  -3722909.488 9  23041087.312
  22083876.409    -8951316.208 6  -6870602.641 9  22083879.550
  21514402.144    -7798053.434 7  -6008965.930 9  21514403.960
 94  2 17 21 16 59.9990000  0  6 18 19 27 28 31 29
  20011561.667   -20633385.258 8 -15934794.561 9  20011563.542
  20645198.706   -16975931.834 7 -13115224.728 9  20645201.413
  21899409.964   -11637964.578 6  -8973771.165 9  21899412.894
  23044326.964    -4889852.246 6  -3709633.536 9  23044329.565
  22076201.503    -8991646.501 6  -6902028.755 9  22076204.667
  21528987.714    -7721404.474 7  -5949239.487 9  21528989.788
 94  2 17 21 17 29.9990000  0  7 18  2 19 27 28 31 29
  20016395.042   -20607985.048 8 -15915002.196 9  20016397.022
  24129421.644      -65369.91515
  20642892.628   -16988051.695 7 -13124668.758 9  20642895.335
  21889364.565   -11690753.025 6  -9014904.983 9  21889367.624
  23047681.628    -4872221.820 6  -3695895.500 9  23047684.417
  22068625.065    -9031461.433 6  -6933053.298 9  22068628.288
  21543654.917    -7644327.688 7  -5889179.680 9  21543657.132
 94  2 17 21 17 59.9990000  0  7 18  2 19 27 28 31 29
  20021331.901   -20582043.000 8 -15894787.620 9  20021333.800
  24113229.972     -150458.830 5
  20640621.745   -16999983.867 7 -13133966.546 9  20640624.335
  21879349.987   -11743381.145 6  -9055913.867 9  21879353.011
  23051148.683    -4854004.560 6  -3681700.209 9  23051151.437
  22061149.050    -9070746.838 6  -6963665.230 9  22061152.565
  21558400.261    -7566841.230 7  -5828800.643 9  21558402.440
 94  2 17 21 18 29.9990000  0  7 18  2 19 27 28 31 29
  20026367.019   -20555582.553 8 -15874169.099 9  20026368.894
  24097076.870     -235343.005 5    -39664.50519  24097082.190
  20638389.956   -17011712.059 7 -13143105.391 9  20638392.569
  21869363.722   -11795859.553 6  -9096806.088 9  21869367.050
  23054726.253    -4835203.432 6  -3667049.950 9  23054729.370
  22053773.394    -9109507.131 6  -6993867.973 9  22053776.593
  21573222.409    -7488950.886 7  -5768106.893 9  21573224.519
 94  2 17 21 18 59.9990000  0  7 18  2 19 27 28 31 29
  20031499.612   -20528610.279 8 -15853151.746 9  20031501.546
  24080963.511     -320017.880 5   -105644.764 9  24080969.335
  20636202.229   -17023208.525 7 -13152063.665 9  20636204.948
  21859408.823   -11848173.061 6  -9137569.830 9  21859411.812
  23058415.737    -4815813.810 6  -3651941.127 9  23058418.526
  22046497.042    -9147742.958 6  -7023662.061 9  22046500.464
  21588123.401    -7410645.363 7  -5707089.630 9  21588125.780
 94  2 17 21 19 29.9990000  0  7 18  2 19 27 28 31 29
  20036729.073   -20501129.579 8 -15831738.224 9  20036730.937
  24064887.948     -404495.822 5   -171471.625 9  24064892.776
  20634060.792   -17034461.377 7 -13160832.116 9  20634063.171
  21849486.026   -11900314.856 6  -9178199.769 9  21849488.792
  23062215.394    -4795847.919 6  -3636383.282 9  23062218.265
  22039320.104    -9185460.107 6  -7053051.984 9  22039323.386
  21603101.839    -7331931.282 7  -5645754.009 9  21603104.183
 94  2 17 21 19 59.9990000  0  7 18  2 19 27 28 31 29
  20042053.292   -20473150.154 8 -15809936.084 9  20042055.249
  24048848.612     -488780.578 5   -237147.960 9  24048854.132
  20631967.292   -17045464.194 7 -13169405.735 9  20631969.683
  21839598.386   -11952276.902 6  -9218689.646 9  21839601.210
  23066123.753    -4775309.600 6  -3620379.390 9  23066126.800
  22032240.979    -9222659.251 7  -7082038.276 9  22032244.179
  21618156.737    -7252818.999 7  -5584108.105 9  21618159.081
 94  2 17 21 20 29.9990000  0  7 18  2 19 27 28 31 29
  20047475.808   -20444654.661 8 -15787731.816 9  20047477.929
  24032852.042     -572846.041 5   -302653.392 9  24032857.093
  20629924.050   -17056200.522 7 -13177771.706 9  20629926.511
  21829747.300   -12004042.986 6  -9259026.827 9  21829750.558
  23070145.714    -4754174.589 6  -3603910.555 9  23070148.456
  22025263.183    -9259330.452 7  -7110613.186 9  22025266.429
  21633290.925    -7173288.665 7  -5522136.444 9  21633293.163
 94  2 17 21 20 59.9990000  0  7 18  2 19 27 28 31 29
  20052999.206   -20415629.759 8 -15765115.020 9  20053001.175
  24016895.386     -656695.253 5   -367990.331 9  24016900.659
  20627927.120   -17066694.071 7 -13185948.488 9  20627929.687
  21819930.300   -12055634.151 6  -9299227.708 9  21819932.831
  23074280.472    -4732446.049 6  -3586979.239 9  23074283.097
  22018384.206    -9295478.423 7  -7138780.382 9  22018387.300
  21648501.753    -7093356.120 7  -5459851.382 9  21648504.190
 94  2 17 21 21 29.9990000  0  7 18  2 19 27 28 31 29
  20058624.784   -20386067.454 8 -15742079.462 9  20058626.624
  24000980.761     -740329.078 5   -433159.443 9  24000985.308
  20625973.300   -17076963.668 7 -13193950.764 9  20625975.726
  21810142.315   -12107068.711 6  -9339306.564 9  21810145.046
  23078528.909    -4710120.326 6  -3569582.578 9  23078531.722
  22011606.112    -9331096.130 7  -7166534.389 9  22011609.452
  21663785.729    -7013037.802 7  -5397265.708 9  21663788.003
 94  2 17 21 21 59.9990000  0  7 18  2 19 27 28 31 29
  20064352.386   -20355968.264 8 -15718625.559 9  20064354.284
  23985111.323     -823720.672 5   -498139.792 9  23985116.479
  20624061.151   -17087010.382 7 -13201779.363 9  20624063.601
  21800382.058   -12158356.740 6  -9379271.229 9  21800384.905
  23082892.901    -4687187.806 6  -3551713.082 9  23082896.089
  22004927.729    -9366192.786 7  -7193882.395 9  22004930.882
  21679143.269    -6932333.455 7  -5334379.239 9  21679145.800
 94  2 17 21 22 29.9990000  0  7 18  2 19 27 28 31 29
  20070182.198   -20325331.971 8 -15694753.135 9  20070184.085
  23969289.315     -906866.642 5   -562928.742 9  23969294.144
  20622191.308   -17096836.952 7 -13209436.420 9  20622193.593
  21790646.253   -12209520.272 6  -9419138.892 9  21790648.937
  23087370.909    -4663651.521 6  -3533373.123 9  23087374.425
  21998348.089    -9400768.621 7  -7220824.558 9  21998350.995
  21694575.136    -6851238.178 7  -5271188.151 9  21694577.702
 94  2 17 21 22 59.9990000  0  7 18  2 19 27 28 31 29
  20076112.815   -20294166.122 8 -15670468.066 9  20076114.796
  23953508.378     -989797.180 5   -627549.805 9  23953513.757
  20620361.479   -17106453.355 7 -13216929.710 9  20620363.858
  21780933.065   -12260561.180 6  -9458910.999 9  21780936.124
  23091961.948    -4639528.551 6  -3514576.006 9  23091965.007
  21991866.839    -9434829.268 7  -7247365.278 9  21991869.769
  21710081.151    -6769754.266 7  -5207694.237 9  21710083.519
 94  2 17 21 23 29.9990000  0  7 18  2 19 27 28 31 29
  20082143.003   -20262477.836 8 -15645775.908 9  20082145.101
  23937766.722    -1072515.024 5   -692005.161 9  23937772.417
  20618574.026   -17115846.662 7 -13224249.163 9  20618576.604
  21771248.128   -12311459.172 6  -9498571.745 9  21771250.894
  23096664.175    -4614818.740 6  -3495321.592 9  23096667.538
  21985483.190    -9468373.734 7  -7273503.789 9  21985486.483
  21725662.386    -6687875.372 7  -5143892.548 9  21725664.718
 94  2 17 21 23 59.9990000  0  7 18  2 19 27 28 31 29
  20088273.722   -20230261.164 8 -15620672.008 9  20088275.796
  23922064.925    -1155029.905 5   -756302.341 9  23922069.964
  20616830.651   -17125007.953 7 -13231387.812 9  20616833.159
  21761592.386   -12362199.365 6  -9538109.518 9  21761595.421
  23101476.440    -4589529.935 6  -3475616.003 9  23101479.358
  21979198.925    -9501398.893 7  -7299237.629 9  21979201.878
  21741319.276    -6605597.062 7  -5079779.618 9  21741321.409
 94  2 17 21 24 29.9990000  0  7 18  2 19 27 28 31 29
  20094507.784   -20197501.083 8 -15595144.687 9  20094510.058
  23906396.964    -1237365.052 5   -820459.493 9  23906402.026
  20615132.964   -17133929.380 7 -13238339.557 9  20615135.448
  21751968.917   -12412770.990 6  -9577515.956 9  21751971.647
  23106398.081    -4563667.137 6  -3455463.137 9  23106401.116
  21973019.034    -9533873.950 7  -7324542.824 9  21973021.823
  21757052.394    -6522918.782 7  -5015355.031 9  21757054.854
 94  2 17 21 24 59.9990000  0  7 18  2 19 27 28 31 29
  20100847.011   -20164187.213 8 -15569185.836 9  20100849.249
  23890763.722    -1319518.748 5   -884475.229 9  23890770.132
  20613482.659   -17142600.780 7 -13245096.471 9  20613484.979
  21742381.769   -12463152.220 6  -9616774.023 9  21742384.710
  23111428.058    -4537231.409 6  -3434863.824 9  23111431.937
  21966945.472    -9565790.476 7  -7349412.806 9  21966948.437
  21772860.237    -6439848.501 7  -4950624.991 9  21772862.921
 94  2 17 21 25 29.9990000  0  7 18  2 19 27 28 31 29
  20107291.448   -20130322.258 8 -15542797.572 9  20107293.698
  23875170.925    -1401460.933 5   -948326.186 9  23875175.917
  20611882.917   -17151007.205 7 -13251646.911 9  20611885.472
  21732830.503   -12513342.532 6  -9655883.325 9  21732833.503
  23116570.401    -4510209.015 6  -3413807.369 9  23116574.022
  21960982.128    -9597127.729 7  -7373831.407 9  21960984.999
  21788742.026    -6356390.739 7  -4885593.022 9  21788744.440
 94  2 17 21 25 59.9990000  0  7 18  2 19 27 28 31 29
  20113840.401   -20095907.163 8 -15515980.621 9  20113842.534
  23859618.769    -1483184.901 5  -1012007.134 9  23859623.937
  20610331.362   -17159161.589 7 -13258000.960 9  20610333.776
  21723313.737   -12563351.198 6  -9694851.083 9  21723316.526
  23121822.347    -4482607.251 6  -3392299.462 9  23121826.108
  21955130.425    -9627879.544 7  -7397793.824 9  21955133.237
  21804697.690    -6272542.515 7  -4820256.794 9  21804699.952
 94  2 17 21 26 29.9990000  0  7 18  2 19 27 28 31 29
  20120490.409   -20060960.176 8 -15488749.211 9  20120492.589
  23844109.269    -1564687.670 5  -1075515.674 9  23844114.237
  20608824.800   -17167079.299 7 -13264170.602 9  20608826.979
  21713831.761   -12613183.936 6  -9733681.754 9  21713834.620
  23127184.722    -4454427.865 6  -3370341.453 9  23127188.894
  21949387.050    -9658060.609 7  -7421311.505 9  21949389.897
  21820728.112    -6188305.159 7  -4754617.349 9  21820730.339
 94  2 17 21 26 59.9990000  0  7 18  2 19 27 28 31 29
  20127242.362   -20025478.790 8 -15461101.385 9  20127244.624
  23828646.378    -1645944.593 5  -1138832.674 9  23828652.249
  20607363.112   -17174759.006 7 -13270154.772 9  20607365.292
  21704385.065   -12662824.768 6  -9772362.891 9  21704387.948
  23132660.792    -4425649.998 6  -3347917.083 9  23132664.120
  21943748.979    -9687686.989 7  -7444396.958 9  21943751.745
  21836835.776    -6103656.663 7  -4688657.535 9  21836838.062
 94  2 17 21 27 29.9990000  0  7 18  2 19 27 28 31 29
  20134091.667   -19989486.960 8 -15433055.814 9  20134093.835
  23813228.987    -1726963.012 5  -1201963.849 9  23813234.589
  20605943.722   -17182218.987 7 -13275967.732 9  20605946.136
  21694971.894   -12712289.762 6  -9810907.010 9  21694974.870
  23138249.862    -4396280.478 6  -3325031.689 9  23138253.050
  21938214.589    -9716771.651 7  -7467060.297 9  21938217.190
  21853022.839    -6018593.490 7  -4622374.604 9  21853025.030
 94  2 17 21 27 59.9990000  0  7 18  2 19 27 28 31 29
  20141040.644   -19952968.574 8 -15404599.938 9  20141042.823
  23797854.761    -1807755.007 5  -1264918.582 9  23797859.624
  20604563.737   -17189469.863 7 -13281617.762 9  20604566.245
  21685592.183   -12761581.652 6  -9849316.248 9  21685595.218
  23143949.745    -4366325.294 6  -3301689.931 9  23143953.097
  21932782.792    -9745316.048 7  -7489302.658 9  21932785.862
  21869288.948    -5933114.870 7  -4555767.942 9  21869291.093
 94  2 17 21 28 29.9990000  0  7 18  2 19 27 28 31 29
  20148089.776   -19915923.646 8 -15375733.768 9  20148092.085
  23782523.183    -1888324.172 5  -1327699.698 9  23782528.479
  20603223.964   -17196509.952 7 -13287103.538 9  20603226.472
  21676244.776   -12810701.704 6  -9887591.579 9  21676247.765
  23149763.097    -4335776.489 6  -3277885.636 9  23149766.237
  21927452.901    -9773322.858 7  -7511126.118 9  21927455.644
  21885630.659    -5847237.480 7  -4488850.552 9  21885632.956
 94  2 17 21 28 59.9990000  0  7 18  2 19 27 28 31 29
  20155239.917   -19878350.538 8 -15346456.034 9  20155242.272
  23767236.089    -1968660.684 5  -1390299.518 9  23767241.257
  20601924.808   -17203338.574 7 -13292424.544 9  20601927.104
  21666928.347   -12859659.972 6  -9925740.850 9  21666931.136
  23155687.745    -4304638.711 5  -3253622.402 9  23155690.769
  21922229.253    -9800774.574 7  -7532517.042 9  21922232.054
  21902043.761    -5760986.385 7  -4421641.969 9  21902046.081
 94  2 17 21 29 29.9990000  0  7 18  2 19 27 28 31 29
  20162493.300   -19840233.914 8 -15316754.779 9  20162495.784
  23751995.425    -2048750.086 5  -1452706.789 9  23752001.308
  20600667.198   -17209946.698 7 -13297573.735 9  20600669.706
  21657644.019   -12908447.971 6  -9963757.446 9  21657646.995
  23161724.269    -4272920.488 6  -3228906.881 9  23161727.655
  21917116.175    -9827643.617 7  -7553453.928 9  21917119.046
  21918524.948    -5674378.451 7  -4354155.332 9  21918527.585
 94  2 17 21 29 59.9990000  0  7 18  2 19 27 28 31 29
  20169854.769   -19801549.009 8 -15286610.709 9  20169857.288
  23736801.339    -2128591.842 5  -1514921.098 9  23736806.354
  20599451.253   -17216336.805 7 -13302553.046 9  20599453.854
  21648392.487   -12957065.267 6 -10001641.024 9  21648395.476
  23167871.503    -4240616.298 6  -3203734.790 9  23167874.550
  21912115.269    -9853922.232 7  -7573930.749 9  21912118.163
  21935072.456    -5587418.217 6  -4286394.178 9  21935075.187
 94  2 17 21 30 29.9990000  0  7 18  2 19 27 28 31 29
  20177323.628   -19762299.591 8 -15256026.754 9  20177326.147
  23721658.948    -2208168.786 5  -1576929.045 9  23721663.894
  20598278.394   -17222500.141 7 -13307355.648 9  20598280.866
  21639176.003   -13005502.399 7 -10039384.211 9  21639178.991
  23174131.542    -4207717.717 6  -3178099.531 9  23174134.448
  21907227.823    -9879606.941 7  -7593944.780 9  21907230.800
  21951689.198    -5500096.484 6  -4218351.339 9  21951692.058
 94  2 17 21 30 59.9990000  0  7 18  2 19 27 28 31 29
  20184897.480   -19722498.128 8 -15225012.634 9  20184899.952
  23706565.089    -2287483.678 5  -1638732.810 9  23706570.503
  20597149.550   -17228431.738 7 -13311977.669 9  20597152.187
  21629992.183   -13053759.605 6 -10076987.205 9  21629995.171
  23180505.886    -4174224.714 6  -3152001.095 9  23180508.370
  21902453.987    -9904691.688 7  -7613491.308 9  21902456.835
  21968377.534    -5412402.272 6  -4150018.259 9  21968380.147
 94  2 17 21 31 29.9990000  0  7 18  2 19 27 28 31 29
  20192575.112   -19682152.439 8 -15193574.443 9  20192577.573
  23691518.847    -2366555.720 5  -1700347.341 9  23691524.401
  20596064.706   -17234133.877 7 -13316420.892 9  20596067.202
  21620842.565   -13101843.111 6 -10114454.848 9  21620845.565
  23186992.347    -4140137.279 6  -3125439.464 9  23186994.175
  21897792.956    -9929187.033 7  -7632578.552 9  21897795.886
  21985138.683    -5324319.660 6  -4081382.524 9  21985141.132
 94  2 17 21 31 59.9990000  0  7 18  2 19 27 28 31 29
  20200354.964   -19641268.666 8 -15161716.970 9  20200357.425
  23676515.823    -2445393.644 5  -1761779.418 9  23676521.788
  20595024.612   -17239599.237 7 -13320679.610 9  20595026.944
  21611724.433   -13149757.234 6 -10151790.504 9  21611727.292
  23193595.847    -4105436.216 6  -3098399.694 9  23193598.120
  21893244.565    -9953089.022 7  -7651203.441 9  21893247.542
  22001978.112    -5235828.573 6  -4012428.498 9  22001980.655
 94  2 17 21 32 29.9990000  0  7 18  2 19 27 28 31 29
  20208234.597   -19599861.009 8 -15129451.267 9  20208236.952
  23661557.433    -2524002.313 5  -1823032.864 9  23661561.897
  20594031.261   -17244819.023 7 -13324746.966 9  20594033.417
  21602639.120   -13197500.112 6 -10188992.724 9  21602641.827
  23200313.862    -4070131.598 6  -3070889.630 9  23200316.206
  21888806.886    -9976407.648 7  -7669373.746 9  21888809.815
  22018894.464    -5146933.307 6  -3943159.528 9  22018896.749
 94  2 17 21 32 59.9990000  0  7 18  2 19 27 28 31 29
  20216213.300   -19557933.897 8 -15096780.796 9  20216215.772
  23646639.190    -2602397.892 5  -1884120.264 9  23646643.503
  20593083.050   -17249802.157 7 -13328629.915 9  20593085.323
  21593587.011   -13245070.796 6 -10226060.769 9  21593589.823
  23207146.612    -4034226.692 6  -3042911.825 9  23207149.425
  21884478.081    -9999155.679 7  -7687099.432 9  21884480.776
  22035884.339    -5057649.865 6  -3873588.078 9  22035887.069
 94  2 17 21 33 29.9990000  0  7 18  2 19 27 28 31 29
  20224296.534   -19515456.610 7 -15063681.618 9  20224299.030
  23631764.206    -2680568.363 5  -1945032.213 9  23631768.718
  20592180.831   -17254542.838 7 -13332323.938 9  20592183.081
  21584568.964   -13292461.066 6 -10262988.221 9  21584571.647
  23214092.776    -3997725.966 6  -3014469.710 9  23214095.272
  21880258.558   -10021329.957 7  -7704378.024 9  21880261.077
  22052950.737    -4967968.092 6  -3803706.239 9  22052953.737
 94  2 17 21 33 59.9990000  0  7 18  2 19 27 28 31 29
  20232485.690   -19472421.169 7 -15030147.513 9  20232488.198
  23616934.300    -2758498.364 5  -2005756.825 9  23616940.112
  20591325.034   -17259041.190 8 -13335829.128 9  20591327.355
  21575586.589   -13339663.089 6 -10299768.990 9  21575589.694
  23221150.933    -3960635.328 6  -2985567.926 9  23221153.218
  21876147.683   -10042933.129 7  -7721211.583 9  21876150.378
  22070091.550    -4877890.680 6  -3733516.108 9  22070094.515
 94  2 17 21 34 29.9990000  0  7 18  2 19 27 28 31 29
  20240782.167   -19428822.348 7 -14996174.412 9  20240784.757
  23602152.784    -2836169.991 5  -2066280.088 9  23602158.901
  20590515.878   -17263293.313 7 -13339142.451 9  20590518.022
  21566640.628   -13386674.857 6 -10336401.508 9  21566643.534
  23228320.644    -3922959.168 6  -2956209.899 9  23228322.753
  21872144.729   -10063967.473 7  -7737601.895 9  21872147.319
  22087305.487    -4787430.720 6  -3663027.904 9  22087308.218
 94  2 17 21 34 59.9990000  0  7 18  2 19 27 28 31 29
  20249185.315   -19384664.304 7 -14961765.559 9  20249187.870
  23587424.308    -2913570.652 5  -2126592.209 9  23587430.601
  20589754.300   -17267294.323 7 -13342260.109 9  20589756.608
  21557730.097   -13433500.454 7 -10372888.960 9  21557732.874
  23235600.151    -3884702.904 6  -2926399.842 9  23235602.718
  21868252.667   -10084420.740 7  -7753539.409 9  21868255.444
  22104592.886    -4696586.065 6  -3592239.926 9  22104595.440
 94  2 17 21 35 29.9990000  0  7 18  2 19 27 28 31 29
  20257694.909   -19339945.587 7 -14926919.811 9  20257697.511
  23572746.589    -2990705.595 5  -2186697.296 9  23572752.038
  20589041.339   -17271039.120 7 -13345178.119 9  20589043.718
  21548851.347   -13480157.665 7 -10409245.196 9  21548854.030
  23242986.534    -3845888.309 6  -2896154.714 9  23242988.772
  21864472.940   -10104283.706 7  -7769016.954 9  21864475.390
  22121952.667    -4605359.180 6  -3521154.106 9  22121955.362
 94  2 17 21 35 59.9990000  0  7 18  2 19 27 28 31 29
  20266307.753   -19294685.054 7 -14891651.872 9  20266310.425
  23558117.690    -3067579.662 5  -2246599.084 9  23558122.589
  20588377.229   -17274530.592 7 -13347898.732 9  20588379.585
  21540004.495   -13526647.256 6 -10445470.819 9  21540007.261
  23250479.026    -3806513.657 6  -2865473.181 9  23250481.476
  21860804.972   -10123556.978 7  -7784034.987 9  21860807.374
  22139380.229    -4513778.124 6  -3449792.304 9  22139383.159
 94  2 17 21 36 29.9990000  0  7 18  2 19 27 28 31 29
  20275021.753   -19248892.991 7 -14855969.760 9  20275024.495
  23543539.315    -3144190.333 6  -2306295.635 9  23543544.331
  20587764.073   -17277753.081 7 -13350409.750 9  20587766.487
  21531193.222   -13572954.543 7 -10481554.392 9  21531195.987
  23258080.565    -3766565.766 6  -2834344.948 9  23258083.179
  21857253.479   -10142219.604 7  -7798577.196 9  21857256.104
  22156876.636    -4421833.922 6  -3378147.531 9  22156879.788
 94  2 17 21 36 59.9990000  0  7 18  2 19 27 28 31 29
  20283837.315   -19202566.740 7 -14819871.392 9  20283839.847
  23529009.503    -3220542.296 5  -2365790.593 9  23529014.308
  20587200.839   -17280713.479 7 -13352716.548 9  20587203.042
  21522417.472   -13619067.975 7 -10517486.904 9  21522420.284
  23265791.894    -3726044.696 6  -2802770.069 9  23265794.554
  21853820.472   -10160260.510 7  -7812634.947 9  21853822.968
  22174445.237    -4329511.719 6  -3306208.206 9  22174447.886
 94  2 17 21 37 29.9990000  0  7 18  2 19 27 28 31 29
  20292753.987   -19155707.386 7 -14783357.620 9  20292756.671
  23514529.753    -3296636.191 6  -2425084.465 9  23514534.476
  20586684.081   -17283426.809 7 -13354830.818 9  20586686.495
  21513679.269   -13664987.362 7 -10553268.214 9  21513681.870
  23273613.519    -3684939.922 6  -2770740.355 9  23273616.261
  21850504.589   -10177683.929 7  -7826211.547 9  21850507.237
  22192083.206    -4236823.133 6  -3233983.403 9  22192085.808
 94  2 17 21 37 59.9990000  0  7 18  2 19 27 28 31 29
  20301769.206   -19108334.166 7 -14746443.439 9  20301771.831
  23500100.136    -3372461.819 5  -2484169.315 9  23500104.694
  20586213.120   -17285902.762 7 -13356760.131 9  20586215.522
  21504979.870   -13710703.594 7 -10588891.226 9  21504982.519
  23281550.464    -3643232.554 6  -2738241.083 9  23281553.312
  21847304.573   -10194500.518 7  -7839315.297 9  21847307.421
  22209789.940    -4143772.701 6  -3161476.639 9  22209792.589
 94  2 17 21 38 29.9990000  0  7 18  2 19 27 28 31 29
  20310882.589   -19060443.198 7 -14709125.820 9  20310885.190
  23485722.050    -3448018.163 5  -2543044.318 9  23485726.960
  20585788.339   -17288136.187 7 -13358500.453 9  20585790.718
  21496317.253   -13756224.610 7 -10624362.121 9  21496319.972
  23289603.104    -3600917.415 6  -2705268.223 9  23289605.964
  21844221.112   -10210704.289 7  -7851941.528 9  21844223.562
  22227569.745    -4050341.770 6  -3088673.379 9  22227572.593
 94  2 17 21 38 59.9990000  0  7 18  2 19 27 28 31 29
  20320098.745   -19012012.831 7 -14671387.885 9  20320101.101
  23471395.019    -3523308.089 6  -2601711.729 9  23471400.233
  20585407.948   -17290135.102 8 -13360058.057 9  20585410.058
  21487690.956   -13801556.474 7 -10659685.631 9  21487693.722
  23297769.362    -3558002.345 6  -2671827.896 9  23297772.187
  21841253.972   -10226296.636 7  -7864091.331 9  21841256.339
  22245417.792    -3956548.077 6  -3015587.450 9  22245420.757
 94  2 17 21 39 29.9990000  0  7 18  2 19 27 28 31 29
  20329416.729   -18963044.891 7 -14633231.070 9  20329419.202
  23457116.276    -3598341.282 6  -2660179.093 9  23457121.550
  20585073.136   -17291891.983 7 -13361427.049 9  20585075.362
  21479099.878   -13846703.479 7 -10694865.098 9  21479102.562
  23306049.667    -3514483.100 5  -2637916.801 9  23306052.843
  21838403.355   -10241275.076 7  -7875762.774 9  21838405.698
  22263334.362    -3862399.794 6  -2942225.210 9  22263337.034
 94  2 17 21 39 59.9990000  0  7 18  2 19 27 28 31 29
  20338838.425   -18913535.259 7 -14594652.159 9  20338840.933
  23442886.261    -3673123.958 6  -2718451.243 9  23442891.042
  20584787.339   -17293396.244 7 -13362599.201 9  20584789.565
  21470545.565   -13891655.596 7 -10729892.710 9  21470548.366
  23314446.081    -3470360.684 5  -2603535.675 9  23314449.972
  21835669.886   -10255639.549 7  -7886955.815 9  21835672.452
  22281319.456    -3767886.970 6  -2868578.923 9  22281322.292
 94  2 17 21 40 29.9990000  0  7 18  2 19 27 28 31 29
  20348366.456   -18863465.449 7 -14555636.745 9  20348368.929
  23428702.190    -3747658.611 6  -2776530.137 9  23428707.265
  20584548.698   -17294650.756 8 -13363576.734 9  20584550.925
  21462029.120   -13936411.369 7 -10764767.317 9  21462031.780
  23322955.604    -3425649.150 6  -2568695.537 9  23322959.038
  21833056.222   -10269375.090 7  -7897658.782 9  21833058.823
  22299375.464    -3672999.387 6  -2794640.610 9  22299378.089
 94  2 17 21 40 59.9990000  0  7 18  2 19 27 28 31 29
  20358001.964   -18812829.861 7 -14516180.464 9  20358004.179
  23414566.636    -3821941.259 6  -2834412.666 9  23414571.370
  20584354.026   -17295673.078 8 -13364373.346 9  20584356.335
  21453549.737   -13980971.018 7 -10799489.110 9  21453552.421
  23331572.729    -3380362.328 5  -2533407.111 9  23331576.198
  21830559.964   -10282492.261 7  -7907879.910 9  21830562.390
  22317502.964    -3577740.292 6  -2720412.802 9  22317505.776
 94  2 17 21 41 29.9990000  0  7 18  2 19 27 28 31 29
  20367743.675   -18761636.429 7 -14476289.498 9  20367745.796
  23400483.620    -3895949.769 6  -2892081.586 9  23400487.663
  20584205.612   -17296453.145 8 -13364981.184 9  20584207.851
  21445108.386   -14025330.539 7 -10834054.970 9  21445110.964
  23340302.339    -3334487.529 5  -2497660.532 9  23340305.585
  21828180.722   -10294994.555 7  -7917621.926 9  21828183.065
  22335705.690    -3482083.456 6  -2645875.073 9  22335708.292
 94  2 17 21 41 59.9990000  0  7 18  2 19 27 28 31 29
  20377589.745   -18709895.285 7 -14435971.744 9  20377591.948
  23386454.448    -3969674.499 6  -2949529.389 9  23386458.913
  20584101.050   -17297002.126 8 -13365408.948 9  20584103.206
  21436702.815   -14069501.938 7 -10868474.238 9  21436705.511
  23349141.206    -3288040.135 5  -2461467.781 9  23349144.616
  21825916.409   -10306893.116 7  -7926893.502 9  21825918.952
  22353983.581    -3386035.091 6  -2571032.250 9  22353986.499
 94  2 17 21 42 29.9990000  0  7 18  2 19 27 28 31 29
  20387540.292   -18657605.635 8 -14395226.585 9  20387542.448
  23372481.909    -4043101.521 6  -3006745.190 9  23372486.515
  20584041.237   -17297316.338 8 -13365653.779 9  20584043.382
  21428331.565   -14113492.747 7 -10902752.781 9  21428334.366
  23358088.401    -3241022.987 5  -2424831.092 9  23358091.706
  21823769.456   -10318176.762 7  -7935685.926 9  21823771.765
  22372335.847    -3289593.094 6  -2495882.709 9  22372338.507
 94  2 17 21 42 59.9990000  0  7 18  2 19 27 28 31 29
  20397592.104   -18604784.161 8 -14354067.013 9  20397594.237
  23358564.956    -4116233.470 6  -3063731.077 9  23358569.433
  20584026.972   -17297391.761 7 -13365712.538 9  20584029.374
  21419993.284   -14157310.992 7 -10936896.863 9  21419996.050
  23367142.487    -3193441.600 5  -2387754.728 9  23367146.800
  21821737.800   -10328852.317 7  -7944004.518 9  21821740.331
  22390757.690    -3192785.490 6  -2420448.269 9  22390760.901
 94  2 17 21 43 29.9990000  0  7 18  2 19 27 28 31 29
  20407742.878   -18551441.356 8 -14312501.210 9  20407745.046
  23344705.417    -4189062.936 6  -3120481.272 9  23344710.562
  20584061.698   -17297208.791 8 -13365569.950 9  20584064.147
  21411690.815   -14200939.631 7 -10970893.193 9  21411693.440
  23376306.065    -3145287.883 5  -2350232.427 9  23376309.534
  21819824.769   -10338906.740 7  -7951839.110 9  21819827.323
  22409246.151    -3095627.278 6  -2344740.632 9  22409249.104
 94  2 17 21 43 59.9990000  0  7 18  2 19 27 28 31 29
  20417992.706   -18497576.634 8 -14270528.714 9  20417994.991
  23330901.784    -4261601.493 6  -3177004.783 9  23330906.835
  20584143.526   -17296779.201 8 -13365235.185 9  20584145.788
  21403425.003   -14244376.964 7 -11004740.449 9  21403427.651
  23385576.753    -3096569.726 5  -2312270.297 9  23385580.034
  21818032.933   -10348321.503 7  -7959175.276 9  21818035.487
  22427798.315    -2998137.916 6  -2268774.946 9  22427800.964
 94  2 17 21 44 29.9990000  0  7 18  2 19 27 28 31 29
  20428343.979   -18443181.637 8 -14228143.025 9  20428346.112
  23317154.159    -4333848.518 6  -3233301.128 9  23317158.835
  20584274.870   -17296088.727 8 -13364697.137 9  20584277.120
  21395196.979   -14287613.878 7 -11038431.528 9  21395199.687
  23394956.214    -3047281.118 6  -2273863.639 9  23394959.437
  21816365.323   -10357085.293 7  -7966004.186 9  21816367.679
  22446411.753    -2900323.234 6  -2192555.778 9  22446414.624
 94  2 17 21 44 59.9990000  0  7 18  2 19 27 28 31 29
  20438796.229   -18388254.412 8 -14185342.605 9  20438798.456
  23303459.386    -4405814.607 6  -3289378.559 9  23303463.593
  20584455.729   -17295137.614 8 -13363956.003 9  20584457.839
  21387008.761   -14330644.476 7 -11071961.838 9  21387011.304
  23404445.886    -2997411.490 6  -2235004.259 9  23404449.038
  21814820.995   -10365199.980 7  -7972327.301 9  21814823.866
  22465086.878    -2802183.921 6  -2116083.659 9  22465089.562
 94  2 17 21 45 29.9990000  0  7 18  2 19 27 28 31 29
  20449348.987   -18332798.079 7 -14142129.898 9  20449351.190
  23289816.651    -4477507.096 6  -3345242.773 9  23289821.397
  20584686.683   -17293924.576 8 -13363010.769 9  20584688.733
  21378858.222   -14373475.370 7 -11105336.538 9  21378860.718
  23414048.659    -2946950.854 6  -2195684.323 9  23414051.319
  21813400.323   -10372666.580 7  -7978145.408 9  21813402.819
  22483828.769    -2703693.067 6  -2039337.601 9  22483831.476
 94  2 17 21 45 59.9990000  0  7 18  2 19 27 28 31 29
  20460002.229   -18276815.233 7 -14098506.917 9  20460004.585
  23276223.558    -4548939.216 6  -3400904.124 9  23276228.714
  20584965.190   -17292461.625 8 -13361870.788 9  20584967.312
  21370742.190   -14416128.219 7 -11138572.487 9  21370744.815
  23423763.886    -2895897.955 6  -2155902.875 9  23423765.972
  21812101.542   -10379490.432 7  -7983462.669 9  21812104.226
  22502639.089    -2604843.681 6  -1962312.155 9  22502642.312
 94  2 17 21 46 29.9990000  0  7 18  2 19 27 28 31 29
  20470757.479   -18220296.506 7 -14054466.363 9  20470759.800
  23262680.183    -4620107.262 6  -3456359.697 9  23262685.444
  20585293.331   -17290736.342 8 -13360526.396 9  20585295.511
  21362658.854   -14458604.154 7 -11171670.581 9  21362661.327
  23433594.386    -2844239.236 6  -2115649.339 9  23433597.163
  21810922.542   -10385687.112 7  -7988291.214 9  21810924.921
  22521518.472    -2505634.083 6  -1885006.026 9  22521521.671
 94  2 17 21 46 59.9990000  0  7 18  2 19 27 28 31 29
  20481612.456   -18163252.779 7 -14010016.722 9  20481614.753
  23249187.065    -4691016.307 6  -3511613.450 9  23249192.597
  20585666.972   -17288773.652 8 -13358997.022 9  20585669.187
  21354609.784   -14500901.254 7 -11204629.323 9  21354612.397
  23443536.175    -2791990.178 6  -2074935.799 9  23443538.999
  21809860.065   -10391269.259 7  -7992640.910 9  21809862.632
  22540465.175    -2406071.211 6  -1807424.638 9  22540468.022
 94  2 17 21 47 29.9990000  0  7 18  2 19 27 28 31 29
  20492569.675   -18105672.672 7 -13965149.116 9  20492572.136
  23235746.229    -4761651.159 6  -3566653.541 9  23235751.104
  20586086.269   -17286569.939 8 -13357279.836 9  20586088.378
  21346598.237   -14543002.695 7 -11237435.603 9  21346600.769
  23453589.050    -2739166.703 6  -2033774.654 9  23453591.886
  21808914.808   -10396236.352 7  -7996511.341 9  21808917.257
  22559475.229    -2306171.587 6  -1729580.846 9  22559477.632
 94  2 17 21 47 59.9990000  0  7 18  2 19 27 28 31 29
  20503633.503   -18047531.843 7 -13919844.591 9  20503636.081
  23222358.362    -4832000.899 6  -3621471.483 9  23222363.565
  20586551.003   -17284128.354 8 -13355377.296 9  20586553.112
  21338628.894   -14584882.311 7 -11270069.024 9  21338631.401
  23463748.300    -2685778.873 6  -1992173.745 9  23463751.394
  21808088.573   -10400581.206 7  -7999896.908 9  21808090.753
  22578546.706    -2205950.253 6  -1651486.373 9  22578549.577
 94  2 17 21 48 29.9990000  0  7 18  2 19 27 28 31 29
  20514803.237   -17988834.030 7 -13874106.046 9  20514805.851
  23209023.339    -4902078.504 6  -3676077.338 9  23209028.507
  20587060.050   -17281451.983 8 -13353291.806 9  20587062.323
  21330703.151   -14626532.275 7 -11302523.503 9  21330705.835
  23474008.386    -2631859.185 6  -1950158.394 9  23474010.847
  21807376.886   -10404318.840 7  -8002809.305 9  21807379.101
  22597678.206    -2105411.813 6  -1573144.794 9  22597682.132
 94  2 17 21 48 59.9990000  0  7 18  2 19 27 28 31 29
  20526078.104   -17929583.854 7 -13827937.094 9  20526080.753
  23195738.870    -4971886.684 6  -3730473.266 9  23195744.073
  20587616.370   -17278529.183 8 -13351014.298 9  20587618.562
  21322821.456   -14667950.077 7 -11334797.076 9  21322824.210
  23484367.808    -2577421.696 6  -1907739.562 9  23484370.327
  21806784.894   -10407428.843 7  -8005232.647 9  21806787.460
  22616872.979    -2004543.672 6  -1494546.305 9  22616876.554
 94  2 17 21 49 29.9990000  0  7 18  2 19 27 28 31 29
  20537459.542   -17869773.958 7 -13781331.995 9  20537462.214
  23182506.425    -5041426.060 6  -3784659.731 9  23182511.194
  20588223.690   -17275337.711 8 -13348527.429 9  20588225.812
  21314981.581   -14709148.758 7 -11366899.913 9  21314984.323
  23494829.261    -2522445.504 6  -1864900.958 9  23494832.050
  21806314.714   -10409901.176 7  -8007159.102 9  21806317.304
  22636135.089    -1903321.256 6  -1415671.766 9  22636138.394
 94  2 17 21 49 59.9990000  0  7 18  2 19 27 28 31 29
  20548944.808   -17809418.125 7 -13734301.491 9  20548947.362
  23169324.620    -5110695.054 6  -3838635.523 9  23169329.132
  20588881.823   -17271878.539 8 -13345831.962 9  20588883.979
  21307179.144   -14750152.274 7 -11398850.665 9  21307181.804
  23505394.776    -2466923.464 6  -1821637.042 9  23505396.862
  21805965.019   -10411739.008 7  -8008591.148 9  21805967.479
  22655468.675    -1801723.579 6  -1336504.817 9  22655471.827
 94  2 17 21 50 29.9990000  0  7 18  2 19 27 28 31 29
  20560533.394   -17748520.124 7 -13686848.515 9  20560536.065
  23156200.690    -5179661.544 6  -3892375.573 9  23156205.167
  20589597.112   -17268120.355 8 -13342903.506 9  20589599.444
  21299413.956   -14790957.772 7 -11430647.132 9  21299416.581
  23516068.206    -2410832.565 5  -1777929.861 9  23516070.503
  21805739.175   -10412923.777 7  -8009514.305 9  21805741.472
  22674874.964    -1699743.364 6  -1257039.786 9  22674877.999
 94  2 17 21 50 59.9990000  0  7 18  2 19 27 28 31 29
  20572220.159   -17687105.376 7 -13638992.882 9  20572223.054
  23143133.284    -5248330.948 6  -3945884.123 9  23143138.042
  20590364.464   -17264087.794 8 -13339761.262 9  20590366.737
  21291682.651   -14831586.275 7 -11462305.678 9  21291685.241
  23526851.058    -2354170.474 5  -1733777.593 9  23526853.788
  21805639.058   -10413451.971 7  -8009925.856 9  21805641.659
  22694345.854    -1597421.390 6  -1177308.450 9  22694348.866
 94  2 17 21 51 29.9990000  0  7 18  2 19 27 28 31 29
  20584004.870   -17625176.578 7 -13590736.694 9  20584007.577
  23130124.636    -5316690.883 6  -3999151.546 9  23130129.030
  20591179.542   -17259804.715 8 -13336423.798 9  20591181.874
  21283985.136   -14872035.424 7 -11493824.477 9  21283987.632
  23537742.104    -2296938.831 5  -1689181.516 9  23537744.894
  21805662.722   -10413326.074 7  -8009827.733 9  21805665.077
  22713879.112    -1494773.530 6  -1097323.172 9  22713882.335
 94  2 17 21 51 59.9990000  0  7 18  2 19 27 28 31 29
  20595888.659   -17562726.517 7 -13542074.325 9  20595891.167
  23117178.917    -5384724.235 6  -4052164.476 9  23117183.300
  20592041.222   -17255275.763 8 -13332894.746 9  20592043.425
  21276326.776   -14912280.238 7 -11525184.052 9  21276329.577
  23548740.300    -2239140.163 5  -1644143.630 9  23548743.851
  21805813.737   -10412532.035 7  -8009208.988 9  21805816.233
  22733470.487    -1391820.442 6  -1017100.055 9  22733473.757
 94  2 17 21 52 29.9990000  0  7 18  2 19 27 28 31 29
  20607871.784   -17499757.230 7 -13493007.358 9  20607874.151
  23104291.440    -5452447.214 6  -4104935.561 9  23104295.706
  20592947.229   -17250514.507 8 -13329184.673 9  20592949.444
  21268707.237   -14952321.415 7 -11556384.942 9  21268709.909
  23559848.292    -2180766.860 5  -1598657.966 9  23559851.702
  21806094.878   -10411054.064 7  -8008057.305 9  21806097.421
  22753116.651    -1288580.511 6   -936653.427 9  22753119.815
 94  2 17 21 52 59.9990000  0  7 18  2 19 27 28 31 29
  20619952.979   -17436269.880 7 -13443536.719 9  20619955.394
  23091460.034    -5519877.410 6  -4157478.505 9  23091463.960
  20593894.456   -17245537.396 8 -13325306.394 9  20593896.683
  21261123.612   -14992173.021 7 -11587438.120 9  21261126.261
  23571064.894    -2121822.853 5  -1552727.634 9  23571068.433
  21806505.948   -10408894.073 7  -8006374.193 9  21806508.433
  22772821.433    -1185033.046 6   -855967.172 9  22772824.374
 94  2 17 21 53 29.9990000  0  7 18  2 19 27 28 31 29
  20632132.995   -17372263.408 7 -13393661.561 9  20632135.339
  23078683.730    -5587015.360 6  -4209793.730 9  23078688.159
  20594883.737   -17240338.516 8 -13321255.327 9  20594886.058
  21253574.331   -15031842.587 7 -11618349.443 9  21253577.190
  23582388.956    -2062318.218 5  -1506360.433 9  23582392.226
  21807040.855   -10406083.924 7  -8004184.462 9  21807043.280
  22792587.636    -1081160.589 6   -775027.664 9  22792590.589
 94  2 17 21 53 59.9990000  0  7 18  2 19 27 28 31 29
  20644409.409   -17307751.249 7 -13343392.363 9  20644411.812
  23065961.065    -5653872.906 6  -4261890.466 9  23065965.179
  20595919.808   -17234895.087 8 -13317013.698 9  20595922.011
  21246059.448   -15071337.072 7 -11649124.348 9  21246062.308
  23593819.112    -2002249.595 5  -1459553.785 9  23593822.370
  21807697.105   -10402636.417 7  -8001498.082 9  21807699.343
  22812416.894     -976959.490 6   -693832.076 9  22812419.612
 94  2 17 21 54 29.9990000  0  7 18  2 19 27 28 31 29
  20656778.214   -17242753.680 7 -13292744.924 9  20656780.440
  23053288.620    -5720467.924 6  -4313782.623 9  23053292.382
  20597002.550   -17229204.668 8 -13312579.612 9  20597004.671
  21238574.511   -15110669.430 7 -11679772.920 9  21238577.136
  23605354.862    -1941632.534 5  -1412319.770 9  23605358.495
  21808469.948   -10398572.862 7  -7998331.674 9  21808472.421
  22832308.659     -872425.396 6   -612377.002 9  22832311.425
 94  2 17 21 54 59.9990000  0  7 18  2 19 27 28 31 29
  20669239.026   -17177270.062 7 -13241718.746 9  20669241.229
  23040668.690    -5786787.196 6  -4365459.926 9  23040672.558
  20598135.519   -17223249.894 8 -13307939.532 9  20598137.640
  21231123.956   -15149821.430 7 -11710280.949 9  21231126.440
  23616990.464    -1880484.778 5  -1364672.218 9  23616993.429
  21809354.987   -10393921.691 7  -7994707.383 9  21809357.694
  22852266.011     -767549.685 6   -530655.750 9  22852268.835
 94  2 17 21 55 29.9990000  0  7 18  2 19 27 28 31 29
  20681794.292   -17111293.076 7 -13190308.125 9  20681796.601
  23028100.964    -5852827.851 6  -4416920.119 9  23028105.065
  20599319.315   -17217029.444 7 -13303092.428 9  20599321.601
  21223712.495   -15188769.453 7 -11740630.034 9  21223714.909
  23628727.628    -1818804.853 5  -1316610.008 9  23628731.483
  21810351.003   -10388686.848 7  -7990628.276 9  21810353.546
  22872285.378     -662349.417 6   -448681.597 9  22872287.956
 94  2 17 21 55 59.9990000  0  7 18  2 19 27 28 31 29
  20694443.901   -17044818.439 7 -13138509.721 9  20694446.093
  23015587.776    -5918586.585 6  -4468160.632 9  23015591.866
  20600552.573   -17210549.776 8 -13298043.338 9  20600554.835
  21216343.706   -15227492.785 7 -11770804.032 9  21216346.108
  23640568.058    -1756584.867 5  -1268126.953 9  23640572.171
  21811465.550   -10382831.371 7  -7986065.546 9  21811467.999
  22892364.558     -556831.555 6   -366459.972 9  22892367.218
 94  2 17 21 56 29.9990000  0  8 18  2 19 27 28 31 16 29
  20707193.761   -16977817.414 7 -13086301.149 9  20707196.011
  23003128.940    -5984056.453 6  -4519176.077 9  23003133.394
  20601830.823   -17203831.782 8 -13292808.534 9  20601832.979
  21209019.761   -15265979.639 7 -11800793.762 9  21209022.257
  23652510.440    -1693826.010 5  -1219224.007 9  23652514.261
  21812700.081   -10376344.491 7  -7981010.819 9  21812702.554
  24173941.940       -4850.68113
  22912502.190     -451007.799 6   -283999.983 9  22912505.390
 94  2 17 21 56 59.9990000  0  8 18  2 19 27 28 31 16 29
  20720046.394   -16910277.232 7 -13033672.457 9  20720048.784
  22990726.573    -6049230.971 6  -4569961.365 9  22990730.733
  20603152.050   -17196888.170 8 -13287397.937 9  20603154.112
  21201741.550   -15304227.302 7 -11830597.106 9  21201743.964
  23664555.753    -1630527.900 5  -1169900.856 9  23664558.530
  21814058.589   -10369204.734 7  -7975447.325 9  21814061.214
  24168462.073      -33647.967 4
  22932695.026     -344891.677 6   -201312.171 9  22932698.354
 94  2 17 21 57 29.9990000  0  8 18  2 19 27 28 31 16 29
  20733000.331   -16842203.635 7 -12980628.114 9  20733002.780
  22978378.065    -6114122.330 6  -4620526.002 9  22978381.909
  20604512.862   -17189737.272 8 -13281825.811 9  20604515.183
  21194505.612   -15342251.010 7 -11860225.950 9  21194508.097
  23676702.667    -1566695.481 5  -1120161.357 9  23676705.737
  21815547.097   -10361381.446 7  -7969351.233 9  21815549.558
  24163080.690      -61916.753 3
  22952940.933     -238500.497 6   -118410.032 9  22952944.753
 94  2 17 21 57 59.9990000  0  8 18  2 19 27 28 31 16 29
  20746054.573   -16773603.493 7 -12927173.478 9  20746056.917
  22966084.128    -6178727.748 6  -4670867.833 9  22966087.784
  20605916.440   -17182362.142 8 -13276078.963 9  20605918.714
  21187310.386   -15380062.673 7 -11889689.563 9  21187312.718
  23688950.144    -1502336.975 5  -1070011.905 9  23688953.343
  21817167.651   -10352866.508 7  -7962716.192 9  21817169.808
  24157806.745      -89641.730 4    -12190.84817  24157811.222
  22973239.011     -131833.964 6    -35293.347 9  22973242.304
 94  2 17 21 58 29.9990000  0  8 18  2 19 27 28 31 16 29
  20759207.589   -16704483.309 7 -12873313.610 9  20759209.804
  22953845.167    -6243042.382 6  -4720983.085 9  22953849.233
  20607365.214   -17174749.318 8 -13270146.890 9  20607367.218
  21180152.128   -15417681.169 7 -11919002.657 9  21180154.753
  23701294.300    -1437467.617 6  -1019464.414 9  23701297.429
  21818915.831   -10343680.408 7  -7955558.163 9  21818918.011
  24152630.769     -116836.307 4    -33381.367 8  24152637.190
  22993589.940      -24890.217 6     48039.359 9  22993593.151
 94  2 17 21 58 59.9990000  0  8 18  2 19 27 28 31 16 29
  20772452.972   -16634878.581 7 -12819076.173 9  20772455.198
  22941660.081    -6307076.325 6  -4770879.603 9  22941664.476
  20608860.097   -17166893.018 8 -13264025.091 9  20608862.042
  21173027.198   -15455122.275 7 -11948177.530 9  21173029.788
  23713732.784    -1372102.283 6   -968530.410 9  23713736.136
  21820788.769   -10333836.124 7  -7947887.268 9  21820791.265
  24147553.769     -143513.709 4    -54168.922 8  24147559.499
  23013995.144       82337.451 6    131593.300 9  23013998.776
 94  2 17 21 59 29.9990000  0  8 18  2 19 27 28 31 16 29
  20785790.745   -16564786.756 7 -12764459.185 9  20785792.925
  22929529.917    -6370824.263 6  -4820553.274 9  22929534.171
  20610406.417   -17158766.507 8 -13257692.734 9  20610408.550
  21165937.433   -15492378.676 7 -11977208.473 9  21165940.081
  23726267.604    -1306234.111 6   -917204.610 9  23726271.179
  21822783.659   -10323353.083 7  -7939718.650 9  21822786.226
  24142584.003     -169634.822 4    -74523.000 9  24142589.394
  23034455.620      189861.002 6    215377.788 9  23034459.136
 94  2 17 21 59 59.9990000  0  8 18  2 19 27 28 31 16 29
  20799224.409   -16494194.043 7 -12709451.898 9  20799226.694
  22917455.729    -6434272.862 6  -4869993.685 9  22917459.714
  20612008.315   -17150348.330 8 -13251133.115 9  20612010.413
  21158886.440   -15529432.628 7 -12006081.671 9  21158888.995
  23738898.558    -1239855.982 5   -865481.436 9  23738901.440
  21824896.222   -10312251.815 7  -7931068.308 9  21824898.765
  24137720.581     -195188.489 4    -94434.882 9  24137725.433
  23054975.308      297692.907 6    299402.556 9  23054979.327
 94  2 17 22  0 29.9990000  0  8 18  2 19 27 28 31 16 29
  20812754.331   -16423093.461 7 -12654048.866 9  20812756.745
  22905436.901    -6497428.915 6  -4919206.134 9  22905441.120
  20613661.573   -17141661.497 8 -13244364.154 9  20613663.706
  21151873.675   -15566284.062 7 -12034797.060 9  21151876.101
  23751626.401    -1172969.410 5   -813362.075 9  23751629.917
  21827125.347   -10300536.223 7  -7921939.258 9  21827127.679
  24132964.604     -220179.342 3   -113908.230 8  24132969.058
  23075553.964      405835.644 6    383669.532 9  23075558.276
 94  2 17 22  0 59.9990000  0  8 18  2 19 27 28 31 16 29
  20826382.206   -16351478.266 7 -12598244.838 9  20826384.597
  22893472.612    -6560299.053 6  -4968195.794 9  22893477.230
  20615365.722   -17132705.255 8 -13237385.256 9  20615367.855
  21144901.151   -15602924.852 7 -12063348.309 9  21144903.601
  23764452.315    -1105568.191 5   -760841.713 9  23764456.147
  21829472.729   -10288200.901 7  -7912327.313 9  21829475.144
  24128319.081     -244592.255 3   -132931.208 8  24128324.190
  23096193.276      514293.481 6    468182.039 9  23096197.448
 94  2 17 22  1 29.9990000  0  8 18  2 19 27 28 31 16 29
  20840108.073   -16279348.349 7 -12542039.729 9  20840110.476
  22881563.565    -6622882.661 6  -5016962.183 9  22881567.808
  20617120.214   -17123485.402 8 -13230200.945 9  20617122.347
  21137968.362   -15639356.970 7 -12091736.957 9  21137970.753
  23777378.823    -1037643.336 5   -707913.299 9  23777382.456
  21831936.167   -10275255.295 7  -7902239.836 9  21831938.769
  24123783.495     -268426.666 3   -151503.428 8  24123787.526
  23116891.487      623062.181 6    552936.776 9  23116895.167
 94  2 17 22  1 59.9990000  0  8 18  2 19 27 28 31 16 29
  20853933.440   -16206695.628 7 -12485427.241 9  20853936.030
  22869712.792    -6685160.154 6  -5065490.029 9  22869716.858
  20618923.058   -17114011.319 8 -13222818.532 9  20618925.249
  21131077.292   -15675570.502 7 -12119955.277 9  21131079.718
  23790407.136     -969178.044 5   -654563.770 9  23790410.241
  21834523.339   -10261660.470 7  -7891646.470 9  21834525.917
  24119355.542     -291697.326 3   -169636.312 8  24119360.288
  23137651.581      732157.202 6    637945.797 9  23137655.331
 94  2 17 22  2 29.9990000  0  8 18  2 19 27 28 31 16 29
  20867854.933   -16133536.476 7 -12428420.130 9  20867857.757
  22857919.651    -6747134.582 6  -5113781.732 9  22857923.894
  20620770.745   -17104302.112 8 -13215252.907 9  20620772.843
  21124224.714   -15711580.618 7 -12148015.085 9  21124227.151
  23803538.612     -900173.339 5   -600793.909 9  23803541.354
  21837236.253   -10247404.422 7  -7880537.877 9  21837238.761
  24115031.534     -314416.023 3   -187339.149 9  24115038.354
  23158473.073      841572.099 6    723204.064 9  23158476.776
 94  2 17 22  2 59.9990000  0  8 18  2 19 27 28 31 16 29
  20881868.886   -16059893.658 7 -12371036.140 9  20881871.698
  22846181.253    -6808818.420 6  -5161847.003 9  22846185.706
  20622662.761   -17094360.017 8 -13207505.804 9  20622664.835
  21117408.362   -15747400.799 7 -12175926.886 9  21117410.788
  23816771.800     -830631.739 5   -546605.673 9  23816774.097
  21840070.800   -10232508.816 7  -7868930.925 9  21840073.167
  24110813.276     -336591.311 5   -204618.541 8  24110817.894
  23179348.167      951272.733 6    808684.975 9  23179351.823
 94  2 17 22  3 29.9990000  0  8 18  2 19 27 28 31 16 29
  20895972.722   -15985776.309 7 -12313282.389 9  20895975.253
  22834499.120    -6870208.058 6  -5209683.032 9  22834503.562
  20624597.011   -17084194.334 8 -13199584.489 9  20624599.038
  21110631.261   -15783015.153 7 -12203678.309 9  21110633.792
  23830106.972     -760558.274 5   -492003.011 9  23830109.315
  21843029.347   -10216960.088 7  -7856815.040 9  21843031.855
  24106695.253     -358227.933 5   -221478.222 9  24106699.272
  23200273.956     1061240.688 6    894374.205 9  23200277.636
 94  2 17 22  3 59.9990000  0  8 18  2 19 27 28 31 16 29
  20910169.245   -15911173.910 7 -12255150.669 9  20910171.882
  22822873.159    -6931303.678 6  -5257289.949 9  22822877.319
  20626573.198   -17073809.810 8 -13191492.644 9  20626575.226
  21103893.862   -15818418.451 7 -12231265.260 9  21103896.370
  23843536.995     -689978.394 5   -437005.751 9  23843540.546
  21846114.745   -10200747.483 7  -7844181.856 9  21846117.405
  24102679.519     -379333.876 5   -237924.329 9  24102683.257
  23221247.261     1171453.026 6    980253.859 9  23221250.730
 94  2 17 22  4 29.9990000  0  8 18  2 19 27 28 31 16 29
  20924457.190   -15836091.882 7 -12196645.216 9  20924459.733
  22811300.175    -6992121.018 6  -5304680.027 9  22811304.382
  20628592.448   -17063198.764 7 -13183224.294 9  20628594.546
  21097194.862   -15853621.461 7 -12258696.148 9  21097197.499
  23857062.917     -618900.655 5   -381620.550 9  23857067.007
  21849320.409   -10183901.783 7  -7831055.348 9  21849322.835
  24098766.065     -399899.519 5   -253949.504 9  24098770.354
  23242261.565     1281882.607 6   1066302.798 9  23242264.870
 94  2 17 22  4 59.9990000  0  8 18  2 19 27 28 31 16 29
  20938836.269   -15760528.285 7 -12137764.517 9  20938838.765
  22799779.769    -7052662.530 6  -5351855.178 9  22799784.151
  20630655.808   -17052353.203 7 -13174773.211 9  20630657.976
  21090534.776   -15888621.496 7 -12285968.871 9  21090537.284
  23870680.433     -547335.895 5   -325855.863 9  23870684.042
  21852644.714   -10166431.828 7  -7817442.406 9  21852647.339
  24094955.526     -419917.774 4   -269548.073 9  24094961.058
  23263315.308     1392518.915 6   1152512.822 9  23263318.765
 94  2 17 22  5 29.9990000  0  8 18  2 19 27 28 31 16 29
  20953306.948   -15684483.411 7 -12078508.796 9  20953309.702
  22788313.839    -7112914.572 6  -5398804.787 9  22788317.987
  20632764.933   -17041271.391 7 -13166138.026 9  20632767.194
  21083914.331   -15923414.160 7 -12313079.998 9  21083916.675
  23884389.120     -475297.033 5   -269721.757 9  23884393.269
  21856090.222   -10148325.888 7  -7803333.881 9  21856092.601
  24091248.370     -439393.366 3   -284723.862 8  24091252.542
  23284411.237     1503378.855 6   1238897.091 9  23284414.460
 94  2 17 22  6  0.0000000  0  8 18  2 19 27 28 31 16 29
  20967869.664   -15607957.520 7 -12018878.261 9  20967872.266
  22776903.602    -7172874.948 6  -5445527.120 9  22776908.324
  20634918.438   -17029954.627 7 -13157319.761 9  20634920.594
  21077326.188   -15958033.261 7 -12340055.881 9  21077328.660
  23898189.898     -402776.004 5   -213211.918 9  23898194.363
  21859653.844   -10129600.374 7  -7788742.573 9  21859656.293
  24087648.797     -458321.642 4   -299473.110 8  24087652.277
  23305552.383     1614475.107 6   1325465.518 9  23305555.969
 94  2 17 22  6 30.0000000  0  8 18  2 19 27 28 31 16 29
  20982517.734   -15530980.539 7 -11958896.221 9  20982520.301
  22765548.391    -7232546.972 6  -5492024.764 9  22765552.363
  20637118.258   -17018395.039 7 -13148312.286 9  20637120.438
  21070770.492   -15992482.541 7 -12366899.430 9  21070773.023
  23912083.938     -329763.314 5   -156318.987 9  23912087.957
  21863335.133   -10110253.316 7  -7773666.939 9  21863337.523
  24084152.961     -476687.285 4   -313783.967 9  24084157.180
  23326740.945     1725824.222 6   1412230.963 9  23326744.695
 94  2 17 22  7  0.0000000  0  8 18  2 19 27 28 31 16 29
  20997251.188   -15453555.776 7 -11898565.268 9  20997253.871
  22754251.563    -7291913.895 6  -5538284.666 9  22754255.219
  20639366.508   -17006581.388 8 -13139106.839 9  20639368.664
  21064250.828   -16026744.002 7 -12393596.643 9  21064253.395
  23926071.164     -256259.366 5    -99043.249 9  23926074.621
  21867140.844   -10090255.403 7  -7758084.141 9  21867143.258
  24080765.055     -494487.154 4   -327653.960 8  24080769.695
  23347985.234     1837463.797 6   1499222.739 9  23347988.656
 94  2 17 22  7 30.0000000  0  8 18  2 19 27 28 31 16 29
  21012068.859   -15375690.022 7 -11837890.683 9  21012071.262
  22743013.023    -7350970.094 6  -5584302.455 9  22743016.973
  20641662.148   -16994516.493 8 -13129705.626 9  20641664.129
  21057767.508   -16060812.305 7 -12420143.339 9  21057769.969
  23940152.742     -182263.974 5    -41384.572 9  23940156.598
  21871071.219   -10069601.261 7  -7741989.992 9  21871073.586
  24077487.336     -511718.265 5   -341080.798 9  24077492.094
  23369286.898     1949408.413 5   1586452.210 9  23369290.707
 94  2 17 22  8  0.0000000  0  8 18  2 19 27 28 31 16 29
  21026970.672   -15297381.425 7 -11776871.026 9  21026973.004
  22731830.648    -7409733.568 6  -5630092.151 9  22731835.043
  20644005.484   -16982201.729 7 -13120109.706 9  20644007.582
  21051320.945   -16094688.725 7 -12446540.511 9  21051323.324
  23954326.430     -107780.418 5     16654.507 9  23954329.922
  21875124.953   -10048298.876 7  -7725390.726 9  21875127.496
  24074316.055     -528381.297 5   -354064.960 9  24074321.234
  23390646.625     2061650.347 5   1673913.348 9  23390651.195
 94  2 17 22  8 30.0000000  0  8 18  2 19 27 28 31 16 29
  21041957.555   -15218624.056 7 -11715501.673 9  21041959.734
  22720701.484    -7468215.556 6  -5675662.507 9  22720706.078
  20646399.555   -16969620.738 7 -13110306.332 9  20646401.594
  21044917.203   -16128340.937 7 -12472762.975 9  21044919.641
  23968592.398      -32813.306 5     75070.393 9  23968596.301
  21879302.617   -10026345.351 7  -7708284.077 9  21879304.996
  24071252.398     -544482.546 5   -366611.403 9  24071256.535
  23412060.281     2174178.932 5   1761597.854 9  23412064.805
 94  2 17 22  9  0.0000000  0  8 18  2 19 27 28 31 16 29
  21057033.109   -15139402.771 7 -11653770.831 9  21057035.512
  22709628.055    -7526408.581 6  -5721007.689 9  22709632.262
  20648842.648   -16956782.230 7 -13100302.297 9  20648844.898
  21038556.359   -16161767.132 7 -12498809.324 9  21038558.680
  23982948.586       42627.689 5    133855.544 9  23982952.301
  21883600.266   -10003760.916 7  -7690685.813 9  21883602.598
  24068291.984     -560038.834 5   -378733.152 9  24068297.176
  23433522.398     2286961.385 5   1849480.174 9  23433526.852
 94  2 17 22  9 30.0000000  0  8 18  2 19 27 28 31 16 29
  21072198.742   -15059707.661 7 -11591670.781 9  21072201.227
  22698607.375    -7584323.683 6  -5766136.314 9  22698611.523
  20651333.773   -16943691.650 7 -13090101.845 9  20651335.906
  21032236.148   -16194980.043 7 -12524689.486 9  21032238.539
  23997395.063      118546.290 5    193012.834 9  23997398.227
  21888014.539    -9980563.521 7  -7672609.912 9  21888016.684
  24065432.984     -575061.296 4   -390438.980 8  24065437.672
  23455026.352     2399967.008 5   1937536.375 9  23455030.570
 94  2 17 22 10  0.0000000  0  8 18  2 19 27 28 31 16 29
  21087454.305   -14979538.117 7 -11529201.038 9  21087456.648
  22687636.766    -7641974.193 6  -5811058.764 9  22687640.891
  20653873.414   -16930345.500 7 -13079702.244 9  20653875.395
  21025956.773   -16227978.272 7 -12550402.371 9  21025959.234
  24011931.656      194941.318 5    252541.368 9  24011935.219
  21892544.422    -9956758.086 7  -7654060.215 9  21892546.824
  24062674.047     -589559.496 4   -401736.252 9  24062680.129
  23476568.344     2513172.388 5   2025748.250 9  23476572.398
 94  2 17 22 10 30.0000000  0  8 18  2 19 27 28 31 16 29
  21102797.617   -14898908.518 7 -11466372.811 9  21102800.055
  22676719.484    -7699344.732 6  -5855763.042 9  22676723.738
  20656460.391   -16916750.625 7 -13069108.832 9  20656462.582
  21019717.500   -16260766.218 7 -12575951.400 9  21019719.973
  24026560.117      271813.445 5    312441.685 9  24026563.656
  21897191.180    -9932339.290 7  -7635032.587 9  21897193.523
  24060013.859     -603537.249 4   -412627.970 8  24060018.840
  23498146.500     2626563.799 5   2114105.087 9  23498150.730
 94  2 17 22 11  0.0000000  0  8 18  2 19 27 28 31 16 29
  21118227.711   -14817822.529 7 -11403188.955 9  21118230.137
  22665857.836    -7756422.885 6  -5900239.493 9  22665862.043
  20659092.484   -16902919.833 7 -13058331.592 9  20659094.723
  21013515.711   -16293358.953 7 -12601348.313 9  21013518.172
  24041277.570      349153.400 5    372706.527 9  24041280.676
  21901957.375    -9907294.216 7  -7615516.947 9  21901959.531
  24057455.602     -616982.804 4   -423105.018 9  24057461.730
  23519761.625     2740151.148 5   2202614.581 9  23519765.902
 94  2 17 22 11 30.0000000  0  8 18  2 19 27 28 31 16 29
  21133744.164   -14736283.169 7 -11339651.824 9  21133746.473
  22655051.617    -7813211.319 6  -5944490.181 9  22655055.906
  20661770.359   -16888848.067 7 -13047366.571 9  20661772.539
  21007351.289   -16325751.966 7 -12626589.605 9  21007353.563
  24056082.984      426953.302 5    433329.753 9  24056085.973
  21906846.383    -9881603.287 7  -7595498.056 9  21906848.727
  24055003.781     -629870.794 5   -433147.601 9  24055008.070
  23541416.984     2853951.415 5   2291289.993 9  23541420.887
 94  2 17 22 12  0.0000000  0  8 18  2 19 27 28 31 16 29
  21149346.320   -14654292.319 7 -11275762.884 9  21149348.383
  22644300.898    -7869705.600 6  -5988511.653 9  22644305.000
  20664493.039   -16874539.660 7 -13036217.158 9  20664495.230
  21001225.438   -16357943.386 7 -12651673.816 9  21001227.617
  24070973.070      505203.440 5    494303.831 9  24070976.539
  21911858.828    -9855260.260 7  -7574971.031 9  21911861.055
  24052658.867     -642193.370 5   -442749.596 8  24052664.082
  23563114.328     2967972.492 5   2380137.485 9  23563118.957
 94  2 17 22 12 30.0000000  0  8 18  2 19 27 28 31 16 29
  21165035.148   -14571847.405 7 -11211520.124 9  21165037.387
  22633604.594    -7925913.747 6  -6032310.170 9  22633608.848
  20667258.297   -16860007.130 7 -13024893.100 9  20667260.371
  20995135.125   -16389948.495 7 -12676612.856 9  20995137.434
  24085948.156      583896.640 5    555623.149 9  24085952.563
  21916996.422    -9828264.702 7  -7553935.541 9  21916998.777
  24050421.773     -653946.757 5   -451908.064 9  24050426.883
  23584855.586     3082223.373 5   2469164.012 9  23584860.121
 94  2 17 22 13  0.0000000  0  8 18  2 19 27 28 31 16 29
  21180813.703   -14488931.351 7 -11146910.250 9  21180816.023
  22622960.000    -7981851.224 6  -6075897.755 9  22622964.066
  20670066.711   -16845247.610 7 -13013392.167 9  20670068.996
  20989080.820   -16421763.536 7 -12701403.794 9  20989083.035
  24101006.094      663026.216 5    617282.516 9  24101009.141
  21922255.453    -9800627.639 7  -7532400.167 9  21922257.598
  24048294.977     -665121.713 5   -460615.817 9  24048299.313
  23606644.313     3196723.236 5   2558384.564 9  23606648.590
 94  2 17 22 13 30.0000000  0  8 18  2 19 27 28 31 16 29
  21196682.344   -14405540.947 7 -11081930.756 9  21196684.723
  22612364.563    -8037529.202 6  -6119283.142 9  22612368.500
  20672917.602   -16830267.370 7 -13001719.252 9  20672919.957
  20983060.781   -16453399.095 7 -12726054.881 9  20983063.031
  24116148.930      742600.964 5    679288.747 9  24116153.043
  21927633.391    -9772365.653 7  -7510377.844 9  21927635.664
  24046273.516     -675745.042 5   -468893.706 9  24046277.816
  23628478.914     3311461.419 5   2647790.810 9  23628482.641
 94  2 17 22 14  0.0000000  0  8 18  2 19 27 28 31 16 29
  21212640.359   -14321681.527 7 -11016585.790 9  21212642.949
  22601818.109    -8092953.849 6  -6162471.103 9  22601822.258
  20675809.516   -16815071.334 7 -12989878.179 9  20675811.824
  20977075.141   -16484854.403 7 -12750565.504 9  20977077.426
  24131379.398      822637.011 5    741654.436 9  24131382.855
  21933129.758    -9743482.496 7  -7487871.496 9  21933132.125
  24044352.430     -685835.789 4   -476756.640 9  24044358.723
  23650357.492     3426434.108 5   2737379.802 9  23650361.664
 94  2 17 22 14 30.0000000  0  8 18  2 19 27 28 31 16 29
  21228686.625   -14237357.394 7 -10950878.710 9  21228689.121
  22591322.141    -8148107.748 6  -6205448.112 9  22591326.359
  20678743.273   -16799654.794 7 -12977865.292 9  20678745.359
  20971128.344   -16516105.941 7 -12774917.345 9  20971130.547
  24146698.727      903141.179 5    804384.887 9  24146701.891
  21938744.828    -9713975.678 7  -7464879.185 9  21938747.172
  24042535.695     -695387.732 4   -484199.671 9  24042539.340
  23672281.430     3541642.179 5   2827152.188 9  23672285.109
 94  2 17 22 15  0.0000000  0  8 18  2 19 27 28 31 16 29
  21244817.313   -14152589.080 7 -10884825.514 9  21244819.961
  22580882.453    -8202970.574 6  -6248198.304 9  22580886.578
  20681720.023   -16784011.241 7 -12965675.508 9  20681722.215
  20965220.305   -16547150.572 7 -12799107.971 9  20965222.555
  24162105.219      984100.850 5    867470.294 9  24162108.676
  21944476.984    -9683852.240 7  -7441406.390 9  21944479.199
  24040817.453     -704413.102 4   -491232.394 9  24040823.453
  23694246.188     3657073.037 5   2917098.181 9  23694250.090
 94  2 17 22 15 30.0000000  0  7 18  2 19 27 31 16 29
  21261029.016   -14067397.704 7 -10818442.670 9  21261031.770
  22570500.625    -8257525.756 6  -6290708.771 9  22570504.879
  20684740.820   -16768136.009 7 -12953305.196 9  20684742.941
  20959353.180   -16577983.288 7 -12823133.456 9  20959355.453
  21950326.820    -9653111.358 7  -7417452.461 9  21950329.129
  24039199.281     -712917.979 5   -497859.552 9  24039204.250
  23716251.641     3772710.361 5   3007205.054 9  23716256.410
 94  2 17 22 16  0.0000000  0  7 18  2 19 27 31 16 29
  21277317.000   -13981802.994 7 -10751745.534 9  21277319.660
  22560179.523    -8311763.166 6  -6332971.624 9  22560183.520
  20687808.445   -16752016.007 7 -12940744.154 9  20687810.672
  20953530.031   -16608584.439 7 -12846978.502 9  20953532.223
  21956293.758    -9621755.425 7  -7393019.283 9  21956296.125
  24037684.234     -720881.018 5   -504064.506 9  24037689.074
  23738296.211     3888552.577 5   3097471.583 9  23738300.512
 94  2 17 22 16 30.0000000  0  7 18  2 19 27 31 16 29
  21293683.352   -13895799.200 7 -10684729.628 9  21293685.965
  22549921.055    -8365673.258 7  -6374979.415 9  22549925.086
  20690923.648   -16735645.007 7 -12927987.529 9  20690925.852
  20947748.930   -16638964.414 7 -12870651.203 9  20947751.285
  21962376.219    -9589791.801 7  -7368112.568 9  21962378.480
  24036273.641     -728293.917 5   -509840.791 9  24036277.801
  23760380.484     4004606.413 5   3187903.004 9  23760384.527
 94  2 17 22 17  0.0000000  0  7 18  2 19 27 31 16 29
  21310127.672   -13809382.626 7 -10617392.077 9  21310130.180
  22539720.891    -8419274.891 6  -6416746.851 9  22539725.039
  20694087.672   -16719017.966 7 -12915031.394 9  20694089.934
  20942005.039   -16669148.725 7 -12894171.429 9  20942007.453
  21968574.344    -9557220.514 7  -7342732.351 9  21968576.570
  24034966.930     -735158.022 5   -515189.429 9  24034970.902
  23782506.836     4120879.403 5   3278505.197 9  23782511.699
 94  2 17 22 17 30.0000000  0  7 18  2 19 27 31 16 29
  21326652.688   -13722542.657 7 -10549724.606 9  21326655.137
  22529577.047    -8472580.629 6  -6458283.721 9  22529581.207
  20697301.086   -16702132.822 7 -12901874.145 9  20697303.172
  20936298.734   -16699134.715 7 -12917537.124 9  20936301.277
  21974888.797    -9524035.561 7  -7316873.964 9  21974891.129
  24033765.891     -741471.746 5   -520109.180 9  24033768.738
  23804673.438     4237369.394 5   3369276.493 9  23804678.043
 94  2 17 22 18  0.0000000  0  7 18  2 19 27 31 16 29
  21343260.453   -13635267.904 7 -10481718.338 9  21343262.902
  22519488.383    -8525597.073 7  -6499595.167 9  22519492.496
  20700561.242   -16684999.687 8 -12888523.660 9  20700563.258
  20930630.023   -16728922.978 7 -12940748.734 9  20930632.379
  21981322.273    -9490229.365 7  -7290531.489 9  21981324.488
  24032668.617     -747235.953 5   -524600.772 8  24032674.641
  23826882.813     4354080.733 5   3460220.249 9  23826887.617
 94  2 17 22 18 30.0000000  0  7 18  2 19 27 31 16 29
  21359950.633   -13547561.049 7 -10413375.366 9  21359953.363
  22509452.188    -8578337.714 7  -6540691.696 9  22509456.172
  20703864.141   -16667643.980 8 -12874999.728 9  20703866.262
  20924996.898   -16758527.183 7 -12963816.925 9  20924999.195
  21987872.445    -9455805.957 7  -7263708.070 9  21987874.766
  24031673.266     -752469.764 5   -528679.038 9  24031677.777
  23849131.820     4470996.334 5   3551323.149 9  23849137.668
 94  2 17 22 19  0.0000000  0  7 18  2 19 27 31 16 29
  21376719.898   -13459439.360 7 -10344709.155 9  21376722.395
  22499468.312    -8630803.855 7  -6581574.323 9  22499472.145
  20707211.445   -16650054.373 8 -12861293.538 9  20707213.426
  20919402.352   -16787927.010 7 -12986725.847 9  20919404.660
  21994540.852    -9420763.215 7  -7236402.049 9  21994542.926
  24030777.344     -757176.710 5   -532346.752 9  24030780.836
  23871414.477     4588094.822 5   3642568.588 9  23871419.773
 94  2 17 22 19 30.0000000  0  7 18  2 19 27 31 16 29
  21393566.547   -13370909.705 7 -10275725.048 9  21393569.090
  22489538.555    -8682983.792 7  -6622233.939 9  22489542.562
  20710603.398   -16632228.646 8 -12847403.357 9  20710605.426
  20913849.938   -16817103.634 7 -13009460.846 9  20913852.188
  22001328.242    -9385095.516 7  -7208609.040 9  22001330.504
  24029981.992     -761352.708 4   -535600.733 9  24029985.977
  23893730.164     4705359.887 5   3733943.796 9  23893734.512
 94  2 17 22 20  0.0000000  0  7 18  2 19 27 31 16 29
  21410490.930   -13281973.183 7 -10206423.888 9  21410493.355
  22479663.352    -8734877.656 7  -6662670.638 9  22479667.676
  20714041.336   -16614161.599 8 -12833325.132 9  20714043.492
  20908341.883   -16846049.304 7 -13032015.878 9  20908344.168
  22008233.719    -9348807.346 7  -7180332.545 9  22008235.992
  24029291.422     -764985.995 5   -538431.836 9  24029295.734
  23916077.328     4822795.696 5   3825452.080 9  23916082.707
 94  2 17 22 20 30.0000000  0  7 18  2 19 27 31 16 29
  21427491.063   -13192635.570 7 -10136810.199 9  21427493.547
  22469843.227    -8786485.092 7  -6702884.145 9  22469846.988
  20717529.734   -16595830.435 8 -12819041.112 9  20717531.879
  20902878.484   -16874758.441 7 -13054386.610 9  20902880.840
  22015258.148    -9311894.674 7  -7151569.431 9  22015260.563
  24028705.320     -768071.528 5   -540836.147 9  24028708.074
  23938455.711     4940392.057 5   3917085.452 9  23938460.434
 94  2 17 22 21  0.0000000  0  7 18  2 19 27 31 16 29
  21444570.234   -13102883.242 7 -10066873.351 9  21444572.660
  22460076.500    -8837805.973 7  -6742874.374 9  22460080.297
  20721072.203   -16577213.818 8 -12804534.661 9  20721074.254
  20897459.289   -16903235.630 7 -13076576.603 9  20897461.645
  22022402.398    -9274351.086 7  -7122314.694 9  22022404.789
  24028222.406     -770599.689 5   -542806.132 9  24028226.742
  23960865.070     5058152.079 5   4008846.361 9  23960868.973
 94  2 17 22 21 30.0000000  0  7 18  2 19 27 31 16 29
  21461731.414   -13012701.599 7  -9996601.978 9  21461733.875
  22450365.695    -8888836.967 7  -6782638.713 9  22450369.422
  20724664.094   -16558339.503 8 -12789827.406 9  20724666.168
  20892082.578   -16931491.460 7 -13098594.109 9  20892084.805
  22029664.781    -9236186.838 7  -7092576.322 9  22029667.078
  24027846.797     -772573.570 5   -544344.200 9  24027852.398
  23983307.266     5176087.556 5   4100743.989 9  23983312.246
 94  2 17 22 22  0.0000000  0  7 18  2 19 27 31 16 29
  21478972.219   -12922101.084 7  -9926004.210 9  21478974.773
  22440707.352    -8939591.854 7  -6822187.912 9  22440711.160
  20728300.531   -16539230.594 8 -12774937.349 9  20728302.547
  20886744.617   -16959542.228 7 -13120451.819 9  20886746.867
  22037040.680    -9197425.719 7  -7062372.864 9  22037043.012
  24027573.797     -774006.157 4   -545460.464 8  24027580.195
  24005781.875     5294188.568 5   4192770.597 9  24005786.574
 94  2 17 22 22 30.0000000  0  7 18  2 19 27 31 16 29
  21496291.445   -12831087.813 7  -9855084.810 9  21496293.965
  22431103.656    -8990060.884 7  -6861514.367 9  22431107.652
  20731978.188   -16519903.677 8 -12759877.417 9  20731980.121
  20881443.383   -16987401.082 7 -13142159.995 9  20881445.562
  22044530.164    -9158069.460 7  -7031705.667 9  22044532.602
  24027405.867     -774894.436 4   -546152.615 9  24027409.840
  24028285.016     5412446.041 5   4284919.110 9  24028289.340
 94  2 17 22 23  0.0000000  0  7 18  2 19 27 31 16 29
  21513687.133   -12739672.365 7  -9783852.025 9  21513689.629
  22421551.680    -9040255.008 7  -6900626.608 9  22421555.348
  20735692.125   -16500387.809 8 -12744670.253 9  20735693.977
  20876174.875   -17015086.244 7 -13163732.833 9  20876177.195
  22052129.172    -9118134.872 7  -7000587.823 9  22052131.773
  24027338.516     -775243.399 4   -546424.488 9  24027344.141
  24050818.633     5530859.953 5   4377189.526 9  24050824.023
 94  2 17 22 23 30.0000000  0  7 18  2 19 27 31 16 29
  21531156.805   -12647870.029 7  -9712317.780 9  21531159.242
  22412052.859    -9090171.113 7  -6939522.225 9  22412056.563
  20739440.945   -16480687.587 8 -12729319.435 9  20739442.949
  20870940.281   -17042594.232 7 -13185167.619 9  20870942.531
  22059837.609    -9077627.364 7  -6969023.555 9  22059840.352
  24027376.000     -775050.054 5   -546273.822 9  24027379.445
  24073382.813     5649437.301 5   4469587.306 9  24073387.242
 94  2 17 22 24  0.0000000  0  7 18  2 19 27 31 16 29
  21548698.758   -12555684.673 7  -9640485.075 9  21548701.383
  22402605.797    -9139815.618 7  -6978206.207 9  22402609.477
  20743229.453   -16460777.950 8 -12713805.438 9  20743231.445
  20865741.023   -17069916.042 7 -13206457.327 9  20865743.215
  22067659.180    -9036525.111 7  -6936995.848 9  22067661.629
  24027519.094     -774300.454 5   -545689.718 9  24027522.797
  24095979.617     5768178.419 5   4562112.684 9  24095984.844
 94  2 17 22 24 30.0000000  0  7 18  2 19 27 31 16 29
  21566315.328   -12463111.475 7  -9568350.156 9  21566317.941
  22393208.188    -9189200.421 7  -7016687.835 9  22393211.938
  20747059.625   -16440650.417 8 -12698121.653 9  20747061.570
  20860577.266   -17097052.312 7 -13227602.466 9  20860579.527
  22075595.523    -8994819.810 7  -6904498.237 9  22075597.961
  24027763.219     -773017.861 5   -544690.270 9  24027766.453
  24118608.031     5887091.956 5   4654772.412 9  24118613.715
 94  2 17 22 25  0.0000000  0  7 18  2 19 27 31 16 29
  21584005.227   -12370148.030 7  -9495911.149 9  21584008.004
  22383859.453    -9238327.684 7  -7054968.775 9  22383863.238
  20750936.305   -16420277.956 8 -12682247.011 9  20750938.238
  20855452.070   -17123986.480 7 -13248590.116 9  20855454.297
  22083647.469    -8952505.028 7  -6871525.694 9  22083650.023
  24028105.953     -771214.838 5   -543285.330 9  24028109.328
  24141272.453     6006195.204 5   4747579.977 9  24141278.043
 94  2 17 22 25 30.0000000  0  7 18  2 19 27 31 16 29
  21601768.617   -12276801.599 7  -9423173.710 9  21601771.465
  22374560.547    -9287193.097 7  -7093045.690 9  22374564.437
  20754861.984   -16399649.658 8 -12666173.017 9  20754864.105
  20850367.281   -17150706.342 7 -13269410.779 9  20850369.578
  22091814.094    -8909589.516 7  -6838085.050 9  22091816.754
  24028545.398     -768903.844 5   -541484.530 9  24028549.008
  24163970.898     6125481.129 5   4840529.900 9  24163976.500
 94  2 17 22 26  0.0000000  0  6 18  2 19 27 31 16
  21619605.227   -12183070.341 7  -9350136.405 9  21619607.875
  22365314.789    -9335782.794 7  -7130907.751 9  22365318.328
  20758837.109   -16378759.614 8 -12649895.065 9  20758839.219
  20845325.875   -17177198.894 7 -13290054.320 9  20845328.254
  22100096.078    -8866068.847 7  -6804172.853 9  22100098.891
  24029080.320     -766092.960 5   -539294.229 8  24029083.672
 94  2 17 22 26 30.0000000  0  6 18  2 19 27 31 16
  21637514.031   -12088958.246 7  -9276802.348 9  21637516.691
  22356123.000    -9384083.019 7  -7168544.259 9  22356126.715
  20762862.070   -16357607.952 8 -12633413.250 9  20762864.133
  20840326.547   -17203471.651 7 -13310526.590 9  20840328.867
  22108490.969    -8821953.434 7  -6769797.231 9  22108493.699
  24029710.258     -762784.284 5   -536716.046 9  24029713.305
 94  2 17 22 27  0.0000000  0  6 18  2 19 27 31 16
  21655492.305   -11994481.807 7  -9203184.381 9  21655494.953
  22346988.609    -9432085.708 7  -7205948.919 9  22346992.242
  20766935.211   -16336202.451 8 -12616733.635 9  20766937.285
  20835367.578   -17229529.631 7 -13330831.490 9  20835369.816
  22116995.977    -8777260.198 7  -6734971.346 9  22116998.672
  24030437.609     -758960.248 5   -533736.268 8  24030441.758
 94  2 17 22 27 30.0000000  0  6 18  2 19 27 31 16
  21673540.328   -11899638.994 7  -9129280.933 9  21673542.895
  22337910.273    -9479791.931 7  -7243122.562 9  22337914.035
  20771052.203   -16314567.953 7 -12599875.586 9  20771054.277
  20830447.828   -17255383.407 7 -13350977.267 9  20830450.313
  22125609.555    -8731995.623 7  -6699700.260 9  22125612.520
  24031264.453     -754617.437 5   -530352.267 9  24031267.254
 94  2 17 22 28  0.0000000  0  6 18  2 19 27 31 16
  21691659.609   -11804422.497 7  -9055086.299 9  21691662.023
  22328887.180    -9527209.320 7  -7280071.133 9  22328890.859
  20775210.141   -16292718.206 8 -12582849.801 9  20775212.215
  20825564.898   -17281043.368 7 -13370972.028 9  20825567.195
  22134332.344    -8686155.570 7  -6663980.744 9  22134335.098
  24032190.664     -749746.855 5   -526556.996 9  24032194.555
 94  2 17 22 28 30.0000000  0  6 18  2 19 27 31 16
  21709852.141   -11708820.397 7  -8980591.197 9  21709854.742
  22319915.195    -9574355.456 7  -7316808.334 9  22319919.098
  20779407.781   -16270659.522 7 -12565661.207 9  20779409.773
  20820718.273   -17306511.913 7 -13390817.630 9  20820720.500
  22143163.984    -8639744.056 7  -6627815.932 9  22143166.785
  24033219.203     -744343.626 5   -522346.698 9  24033223.187
 94  2 17 22 29  0.0000000  0  6 18  2 19 27 31 16
  21728119.273   -11612825.571 7  -8905790.074 9  21728121.863
  22310993.516    -9621239.329 7  -7353341.178 9  22310997.336
  20783644.594   -16248393.497 7 -12548311.052 9  20783646.703
  20815911.438   -17331773.143 7 -13410501.690 9  20815913.629
  22152106.414    -8592751.572 7  -6591198.418 9  22152109.215
  24034349.648     -738401.484 5   -517716.455 9  24034354.207
 94  2 17 22 29 30.0000000  0  6 18  2 19 27 31 16
  21746460.391   -11516442.597 7  -8830686.503 9  21746462.957
  22302118.766    -9667876.770 7  -7389681.993 9  22302122.340
  20787920.961   -16225922.481 7 -12530801.164 9  20787922.895
  20811144.430   -17356824.438 7 -13430022.162 9  20811146.574
  22161161.117    -8545170.077 7  -6554121.938 9  22161163.684
  24035581.180     -731926.170 5   -512670.762 9  24035586.582
 94  2 17 22 30  0.0000000  0  6 18  2 19 27 31 16
  21764874.859   -11419676.134 7  -8755284.102 9  21764877.203
  22293291.844    -9714263.158 7  -7425827.184 9  22293295.477
  20792240.648   -16203221.148 7 -12513111.803 9  20792242.594
  20806418.766   -17381656.831 7 -13449372.060 9  20806420.863
  22170327.367    -8496999.334 7  -6516586.309 9  22170329.969
  24036916.328     -724910.803 5   -507204.240 9  24036921.988
 94  2 17 22 30 30.0000000  0  6 18  2 19 27 31 16
  21783359.234   -11322540.587 7  -8679594.102 9  21783361.637
  22284514.414    -9760388.873 7  -7461769.249 9  22284517.953
  20796606.656   -16180278.544 7 -12495234.442 9  20796608.684
  20801734.781   -17406270.951 7 -13468551.877 9  20801736.832
  22179606.688    -8448239.546 7  -6478591.690 9  22179609.254
  24038353.211     -717362.651 5   -501322.558 9  24038357.371
 94  2 17 22 31  0.0000000  0  6 18  2 19 27 31 16
  21801909.734   -11225055.611 7  -8603631.825 9  21801912.371
  22275789.805    -9806237.530 7  -7497495.427 9  22275793.297
  20801020.047   -16157086.684 7 -12477162.855 9  20801022.086
  20797091.992   -17430669.723 7 -13487563.898 9  20797094.230
  22188996.063    -8398897.384 7  -6440143.264 9  22188998.348
  24039892.172     -709279.267 5   -495023.835 9  24039895.207
 94  2 17 22 31 30.0000000  0  6 18  2 19 27 31 16
  21820526.352   -11127225.999 7  -8527401.009 9  21820529.152
  22267120.086    -9851795.412 7  -7532995.030 9  22267123.695
  20805482.070   -16133637.754 7 -12458890.957 9  20805484.063
  20792489.484   -17454854.993 7 -13506409.549 9  20792491.582
  22198493.344    -8348988.352 7  -6401253.132 9  22198495.816
  24041530.445     -700665.533 5   -488311.856 9  24041534.699
 94  2 17 22 32  0.0000000  0  6 18  2 19 27 31 16
  21839207.695   -11029053.938 7  -8450903.341 9  21839210.543
  22258508.461    -9897051.506 7  -7568259.471 9  22258511.906
  20809993.516   -16109930.118 7 -12440417.468 9  20809995.543
  20787927.234   -17478830.628 7 -13525091.844 9  20787929.426
  22208098.844    -8298514.246 7  -6361922.676 9  22208101.105
  24043270.039     -691527.094 5   -481191.001 9  24043274.832
 94  2 17 22 32 30.0000000  0  6 18  2 19 27 31 16
  21857950.188   -10930561.186 7  -8374155.782 9  21857952.965
  22249949.039    -9942030.294 7  -7603307.829 9  22249952.707
  20814547.617   -16085998.308 7 -12421769.305 9  20814549.574
  20783403.719   -17502601.230 7 -13543614.372 9  20783405.781
  22217808.297    -8247488.480 7  -6322162.355 9  22217810.395
  24045104.867     -681889.106 5   -473680.910 9  24045107.879
 94  2 17 22 33  0.0000000  0  6 18  2 19 27 31 16
  21876757.555   -10831728.482 7  -8297143.334 9  21876760.227
  22241442.203    -9986732.349 7  -7638140.560 9  22241445.836
  20819147.203   -16061826.888 7 -12402934.431 9  20819149.242
  20778922.539   -17526149.819 7 -13561963.900 9  20778924.484
  22227625.727    -8195899.906 7  -6281963.483 9  22227627.848
  24047033.437     -671746.276 5   -465777.424 9  24047038.676
 94  2 17 22 33 30.0000000  0  6 18  2 19 27 31 16
  21895629.039   -10732557.141 7  -8219867.007 9  21895631.910
  22232984.813   -10031174.411 7  -7672770.685 9  22232988.586
  20823791.516   -16037421.514 7 -12383917.246 9  20823793.590
  20774483.836   -17549475.326 7 -13580139.604 9  20774485.875
  22237548.234    -8143754.831 7  -6241330.963 9  22237550.180
  24049058.141     -661110.988 5   -457490.139 9  24049064.352
 94  2 17 22 34  0.0000000  0  6 18  2 19 27 31 16
  21914563.383   -10633057.338 7  -8142334.742 9  21914566.477
  22224576.547   -10075362.155 7  -7707202.652 9  22224580.086
  20828478.734   -16012788.000 7 -12364722.305 9  20828480.785
  20770087.523   -17572577.511 7 -13598141.292 9  20770089.527
  22247578.094    -8091047.414 7  -6200260.261 9  22247580.180
  24051174.867     -649988.486 5   -448823.267 9  24051179.262
 94  2 17 22 34 30.0000000  0  6 18  2 19 27 31 16
  21933561.609   -10533220.438 7  -8064539.804 9  21933564.820
  22216216.086   -10119296.910 7  -7741437.479 9  22216219.625
  20833211.352   -15987919.590 7 -12345344.325 9  20833213.508
  20765733.930   -17595456.506 7 -13615969.062 9  20765735.992
  22257712.633    -8037789.427 7  -6158760.542 9  22257714.813
  24053383.289     -638384.229 5   -439780.993 9  24053386.934
 94  2 17 22 35  0.0000000  0  6 18  2 19 27 31 16
  21952623.523   -10433050.118 7  -7986485.058 9  21952626.688
  22207904.898   -10162970.141 7  -7775468.522 9  22207908.695
  20837991.477   -15962799.774 7 -12325770.446 9  20837993.445
  20761420.234   -17618125.434 7 -13633633.142 9  20761422.250
  22267951.422    -7983985.023 7  -6116835.040 9  22267953.508
  24055683.555     -626295.030 5   -430360.892 9  24055686.297
 94  2 17 22 35 30.0000000  0  6 18  2 19 27 31 16
  21971747.492   -10332551.084 7  -7908174.169 9  21971750.902
  22199647.070   -10206367.676 7  -7809284.744 9  22199650.762
  20842818.688   -15937431.622 7 -12306003.060 9  20842820.820
  20757148.727   -17640570.941 7 -13651123.133 9  20757150.648
  22278295.242    -7929626.177 7  -6074477.511 9  22278297.492
  24058079.211     -613701.752 5   -420547.987 8  24058084.039
 94  2 17 22 36  0.0000000  0  6 18  2 19 27 31 16
  21990935.313   -10231720.340 7  -7829604.809 9  21990938.559
  22191441.422   -10249486.373 7  -7842883.678 9  22191445.266
  20847691.508   -15911824.335 7 -12286049.339 9  20847693.746
  20752918.109   -17662804.900 7 -13668448.279 9  20752920.031
  22288747.133    -7874701.782 7  -6031679.295 9  22288749.383
  24060573.406     -600596.855 5   -410336.409 8  24060578.363
